Wetterdaten: Mittwoch, 08.11.2017
Datum Zeit Temp. A. Pool Temp. Feuchte A. Luftdruck Regen Wind Richtung Richtung Sonnenschein ET UV Solar Taupunkt Windchill Windben Empfang
08.11.2017 00:00 7,6 C 7,2 C 88 % 1013,2 hPa 0,0 l/m 22,1 km/h (4 Bft) NO 52 0 min 0,000 mm 0,0 UV-I 0 W/m 5,7 C -0,5 C 27,4 km/h (4 Bft) 100,00 %
08.11.2017 00:02 7,6 C 7,2 C 88 % 1013,2 hPa 0,0 l/m 24,5 km/h (4 Bft) O-NO 63 0 min 0,000 mm 0,0 UV-I 0 W/m 5,7 C -1,3 C 35,4 km/h (5 Bft) 97,30 %
08.11.2017 00:04 7,6 C 7,2 C 88 % 1013,2 hPa 0,0 l/m 22,8 km/h (4 Bft) NO 43 0 min 0,000 mm 0,0 UV-I 0 W/m 5,7 C -0,8 C 32,2 km/h (5 Bft) 100,00 %
08.11.2017 00:06 7,6 C 7,2 C 88 % 1013,3 hPa 0,0 l/m 22,0 km/h (4 Bft) O 84 0 min 0,000 mm 0,0 UV-I 0 W/m 5,7 C -0,5 C 35,4 km/h (5 Bft) 97,73 %
08.11.2017 00:08 7,6 C 7,2 C 88 % 1013,2 hPa 0,0 l/m 22,8 km/h (4 Bft) O-NO 71 0 min 0,000 mm 0,0 UV-I 0 W/m 5,7 C -0,8 C 35,4 km/h (5 Bft) 100,00 %
08.11.2017 00:10 7,6 C 7,2 C 88 % 1013,2 hPa 0,0 l/m 22,2 km/h (4 Bft) O-NO 65 0 min 0,000 mm 0,0 UV-I 0 W/m 5,7 C -0,6 C 30,6 km/h (5 Bft) 100,00 %
08.11.2017 00:12 7,6 C 7,2 C 88 % 1013,3 hPa 0,0 l/m 24,0 km/h (4 Bft) O-NO 74 0 min 0,000 mm 0,0 UV-I 0 W/m 5,7 C -1,1 C 35,4 km/h (5 Bft) 100,00 %
08.11.2017 00:14 7,6 C 7,2 C 88 % 1013,4 hPa 0,0 l/m 25,0 km/h (4 Bft) O-NO 64 0 min 0,000 mm 0,0 UV-I 0 W/m 5,7 C -1,4 C 33,8 km/h (5 Bft) 100,00 %
08.11.2017 00:16 7,6 C 7,2 C 88 % 1013,3 hPa 0,0 l/m 26,7 km/h (4 Bft) O-NO 61 0 min 0,000 mm 0,0 UV-I 0 W/m 5,7 C -1,9 C 40,2 km/h (6 Bft) 100,00 %
08.11.2017 00:18 7,6 C 7,2 C 88 % 1013,3 hPa 0,0 l/m 20,7 km/h (4 Bft) NO 53 0 min 0,000 mm 0,0 UV-I 0 W/m 5,7 C -0,1 C 32,2 km/h (5 Bft) 100,00 %
08.11.2017 00:20 7,6 C 7,2 C 88 % 1013,3 hPa 0,0 l/m 21,6 km/h (4 Bft) O-NO 59 0 min 0,000 mm 0,0 UV-I 0 W/m 5,7 C -0,4 C 33,8 km/h (5 Bft) 100,00 %
08.11.2017 00:22 7,6 C 7,2 C 88 % 1013,3 hPa 0,0 l/m 24,1 km/h (4 Bft) NO 53 0 min 0,000 mm 0,0 UV-I 0 W/m 5,7 C -1,2 C 32,2 km/h (5 Bft) 100,00 %
08.11.2017 00:24 7,6 C 7,2 C 88 % 1013,4 hPa 0,0 l/m 22,9 km/h (4 Bft) O 97 0 min 0,000 mm 0,0 UV-I 0 W/m 5,7 C -0,8 C 35,4 km/h (5 Bft) 97,73 %
08.11.2017 00:26 7,5 C 7,2 C 88 % 1013,4 hPa 0,0 l/m 21,3 km/h (4 Bft) O-NO 70 0 min 0,000 mm 0,0 UV-I 0 W/m 5,6 C -0,4 C 27,4 km/h (4 Bft) 98,11 %
08.11.2017 00:28 7,5 C 7,2 C 89 % 1013,4 hPa 0,0 l/m 23,4 km/h (4 Bft) O-NO 66 0 min 0,000 mm 0,0 UV-I 0 W/m 5,8 C -1,1 C 33,8 km/h (5 Bft) 100,00 %
08.11.2017 00:30 7,5 C 7,2 C 89 % 1013,4 hPa 0,0 l/m 22,4 km/h (4 Bft) O-SO 113 0 min 0,000 mm 0,0 UV-I 0 W/m 5,8 C -0,8 C 32,2 km/h (5 Bft) 100,00 %
08.11.2017 00:32 7,5 C 7,2 C 88 % 1013,4 hPa 0,0 l/m 24,4 km/h (4 Bft) O-NO 76 0 min 0,000 mm 0,0 UV-I 0 W/m 5,6 C -1,4 C 35,4 km/h (5 Bft) 100,00 %
08.11.2017 00:34 7,5 C 7,2 C 88 % 1013,4 hPa 0,0 l/m 20,4 km/h (4 Bft) O-NO 73 0 min 0,000 mm 0,0 UV-I 0 W/m 5,6 C -0,1 C 29,0 km/h (5 Bft) 100,00 %
08.11.2017 00:36 7,5 C 7,2 C 88 % 1013,5 hPa 0,0 l/m 20,1 km/h (4 Bft) O-NO 71 0 min 0,000 mm 0,0 UV-I 0 W/m 5,6 C 0,0 C 30,6 km/h (5 Bft) 100,00 %
08.11.2017 00:38 7,5 C 7,2 C 88 % 1013,5 hPa 0,0 l/m 19,4 km/h (3 Bft) O 85 0 min 0,000 mm 0,0 UV-I 0 W/m 5,6 C 0,3 C 29,0 km/h (5 Bft) 100,00 %
08.11.2017 00:40 7,5 C 7,2 C 88 % 1013,5 hPa 0,0 l/m 20,9 km/h (4 Bft) O-NO 76 0 min 0,000 mm 0,0 UV-I 0 W/m 5,6 C -0,3 C 29,0 km/h (5 Bft) 95,45 %
08.11.2017 00:42 7,6 C 7,2 C 88 % 1013,5 hPa 0,0 l/m 21,0 km/h (4 Bft) O 88 0 min 0,000 mm 0,0 UV-I 0 W/m 5,7 C -0,2 C 30,6 km/h (5 Bft) 97,37 %
08.11.2017 00:44 7,5 C 7,2 C 88 % 1013,5 hPa 0,0 l/m 18,2 km/h (3 Bft) O-NO 69 0 min 0,000 mm 0,0 UV-I 0 W/m 5,6 C 0,7 C 29,0 km/h (5 Bft) 100,00 %
08.11.2017 00:46 7,5 C 7,2 C 89 % 1013,5 hPa 0,0 l/m 23,0 km/h (4 Bft) O-NO 74 0 min 0,000 mm 0,0 UV-I 0 W/m 5,8 C -1,0 C 30,6 km/h (5 Bft) 100,00 %
08.11.2017 00:48 7,5 C 7,2 C 89 % 1013,5 hPa 0,0 l/m 19,5 km/h (3 Bft) O-NO 65 0 min 0,000 mm 0,0 UV-I 0 W/m 5,8 C 0,2 C 30,6 km/h (5 Bft) 100,00 %
08.11.2017 00:50 7,5 C 7,2 C 89 % 1013,5 hPa 0,0 l/m 18,8 km/h (3 Bft) O-NO 70 0 min 0,000 mm 0,0 UV-I 0 W/m 5,8 C 0,5 C 29,0 km/h (5 Bft) 96,00 %
08.11.2017 00:52 7,5 C 7,2 C 89 % 1013,5 hPa 0,0 l/m 18,4 km/h (3 Bft) NO 55 0 min 0,000 mm 0,0 UV-I 0 W/m 5,8 C 0,7 C 29,0 km/h (5 Bft) 100,00 %
08.11.2017 00:54 7,4 C 7,2 C 89 % 1013,5 hPa 0,0 l/m 19,6 km/h (3 Bft) O-NO 58 0 min 0,000 mm 0,0 UV-I 0 W/m 5,7 C 0,1 C 30,6 km/h (5 Bft) 100,00 %
08.11.2017 00:56 7,5 C 7,2 C 89 % 1013,6 hPa 0,0 l/m 19,7 km/h (3 Bft) O-NO 73 0 min 0,000 mm 0,0 UV-I 0 W/m 5,8 C 0,2 C 29,0 km/h (5 Bft) 100,00 %
08.11.2017 00:58 7,5 C 7,2 C 89 % 1013,7 hPa 0,0 l/m 20,6 km/h (4 Bft) O 101 0 min 0,000 mm 0,0 UV-I 0 W/m 5,8 C -0,2 C 29,0 km/h (5 Bft) 97,62 %
08.11.2017 01:00 7,4 C 7,2 C 89 % 1013,7 hPa 0,0 l/m 16,5 km/h (3 Bft) O-NO 67 0 min 0,025 mm 0,0 UV-I 0 W/m 5,7 C 1,3 C 22,5 km/h (4 Bft) 100,00 %
08.11.2017 01:02 7,4 C 7,2 C 89 % 1013,7 hPa 0,0 l/m 19,0 km/h (3 Bft) O-NO 68 0 min 0,000 mm 0,0 UV-I 0 W/m 5,7 C 0,3 C 27,4 km/h (4 Bft) 100,00 %
08.11.2017 01:04 7,4 C 7,2 C 89 % 1013,7 hPa 0,0 l/m 16,4 km/h (3 Bft) O-NO 77 0 min 0,000 mm 0,0 UV-I 0 W/m 5,7 C 1,4 C 29,0 km/h (5 Bft) 97,56 %
08.11.2017 01:06 7,4 C 7,2 C 89 % 1013,7 hPa 0,0 l/m 17,5 km/h (3 Bft) O-NO 60 0 min 0,000 mm 0,0 UV-I 0 W/m 5,7 C 0,9 C 29,0 km/h (5 Bft) 100,00 %
08.11.2017 01:08 7,4 C 7,2 C 89 % 1013,7 hPa 0,0 l/m 15,4 km/h (3 Bft) O 96 0 min 0,000 mm 0,0 UV-I 0 W/m 5,7 C 1,8 C 25,7 km/h (4 Bft) 100,00 %
08.11.2017 01:10 7,4 C 7,2 C 89 % 1013,7 hPa 0,0 l/m 14,4 km/h (3 Bft) O-NO 69 0 min 0,000 mm 0,0 UV-I 0 W/m 5,7 C 2,3 C 25,7 km/h (4 Bft) 97,73 %
08.11.2017 01:12 7,4 C 7,2 C 89 % 1013,8 hPa 0,0 l/m 17,7 km/h (3 Bft) O-NO 59 0 min 0,000 mm 0,0 UV-I 0 W/m 5,7 C 0,8 C 24,1 km/h (4 Bft) 100,00 %
08.11.2017 01:14 7,4 C 7,2 C 89 % 1013,8 hPa 0,0 l/m 15,8 km/h (3 Bft) O-NO 70 0 min 0,000 mm 0,0 UV-I 0 W/m 5,7 C 1,6 C 22,5 km/h (4 Bft) 98,00 %
08.11.2017 01:16 7,4 C 7,2 C 89 % 1013,8 hPa 0,0 l/m 17,4 km/h (3 Bft) O-NO 59 0 min 0,000 mm 0,0 UV-I 0 W/m 5,7 C 0,9 C 25,7 km/h (4 Bft) 100,00 %
08.11.2017 01:18 7,4 C 7,2 C 89 % 1013,8 hPa 0,0 l/m 14,8 km/h (3 Bft) O 88 0 min 0,000 mm 0,0 UV-I 0 W/m 5,7 C 2,1 C 25,7 km/h (4 Bft) 100,00 %
08.11.2017 01:20 7,4 C 7,2 C 89 % 1013,8 hPa 0,0 l/m 16,3 km/h (3 Bft) O-SO 107 0 min 0,000 mm 0,0 UV-I 0 W/m 5,7 C 1,4 C 27,4 km/h (4 Bft) 100,00 %
08.11.2017 01:22 7,4 C 7,2 C 89 % 1013,7 hPa 0,0 l/m 12,7 km/h (3 Bft) O-NO 61 0 min 0,000 mm 0,0 UV-I 0 W/m 5,7 C 3,1 C 20,9 km/h (4 Bft) 100,00 %
08.11.2017 01:24 7,4 C 7,2 C 89 % 1013,7 hPa 0,0 l/m 12,3 km/h (3 Bft) O-NO 71 0 min 0,000 mm 0,0 UV-I 0 W/m 5,7 C 3,4 C 17,7 km/h (3 Bft) 100,00 %
08.11.2017 01:26 7,3 C 7,2 C 89 % 1013,6 hPa 0,0 l/m 7,8 km/h (2 Bft) O 92 0 min 0,000 mm 0,0 UV-I 0 W/m 5,6 C 6,2 C 11,3 km/h (2 Bft) 100,00 %
08.11.2017 01:28 7,3 C 7,2 C 90 % 1013,6 hPa 0,0 l/m 9,1 km/h (2 Bft) O-SO 118 0 min 0,000 mm 0,0 UV-I 0 W/m 5,8 C 5,2 C 12,9 km/h (3 Bft) 95,74 %
08.11.2017 01:30 7,3 C 7,2 C 90 % 1013,7 hPa 0,0 l/m 14,3 km/h (3 Bft) O-NO 74 0 min 0,000 mm 0,0 UV-I 0 W/m 5,8 C 2,2 C 20,9 km/h (4 Bft) 94,00 %
08.11.2017 01:32 7,3 C 7,2 C 90 % 1013,7 hPa 0,0 l/m 16,7 km/h (3 Bft) O-NO 68 0 min 0,000 mm 0,0 UV-I 0 W/m 5,8 C 1,1 C 24,1 km/h (4 Bft) 97,37 %
08.11.2017 01:34 7,3 C 7,2 C 90 % 1013,7 hPa 0,0 l/m 12,7 km/h (3 Bft) O-SO 112 0 min 0,000 mm 0,0 UV-I 0 W/m 5,8 C 3,0 C 17,7 km/h (3 Bft) 97,78 %
08.11.2017 01:36 7,3 C 7,2 C 90 % 1013,9 hPa 0,0 l/m 12,8 km/h (3 Bft) O-NO 77 0 min 0,000 mm 0,0 UV-I 0 W/m 5,8 C 3,0 C 19,3 km/h (3 Bft) 98,00 %
08.11.2017 01:38 7,3 C 7,2 C 90 % 1014,0 hPa 0,0 l/m 12,5 km/h (3 Bft) O-SO 108 0 min 0,000 mm 0,0 UV-I 0 W/m 5,8 C 3,1 C 20,9 km/h (4 Bft) 96,15 %
08.11.2017 01:40 7,2 C 7,2 C 90 % 1014,0 hPa 0,0 l/m 12,3 km/h (3 Bft) O-NO 74 0 min 0,000 mm 0,0 UV-I 0 W/m 5,7 C 3,1 C 20,9 km/h (4 Bft) 97,62 %
08.11.2017 01:42 7,2 C 7,2 C 90 % 1014,0 hPa 0,0 l/m 11,1 km/h (2 Bft) O 98 0 min 0,000 mm 0,0 UV-I 0 W/m 5,7 C 3,8 C 14,5 km/h (3 Bft) 97,87 %
08.11.2017 01:44 7,2 C 7,2 C 90 % 1014,0 hPa 0,0 l/m 11,5 km/h (2 Bft) O 79 0 min 0,000 mm 0,0 UV-I 0 W/m 5,7 C 3,6 C 19,3 km/h (3 Bft) 96,00 %
08.11.2017 01:46 7,2 C 7,2 C 90 % 1014,0 hPa 0,0 l/m 10,8 km/h (2 Bft) O-NO 74 0 min 0,000 mm 0,0 UV-I 0 W/m 5,7 C 4,0 C 16,1 km/h (3 Bft) 98,00 %
08.11.2017 01:48 7,2 C 7,2 C 90 % 1013,8 hPa 0,0 l/m 12,3 km/h (3 Bft) O-NO 77 0 min 0,000 mm 0,0 UV-I 0 W/m 5,7 C 3,1 C 20,9 km/h (4 Bft) 94,74 %
08.11.2017 01:50 7,2 C 7,2 C 90 % 1013,8 hPa 0,0 l/m 7,5 km/h (2 Bft) O-SO 117 0 min 0,000 mm 0,0 UV-I 0 W/m 5,7 C 6,3 C 14,5 km/h (3 Bft) 94,34 %
08.11.2017 01:52 7,2 C 7,2 C 90 % 1013,7 hPa 0,0 l/m 6,6 km/h (2 Bft) O-NO 76 0 min 0,000 mm 0,0 UV-I 0 W/m 5,7 C 7,1 C 12,9 km/h (3 Bft) 95,12 %
08.11.2017 01:54 7,2 C 7,2 C 90 % 1013,7 hPa 0,0 l/m 9,4 km/h (2 Bft) O 83 0 min 0,000 mm 0,0 UV-I 0 W/m 5,7 C 4,9 C 16,1 km/h (3 Bft) 96,23 %
08.11.2017 01:56 7,2 C 7,2 C 90 % 1013,7 hPa 0,0 l/m 11,7 km/h (2 Bft) O 90 0 min 0,000 mm 0,0 UV-I 0 W/m 5,7 C 3,5 C 16,1 km/h (3 Bft) 95,12 %
08.11.2017 01:58 7,2 C 7,2 C 90 % 1013,6 hPa 0,0 l/m 10,0 km/h (2 Bft) O-NO 73 0 min 0,000 mm 0,0 UV-I 0 W/m 5,7 C 4,5 C 20,9 km/h (4 Bft) 94,00 %
08.11.2017 02:00 7,2 C 7,2 C 90 % 1013,6 hPa 0,0 l/m 13,9 km/h (3 Bft) O-NO 72 0 min 0,026 mm 0,0 UV-I 0 W/m 5,7 C 2,3 C 17,7 km/h (3 Bft) 95,74 %
08.11.2017 02:02 7,2 C 7,2 C 90 % 1013,7 hPa 0,0 l/m 9,4 km/h (2 Bft) NO 56 0 min 0,000 mm 0,0 UV-I 0 W/m 5,7 C 4,9 C 16,1 km/h (3 Bft) 95,74 %
08.11.2017 02:04 7,2 C 7,2 C 91 % 1013,7 hPa 0,0 l/m 12,2 km/h (2 Bft) O 83 0 min 0,000 mm 0,0 UV-I 0 W/m 5,8 C 3,2 C 19,3 km/h (3 Bft) 97,56 %
08.11.2017 02:06 7,2 C 7,2 C 90 % 1013,7 hPa 0,0 l/m 15,0 km/h (3 Bft) O-NO 68 0 min 0,000 mm 0,0 UV-I 0 W/m 5,7 C 1,7 C 19,3 km/h (3 Bft) 98,00 %
08.11.2017 02:08 7,2 C 7,2 C 90 % 1013,7 hPa 0,0 l/m 13,6 km/h (3 Bft) O-NO 65 0 min 0,000 mm 0,0 UV-I 0 W/m 5,7 C 2,4 C 20,9 km/h (4 Bft) 94,34 %
08.11.2017 02:10 7,2 C 7,2 C 90 % 1013,7 hPa 0,0 l/m 12,6 km/h (3 Bft) O-NO 74 0 min 0,000 mm 0,0 UV-I 0 W/m 5,7 C 3,0 C 17,7 km/h (3 Bft) 95,24 %
08.11.2017 02:12 7,2 C 7,2 C 90 % 1013,7 hPa 0,0 l/m 10,4 km/h (2 Bft) O 85 0 min 0,000 mm 0,0 UV-I 0 W/m 5,7 C 4,2 C 17,7 km/h (3 Bft) 94,00 %
08.11.2017 02:14 7,2 C 7,2 C 90 % 1013,7 hPa 0,0 l/m 8,0 km/h (2 Bft) O-NO 67 0 min 0,000 mm 0,0 UV-I 0 W/m 5,7 C 5,9 C 12,9 km/h (3 Bft) 97,62 %
08.11.2017 02:16 7,2 C 7,2 C 91 % 1013,7 hPa 0,0 l/m 11,5 km/h (2 Bft) O-NO 67 0 min 0,000 mm 0,0 UV-I 0 W/m 5,8 C 3,6 C 16,1 km/h (3 Bft) 97,14 %
08.11.2017 02:18 7,2 C 7,2 C 91 % 1013,8 hPa 0,0 l/m 8,3 km/h (2 Bft) O-SO 109 0 min 0,000 mm 0,0 UV-I 0 W/m 5,8 C 5,7 C 14,5 km/h (3 Bft) 96,77 %
08.11.2017 02:20 7,2 C 7,2 C 91 % 1013,8 hPa 0,0 l/m 11,4 km/h (2 Bft) O-NO 63 0 min 0,000 mm 0,0 UV-I 0 W/m 5,8 C 3,6 C 19,3 km/h (3 Bft) 97,37 %
08.11.2017 02:22 7,2 C 7,2 C 91 % 1013,8 hPa 0,0 l/m 9,2 km/h (2 Bft) O-NO 76 0 min 0,000 mm 0,0 UV-I 0 W/m 5,8 C 5,0 C 12,9 km/h (3 Bft) 98,21 %
08.11.2017 02:24 7,2 C 7,2 C 91 % 1013,8 hPa 0,0 l/m 11,5 km/h (2 Bft) O-NO 69 0 min 0,000 mm 0,0 UV-I 0 W/m 5,8 C 3,6 C 17,7 km/h (3 Bft) 97,56 %
08.11.2017 02:26 7,2 C 7,2 C 91 % 1013,7 hPa 0,0 l/m 9,5 km/h (2 Bft) O-NO 58 0 min 0,000 mm 0,0 UV-I 0 W/m 5,8 C 4,8 C 14,5 km/h (3 Bft) 98,11 %
08.11.2017 02:28 7,2 C 7,2 C 91 % 1013,8 hPa 0,0 l/m 8,3 km/h (2 Bft) O 82 0 min 0,000 mm 0,0 UV-I 0 W/m 5,8 C 5,7 C 14,5 km/h (3 Bft) 94,00 %
08.11.2017 02:30 7,2 C 7,2 C 91 % 1013,8 hPa 0,0 l/m 13,6 km/h (3 Bft) O 80 0 min 0,000 mm 0,0 UV-I 0 W/m 5,8 C 2,4 C 20,9 km/h (4 Bft) 97,56 %
08.11.2017 02:32 7,2 C 7,2 C 91 % 1013,9 hPa 0,0 l/m 10,9 km/h (2 Bft) O-SO 109 0 min 0,000 mm 0,0 UV-I 0 W/m 5,8 C 3,9 C 16,1 km/h (3 Bft) 98,11 %
08.11.2017 02:34 7,2 C 7,2 C 91 % 1013,9 hPa 0,0 l/m 8,1 km/h (2 Bft) O-SO 110 0 min 0,000 mm 0,0 UV-I 0 W/m 5,8 C 5,8 C 14,5 km/h (3 Bft) 95,12 %
08.11.2017 02:36 7,2 C 7,2 C 91 % 1013,9 hPa 0,0 l/m 4,6 km/h (1 Bft) O-SO 109 0 min 0,000 mm 0,0 UV-I 0 W/m 5,8 C 7,2 C 9,7 km/h (2 Bft) 96,00 %
08.11.2017 02:38 7,2 C 7,2 C 91 % 1013,9 hPa 0,0 l/m 4,9 km/h (1 Bft) O-SO 104 0 min 0,000 mm 0,0 UV-I 0 W/m 5,8 C 7,2 C 8,0 km/h (2 Bft) 100,00 %
08.11.2017 02:40 7,1 C 7,2 C 91 % 1013,9 hPa 0,0 l/m 6,2 km/h (2 Bft) O 79 0 min 0,000 mm 0,0 UV-I 0 W/m 5,7 C 7,1 C 14,5 km/h (3 Bft) 96,23 %
08.11.2017 02:42 7,2 C 7,2 C 91 % 1013,9 hPa 0,0 l/m 8,8 km/h (2 Bft) O 84 0 min 0,000 mm 0,0 UV-I 0 W/m 5,8 C 5,3 C 16,1 km/h (3 Bft) 98,00 %
08.11.2017 02:44 7,2 C 7,2 C 91 % 1013,9 hPa 0,0 l/m 2,6 km/h (1 Bft) O 84 0 min 0,000 mm 0,0 UV-I 0 W/m 5,8 C 7,2 C 4,8 km/h (1 Bft) 98,00 %
08.11.2017 02:46 7,1 C 7,2 C 91 % 1014,0 hPa 0,0 l/m 5,2 km/h (1 Bft) O 96 0 min 0,000 mm 0,0 UV-I 0 W/m 5,7 C 7,1 C 9,7 km/h (2 Bft) 94,74 %
08.11.2017 02:48 7,1 C 7,2 C 91 % 1014,0 hPa 0,0 l/m 6,9 km/h (2 Bft) O 82 0 min 0,000 mm 0,0 UV-I 0 W/m 5,7 C 6,7 C 11,3 km/h (2 Bft) 96,30 %
08.11.2017 02:50 7,1 C 7,2 C 91 % 1014,0 hPa 0,0 l/m 8,8 km/h (2 Bft) O-NO 66 0 min 0,000 mm 0,0 UV-I 0 W/m 5,7 C 5,2 C 14,5 km/h (3 Bft) 98,51 %
08.11.2017 02:52 7,1 C 7,2 C 91 % 1013,9 hPa 0,0 l/m 6,6 km/h (2 Bft) O 87 0 min 0,000 mm 0,0 UV-I 0 W/m 5,7 C 7,0 C 11,3 km/h (2 Bft) 100,00 %
08.11.2017 02:54 7,1 C 7,2 C 91 % 1013,9 hPa 0,0 l/m 7,4 km/h (2 Bft) O 99 0 min 0,000 mm 0,0 UV-I 0 W/m 5,7 C 6,3 C 11,3 km/h (2 Bft) 100,00 %
08.11.2017 02:56 7,1 C 7,2 C 91 % 1013,9 hPa 0,0 l/m 6,2 km/h (2 Bft) O 89 0 min 0,000 mm 0,0 UV-I 0 W/m 5,7 C 7,1 C 11,3 km/h (2 Bft) 100,00 %
08.11.2017 02:58 7,1 C 7,2 C 91 % 1013,9 hPa 0,0 l/m 5,3 km/h (1 Bft) O 88 0 min 0,000 mm 0,0 UV-I 0 W/m 5,7 C 7,1 C 9,7 km/h (2 Bft) 100,00 %
08.11.2017 03:00 7,0 C 7,2 C 91 % 1013,9 hPa 0,0 l/m 4,4 km/h (1 Bft) O-SO 111 0 min 0,000 mm 0,0 UV-I 0 W/m 5,6 C 7,0 C 8,0 km/h (2 Bft) 100,00 %
08.11.2017 03:02 6,9 C 7,2 C 91 % 1013,9 hPa 0,0 l/m 1,8 km/h (1 Bft) O-SO 111 0 min 0,000 mm 0,0 UV-I 0 W/m 5,5 C 6,9 C 3,2 km/h (1 Bft) 100,00 %
08.11.2017 03:04 6,9 C 7,2 C 92 % 1013,9 hPa 0,0 l/m 3,0 km/h (1 Bft) O-SO 111 0 min 0,000 mm 0,0 UV-I 0 W/m 5,7 C 6,9 C 4,8 km/h (1 Bft) 98,00 %
08.11.2017 03:06 6,9 C 7,2 C 92 % 1013,9 hPa 0,0 l/m 2,0 km/h (1 Bft) O-SO 111 0 min 0,000 mm 0,0 UV-I 0 W/m 5,7 C 6,9 C 3,2 km/h (1 Bft) 97,87 %
08.11.2017 03:08 6,8 C 7,2 C 92 % 1013,9 hPa 0,0 l/m 1,9 km/h (1 Bft) O-SO 111 0 min 0,000 mm 0,0 UV-I 0 W/m 5,6 C 6,8 C 3,2 km/h (1 Bft) 98,00 %
08.11.2017 03:10 6,8 C 7,2 C 92 % 1013,9 hPa 0,0 l/m 4,3 km/h (1 Bft) O 90 0 min 0,000 mm 0,0 UV-I 0 W/m 5,6 C 6,8 C 8,0 km/h (2 Bft) 100,00 %
08.11.2017 03:12 6,7 C 7,2 C 92 % 1013,9 hPa 0,0 l/m 2,4 km/h (1 Bft) O 90 0 min 0,000 mm 0,0 UV-I 0 W/m 5,5 C 6,7 C 3,2 km/h (1 Bft) 100,00 %
08.11.2017 03:14 6,7 C 7,2 C 92 % 1014,0 hPa 0,0 l/m 1,9 km/h (1 Bft) O 90 0 min 0,000 mm 0,0 UV-I 0 W/m 5,5 C 6,7 C 3,2 km/h (1 Bft) 100,00 %
08.11.2017 03:16 6,7 C 7,2 C 92 % 1014,0 hPa 0,0 l/m 2,3 km/h (1 Bft) S-SO 148 0 min 0,000 mm 0,0 UV-I 0 W/m 5,5 C 6,7 C 4,8 km/h (1 Bft) 100,00 %
08.11.2017 03:18 6,6 C 7,2 C 92 % 1014,1 hPa 0,0 l/m 3,4 km/h (1 Bft) S-SO 148 0 min 0,000 mm 0,0 UV-I 0 W/m 5,4 C 6,6 C 4,8 km/h (1 Bft) 100,00 %
08.11.2017 03:20 6,5 C 7,2 C 92 % 1014,1 hPa 0,0 l/m 1,7 km/h (1 Bft) S-SO 148 0 min 0,000 mm 0,0 UV-I 0 W/m 5,3 C 6,5 C 3,2 km/h (1 Bft) 100,00 %
08.11.2017 03:22 6,4 C 7,2 C 92 % 1014,1 hPa 0,0 l/m 1,6 km/h (1 Bft) S-SO 148 0 min 0,000 mm 0,0 UV-I 0 W/m 5,2 C 6,4 C 4,8 km/h (1 Bft) 97,87 %
08.11.2017 03:24 6,3 C 7,2 C 92 % 1014,0 hPa 0,0 l/m 0,8 km/h (0 Bft) S-SO 148 0 min 0,000 mm 0,0 UV-I 0 W/m 5,1 C 6,3 C 3,2 km/h (1 Bft) 100,00 %
08.11.2017 03:26 6,1 C 7,2 C 92 % 1014,0 hPa 0,0 l/m 2,6 km/h (1 Bft) S-SO 148 0 min 0,000 mm 0,0 UV-I 0 W/m 4,9 C 6,1 C 4,8 km/h (1 Bft) 100,00 %
08.11.2017 03:28 5,9 C 7,2 C 92 % 1014,2 hPa 0,0 l/m 2,2 km/h (1 Bft) S-SO 148 0 min 0,000 mm 0,0 UV-I 0 W/m 4,7 C 5,9 C 4,8 km/h (1 Bft) 100,00 %
08.11.2017 03:30 5,8 C 7,2 C 93 % 1014,2 hPa 0,0 l/m 2,5 km/h (1 Bft) S-SO 149 0 min 0,000 mm 0,0 UV-I 0 W/m 4,8 C 5,8 C 4,8 km/h (1 Bft) 97,87 %
08.11.2017 03:32 5,7 C 7,2 C 93 % 1014,2 hPa 0,0 l/m 3,7 km/h (1 Bft) S-SO 149 0 min 0,000 mm 0,0 UV-I 0 W/m 4,7 C 5,7 C 4,8 km/h (1 Bft) 100,00 %
08.11.2017 03:34 5,6 C 7,2 C 93 % 1014,2 hPa 0,0 l/m 4,7 km/h (1 Bft) S-SW 198 0 min 0,000 mm 0,0 UV-I 0 W/m 4,6 C 5,6 C 8,0 km/h (2 Bft) 100,00 %
08.11.2017 03:36 5,4 C 7,2 C 93 % 1014,1 hPa 0,0 l/m 4,0 km/h (1 Bft) S-SW 198 0 min 0,000 mm 0,0 UV-I 0 W/m 4,4 C 5,4 C 4,8 km/h (1 Bft) 98,08 %
08.11.2017 03:38 5,3 C 7,2 C 93 % 1014,2 hPa 0,0 l/m 3,6 km/h (1 Bft) S-SW 197 0 min 0,000 mm 0,0 UV-I 0 W/m 4,3 C 5,3 C 4,8 km/h (1 Bft) 97,44 %
08.11.2017 03:40 5,2 C 7,2 C 93 % 1014,2 hPa 0,0 l/m 2,8 km/h (1 Bft) S-SW 196 0 min 0,000 mm 0,0 UV-I 0 W/m 4,2 C 5,2 C 6,4 km/h (2 Bft) 97,87 %
08.11.2017 03:42 5,2 C 7,2 C 93 % 1014,2 hPa 0,0 l/m 3,5 km/h (1 Bft) S 180 0 min 0,000 mm 0,0 UV-I 0 W/m 4,2 C 5,2 C 6,4 km/h (2 Bft) 95,74 %
08.11.2017 03:44 5,1 C 7,2 C 93 % 1014,2 hPa 0,0 l/m 3,1 km/h (1 Bft) S 180 0 min 0,000 mm 0,0 UV-I 0 W/m 4,1 C 5,1 C 4,8 km/h (1 Bft) 97,87 %
08.11.2017 03:46 5,1 C 7,2 C 94 % 1014,1 hPa 0,0 l/m 2,3 km/h (1 Bft) S 180 0 min 0,000 mm 0,0 UV-I 0 W/m 4,2 C 5,1 C 4,8 km/h (1 Bft) 98,11 %
08.11.2017 03:48 5,0 C 7,2 C 94 % 1014,1 hPa 0,0 l/m 3,2 km/h (1 Bft) S 180 0 min 0,000 mm 0,0 UV-I 0 W/m 4,1 C 5,0 C 4,8 km/h (1 Bft) 97,87 %
08.11.2017 03:50 4,9 C 7,2 C 94 % 1014,2 hPa 0,0 l/m 3,1 km/h (1 Bft) S 180 0 min 0,000 mm 0,0 UV-I 0 W/m 4,0 C 4,9 C 6,4 km/h (2 Bft) 95,74 %
08.11.2017 03:52 4,9 C 7,2 C 94 % 1014,2 hPa 0,0 l/m 2,7 km/h (1 Bft) S 180 0 min 0,000 mm 0,0 UV-I 0 W/m 4,0 C 4,9 C 4,8 km/h (1 Bft) 97,37 %
08.11.2017 03:54 4,8 C 7,2 C 94 % 1014,1 hPa 0,0 l/m 5,5 km/h (1 Bft) S 180 0 min 0,000 mm 0,0 UV-I 0 W/m 3,9 C 4,8 C 8,0 km/h (2 Bft) 95,74 %
08.11.2017 03:56 4,8 C 7,2 C 94 % 1014,1 hPa 0,0 l/m 5,0 km/h (1 Bft) S-SW 213 0 min 0,000 mm 0,0 UV-I 0 W/m 3,9 C 4,8 C 6,4 km/h (2 Bft) 95,74 %
08.11.2017 03:58 4,9 C 7,2 C 94 % 1014,0 hPa 0,0 l/m 3,9 km/h (1 Bft) S-SW 213 0 min 0,000 mm 0,0 UV-I 0 W/m 4,0 C 4,9 C 6,4 km/h (2 Bft) 96,23 %
08.11.2017 04:00 4,9 C 7,2 C 95 % 1014,0 hPa 0,0 l/m 2,7 km/h (1 Bft) S-SW 213 0 min 0,000 mm 0,0 UV-I 0 W/m 4,2 C 4,9 C 6,4 km/h (2 Bft) 97,73 %
08.11.2017 04:02 4,9 C 7,2 C 95 % 1014,0 hPa 0,0 l/m 4,9 km/h (1 Bft) S-SW 213 0 min 0,000 mm 0,0 UV-I 0 W/m 4,2 C 4,9 C 6,4 km/h (2 Bft) 90,00 %
08.11.2017 04:04 4,9 C 7,2 C 94 % 1013,9 hPa 0,0 l/m 3,7 km/h (1 Bft) S-SW 213 0 min 0,000 mm 0,0 UV-I 0 W/m 4,0 C 4,9 C 4,8 km/h (1 Bft) 98,00 %
08.11.2017 04:06 4,8 C 7,2 C 94 % 1014,0 hPa 0,0 l/m 2,1 km/h (1 Bft) S-SW 213 0 min 0,000 mm 0,0 UV-I 0 W/m 3,9 C 4,8 C 4,8 km/h (1 Bft) 97,73 %
08.11.2017 04:08 4,7 C 7,2 C 94 % 1014,0 hPa 0,0 l/m 3,2 km/h (1 Bft) S-SW 213 0 min 0,000 mm 0,0 UV-I 0 W/m 3,8 C 4,7 C 6,4 km/h (2 Bft) 93,62 %
08.11.2017 04:10 4,7 C 7,2 C 94 % 1014,0 hPa 0,0 l/m 5,5 km/h (1 Bft) S-SW 213 0 min 0,000 mm 0,0 UV-I 0 W/m 3,8 C 4,7 C 8,0 km/h (2 Bft) 100,00 %
08.11.2017 04:12 4,7 C 7,2 C 95 % 1014,1 hPa 0,0 l/m 4,7 km/h (1 Bft) S-SW 213 0 min 0,000 mm 0,0 UV-I 0 W/m 4,0 C 4,7 C 6,4 km/h (2 Bft) 100,00 %
08.11.2017 04:14 4,7 C 7,2 C 95 % 1014,1 hPa 0,0 l/m 1,7 km/h (1 Bft) S-SW 213 0 min 0,000 mm 0,0 UV-I 0 W/m 4,0 C 4,7 C 4,8 km/h (1 Bft) 100,00 %
08.11.2017 04:16 4,7 C 7,2 C 95 % 1014,1 hPa 0,0 l/m 1,5 km/h (1 Bft) S-SW 213 0 min 0,000 mm 0,0 UV-I 0 W/m 4,0 C 4,7 C 3,2 km/h (1 Bft) 96,67 %
08.11.2017 04:18 4,7 C 7,2 C 95 % 1014,0 hPa 0,0 l/m 3,6 km/h (1 Bft) S-SW 213 0 min 0,000 mm 0,0 UV-I 0 W/m 4,0 C 4,7 C 6,4 km/h (2 Bft) 98,15 %
08.11.2017 04:20 4,7 C 7,2 C 95 % 1014,1 hPa 0,0 l/m 6,6 km/h (2 Bft) S-SW 195 0 min 0,000 mm 0,0 UV-I 0 W/m 4,0 C 4,5 C 9,7 km/h (2 Bft) 100,00 %
08.11.2017 04:22 4,8 C 7,2 C 95 % 1014,0 hPa 0,0 l/m 5,7 km/h (1 Bft) S 184 0 min 0,000 mm 0,0 UV-I 0 W/m 4,1 C 4,8 C 8,0 km/h (2 Bft) 96,00 %
08.11.2017 04:24 4,7 C 7,2 C 95 % 1014,0 hPa 0,0 l/m 4,2 km/h (1 Bft) S 185 0 min 0,000 mm 0,0 UV-I 0 W/m 4,0 C 4,7 C 8,0 km/h (2 Bft) 100,00 %
08.11.2017 04:26 4,7 C 7,2 C 95 % 1014,0 hPa 0,0 l/m 3,6 km/h (1 Bft) S 185 0 min 0,000 mm 0,0 UV-I 0 W/m 4,0 C 4,7 C 6,4 km/h (2 Bft) 100,00 %
08.11.2017 04:28 4,7 C 7,2 C 95 % 1014,2 hPa 0,0 l/m 1,7 km/h (1 Bft) S 185 0 min 0,000 mm 0,0 UV-I 0 W/m 4,0 C 4,7 C 4,8 km/h (1 Bft) 98,00 %
08.11.2017 04:30 4,7 C 7,2 C 95 % 1014,3 hPa 0,0 l/m 2,9 km/h (1 Bft) S-SW 197 0 min 0,000 mm 0,0 UV-I 0 W/m 4,0 C 4,7 C 8,0 km/h (2 Bft) 100,00 %
08.11.2017 04:32 4,7 C 7,2 C 95 % 1014,2 hPa 0,0 l/m 4,9 km/h (1 Bft) S-SW 197 0 min 0,000 mm 0,0 UV-I 0 W/m 4,0 C 4,7 C 9,7 km/h (2 Bft) 100,00 %
08.11.2017 04:34 4,7 C 7,2 C 95 % 1014,1 hPa 0,0 l/m 4,3 km/h (1 Bft) S-SW 197 0 min 0,000 mm 0,0 UV-I 0 W/m 4,0 C 4,7 C 6,4 km/h (2 Bft) 100,00 %
08.11.2017 04:36 4,7 C 7,2 C 95 % 1014,1 hPa 0,0 l/m 5,5 km/h (1 Bft) S-SW 198 0 min 0,000 mm 0,0 UV-I 0 W/m 4,0 C 4,7 C 9,7 km/h (2 Bft) 100,00 %
08.11.2017 04:38 4,6 C 7,2 C 95 % 1014,2 hPa 0,0 l/m 6,3 km/h (2 Bft) S-SW 200 0 min 0,000 mm 0,0 UV-I 0 W/m 3,9 C 4,6 C 8,0 km/h (2 Bft) 98,11 %
08.11.2017 04:40 4,7 C 7,2 C 95 % 1014,2 hPa 0,0 l/m 5,3 km/h (1 Bft) S-SW 202 0 min 0,000 mm 0,0 UV-I 0 W/m 4,0 C 4,7 C 6,4 km/h (2 Bft) 100,00 %
08.11.2017 04:42 4,7 C 7,2 C 95 % 1014,2 hPa 0,0 l/m 4,2 km/h (1 Bft) S-SW 202 0 min 0,000 mm 0,0 UV-I 0 W/m 4,0 C 4,7 C 6,4 km/h (2 Bft) 100,00 %
08.11.2017 04:44 4,6 C 7,2 C 95 % 1014,2 hPa 0,0 l/m 5,1 km/h (1 Bft) S-SW 202 0 min 0,000 mm 0,0 UV-I 0 W/m 3,9 C 4,6 C 6,4 km/h (2 Bft) 100,00 %
08.11.2017 04:46 4,6 C 7,2 C 95 % 1014,2 hPa 0,0 l/m 4,6 km/h (1 Bft) S-SW 202 0 min 0,000 mm 0,0 UV-I 0 W/m 3,9 C 4,6 C 6,4 km/h (2 Bft) 97,37 %
08.11.2017 04:48 4,6 C 7,2 C 95 % 1014,2 hPa 0,0 l/m 4,7 km/h (1 Bft) S-SW 202 0 min 0,000 mm 0,0 UV-I 0 W/m 3,9 C 4,6 C 8,0 km/h (2 Bft) 98,11 %
08.11.2017 04:50 4,6 C 7,2 C 95 % 1014,2 hPa 0,0 l/m 5,7 km/h (1 Bft) S-SW 202 0 min 0,000 mm 0,0 UV-I 0 W/m 3,9 C 4,6 C 8,0 km/h (2 Bft) 100,00 %
08.11.2017 04:52 4,6 C 7,2 C 95 % 1014,2 hPa 0,0 l/m 6,4 km/h (2 Bft) S-SW 203 0 min 0,000 mm 0,0 UV-I 0 W/m 3,9 C 4,6 C 9,7 km/h (2 Bft) 100,00 %
08.11.2017 04:54 4,6 C 7,2 C 95 % 1014,3 hPa 0,0 l/m 3,5 km/h (1 Bft) S-SW 203 0 min 0,000 mm 0,0 UV-I 0 W/m 3,9 C 4,6 C 6,4 km/h (2 Bft) 100,00 %
08.11.2017 04:56 4,6 C 7,2 C 95 % 1014,4 hPa 0,0 l/m 1,7 km/h (1 Bft) S-SW 203 0 min 0,000 mm 0,0 UV-I 0 W/m 3,9 C 4,6 C 4,8 km/h (1 Bft) 98,00 %
08.11.2017 04:58 4,7 C 7,2 C 95 % 1014,5 hPa 0,0 l/m 2,1 km/h (1 Bft) S-SW 203 0 min 0,000 mm 0,0 UV-I 0 W/m 4,0 C 4,7 C 4,8 km/h (1 Bft) 100,00 %
08.11.2017 05:00 4,7 C 7,2 C 95 % 1014,5 hPa 0,0 l/m 3,8 km/h (1 Bft) S-SW 203 0 min 0,000 mm 0,0 UV-I 0 W/m 4,0 C 4,7 C 6,4 km/h (2 Bft) 98,00 %
08.11.2017 05:02 4,7 C 7,2 C 95 % 1014,5 hPa 0,0 l/m 5,7 km/h (1 Bft) S-SW 203 0 min 0,000 mm 0,0 UV-I 0 W/m 4,0 C 4,7 C 9,7 km/h (2 Bft) 100,00 %
08.11.2017 05:04 4,7 C 7,2 C 95 % 1014,4 hPa 0,0 l/m 3,9 km/h (1 Bft) S-SW 203 0 min 0,000 mm 0,0 UV-I 0 W/m 4,0 C 4,7 C 6,4 km/h (2 Bft) 100,00 %
08.11.2017 05:06 4,7 C 7,2 C 95 % 1014,5 hPa 0,0 l/m 3,4 km/h (1 Bft) S-SW 203 0 min 0,000 mm 0,0 UV-I 0 W/m 4,0 C 4,7 C 6,4 km/h (2 Bft) 100,00 %
08.11.2017 05:08 4,8 C 7,2 C 95 % 1014,5 hPa 0,0 l/m 4,6 km/h (1 Bft) S-SW 203 0 min 0,000 mm 0,0 UV-I 0 W/m 4,1 C 4,8 C 6,4 km/h (2 Bft) 100,00 %
08.11.2017 05:10 4,8 C 7,2 C 95 % 1014,6 hPa 0,0 l/m 5,4 km/h (1 Bft) S-SW 203 0 min 0,000 mm 0,0 UV-I 0 W/m 4,1 C 4,8 C 8,0 km/h (2 Bft) 100,00 %
08.11.2017 05:12 4,8 C 7,2 C 95 % 1014,6 hPa 0,0 l/m 2,8 km/h (1 Bft) S-SW 203 0 min 0,000 mm 0,0 UV-I 0 W/m 4,1 C 4,8 C 4,8 km/h (1 Bft) 100,00 %
08.11.2017 05:14 4,8 C 7,2 C 95 % 1014,6 hPa 0,0 l/m 2,0 km/h (1 Bft) S-SW 203 0 min 0,000 mm 0,0 UV-I 0 W/m 4,1 C 4,8 C 4,8 km/h (1 Bft) 97,14 %
08.11.2017 05:16 4,8 C 7,2 C 95 % 1014,6 hPa 0,0 l/m 4,4 km/h (1 Bft) S-SW 203 0 min 0,000 mm 0,0 UV-I 0 W/m 4,1 C 4,8 C 6,4 km/h (2 Bft) 98,11 %
08.11.2017 05:18 4,8 C 7,2 C 95 % 1014,5 hPa 0,0 l/m 7,7 km/h (2 Bft) S-SW 206 0 min 0,000 mm 0,0 UV-I 0 W/m 4,1 C 3,6 C 9,7 km/h (2 Bft) 100,00 %
08.11.2017 05:20 4,8 C 7,2 C 95 % 1014,6 hPa 0,0 l/m 6,6 km/h (2 Bft) S-SW 203 0 min 0,000 mm 0,0 UV-I 0 W/m 4,1 C 4,6 C 8,0 km/h (2 Bft) 100,00 %
08.11.2017 05:22 4,8 C 7,2 C 95 % 1014,6 hPa 0,0 l/m 4,1 km/h (1 Bft) S 190 0 min 0,000 mm 0,0 UV-I 0 W/m 4,1 C 4,8 C 6,4 km/h (2 Bft) 98,00 %
08.11.2017 05:24 4,8 C 7,2 C 95 % 1014,6 hPa 0,0 l/m 4,0 km/h (1 Bft) S 190 0 min 0,000 mm 0,0 UV-I 0 W/m 4,1 C 4,8 C 6,4 km/h (2 Bft) 100,00 %
08.11.2017 05:26 4,9 C 7,2 C 95 % 1014,7 hPa 0,0 l/m 4,4 km/h (1 Bft) S 190 0 min 0,000 mm 0,0 UV-I 0 W/m 4,2 C 4,9 C 6,4 km/h (2 Bft) 96,00 %
08.11.2017 05:28 4,9 C 7,2 C 95 % 1014,6 hPa 0,0 l/m 5,3 km/h (1 Bft) S 190 0 min 0,000 mm 0,0 UV-I 0 W/m 4,2 C 4,9 C 9,7 km/h (2 Bft) 97,44 %
08.11.2017 05:30 4,9 C 7,2 C 95 % 1014,7 hPa 0,0 l/m 7,9 km/h (2 Bft) SW 214 0 min 0,000 mm 0,0 UV-I 0 W/m 4,2 C 3,6 C 11,3 km/h (2 Bft) 98,08 %
08.11.2017 05:32 4,9 C 7,2 C 95 % 1014,7 hPa 0,0 l/m 6,3 km/h (2 Bft) S-SW 213 0 min 0,000 mm 0,0 UV-I 0 W/m 4,2 C 4,9 C 9,7 km/h (2 Bft) 93,75 %
08.11.2017 05:34 4,9 C 7,2 C 95 % 1014,7 hPa 0,0 l/m 5,1 km/h (1 Bft) SW 217 0 min 0,000 mm 0,0 UV-I 0 W/m 4,2 C 4,9 C 8,0 km/h (2 Bft) 98,00 %
08.11.2017 05:36 4,9 C 7,2 C 95 % 1014,8 hPa 0,0 l/m 3,1 km/h (1 Bft) SW 217 0 min 0,000 mm 0,0 UV-I 0 W/m 4,2 C 4,9 C 4,8 km/h (1 Bft) 94,74 %
08.11.2017 05:38 4,9 C 7,2 C 95 % 1014,7 hPa 0,0 l/m 5,5 km/h (1 Bft) S-SW 205 0 min 0,000 mm 0,0 UV-I 0 W/m 4,2 C 4,9 C 9,7 km/h (2 Bft) 96,00 %
08.11.2017 05:40 4,9 C 7,2 C 95 % 1014,7 hPa 0,0 l/m 6,5 km/h (2 Bft) S-SW 207 0 min 0,000 mm 0,0 UV-I 0 W/m 4,2 C 4,8 C 9,7 km/h (2 Bft) 95,74 %
08.11.2017 05:42 4,9 C 7,2 C 95 % 1014,8 hPa 0,0 l/m 4,7 km/h (1 Bft) S-SW 207 0 min 0,000 mm 0,0 UV-I 0 W/m 4,2 C 4,9 C 8,0 km/h (2 Bft) 94,00 %
08.11.2017 05:44 4,9 C 7,2 C 95 % 1014,8 hPa 0,0 l/m 3,3 km/h (1 Bft) S-SW 207 0 min 0,000 mm 0,0 UV-I 0 W/m 4,2 C 4,9 C 6,4 km/h (2 Bft) 97,37 %
08.11.2017 05:46 4,9 C 7,2 C 95 % 1014,7 hPa 0,0 l/m 3,8 km/h (1 Bft) S-SW 207 0 min 0,000 mm 0,0 UV-I 0 W/m 4,2 C 4,9 C 6,4 km/h (2 Bft) 93,55 %
08.11.2017 05:48 4,9 C 7,2 C 95 % 1014,7 hPa 0,0 l/m 2,5 km/h (1 Bft) S-SW 207 0 min 0,000 mm 0,0 UV-I 0 W/m 4,2 C 4,9 C 4,8 km/h (1 Bft) 94,74 %
08.11.2017 05:50 4,9 C 7,2 C 95 % 1014,7 hPa 0,0 l/m 3,2 km/h (1 Bft) S-SW 207 0 min 0,000 mm 0,0 UV-I 0 W/m 4,2 C 4,9 C 6,4 km/h (2 Bft) 94,34 %
08.11.2017 05:52 4,9 C 7,2 C 95 % 1014,7 hPa 0,0 l/m 4,5 km/h (1 Bft) S-SW 207 0 min 0,000 mm 0,0 UV-I 0 W/m 4,2 C 4,9 C 6,4 km/h (2 Bft) 94,74 %
08.11.2017 05:54 4,9 C 7,2 C 95 % 1014,6 hPa 0,0 l/m 5,6 km/h (1 Bft) S-SW 207 0 min 0,000 mm 0,0 UV-I 0 W/m 4,2 C 4,9 C 8,0 km/h (2 Bft) 96,08 %
08.11.2017 05:56 4,9 C 7,2 C 95 % 1014,6 hPa 0,0 l/m 6,2 km/h (2 Bft) S-SW 207 0 min 0,000 mm 0,0 UV-I 0 W/m 4,2 C 4,9 C 9,7 km/h (2 Bft) 96,00 %
08.11.2017 05:58 4,8 C 7,2 C 95 % 1014,7 hPa 0,0 l/m 7,4 km/h (2 Bft) SW 217 0 min 0,000 mm 0,0 UV-I 0 W/m 4,1 C 3,9 C 9,7 km/h (2 Bft) 94,00 %
08.11.2017 06:00 4,8 C 7,2 C 95 % 1014,7 hPa 0,0 l/m 4,3 km/h (1 Bft) S-SW 213 0 min 0,000 mm 0,0 UV-I 0 W/m 4,1 C 4,8 C 8,0 km/h (2 Bft) 95,74 %
08.11.2017 06:02 4,8 C 7,2 C 95 % 1014,7 hPa 0,0 l/m 4,0 km/h (1 Bft) S-SW 212 0 min 0,000 mm 0,0 UV-I 0 W/m 4,1 C 4,8 C 6,4 km/h (2 Bft) 92,11 %
08.11.2017 06:04 4,8 C 7,2 C 95 % 1014,6 hPa 0,0 l/m 5,2 km/h (1 Bft) S-SW 194 0 min 0,000 mm 0,0 UV-I 0 W/m 4,1 C 4,8 C 9,7 km/h (2 Bft) 95,74 %
08.11.2017 06:06 4,8 C 7,2 C 95 % 1014,6 hPa 0,0 l/m 6,8 km/h (2 Bft) SW 219 0 min 0,000 mm 0,0 UV-I 0 W/m 4,1 C 4,5 C 9,7 km/h (2 Bft) 96,00 %
08.11.2017 06:08 4,8 C 7,2 C 95 % 1014,6 hPa 0,0 l/m 6,7 km/h (2 Bft) SW 223 0 min 0,000 mm 0,0 UV-I 0 W/m 4,1 C 4,6 C 9,7 km/h (2 Bft) 93,62 %
08.11.2017 06:10 4,9 C 7,2 C 95 % 1014,6 hPa 0,0 l/m 6,1 km/h (2 Bft) S-SW 207 0 min 0,000 mm 0,0 UV-I 0 W/m 4,2 C 4,9 C 8,0 km/h (2 Bft) 92,00 %
08.11.2017 06:12 4,9 C 7,2 C 95 % 1014,6 hPa 0,0 l/m 6,6 km/h (2 Bft) S-SW 213 0 min 0,000 mm 0,0 UV-I 0 W/m 4,2 C 4,7 C 8,0 km/h (2 Bft) 98,00 %
08.11.2017 06:14 4,9 C 7,2 C 95 % 1014,6 hPa 0,0 l/m 6,4 km/h (2 Bft) S-SW 204 0 min 0,000 mm 0,0 UV-I 0 W/m 4,2 C 4,9 C 9,7 km/h (2 Bft) 94,87 %
08.11.2017 06:16 4,9 C 7,2 C 95 % 1014,6 hPa 0,0 l/m 5,6 km/h (1 Bft) S-SW 213 0 min 0,000 mm 0,0 UV-I 0 W/m 4,2 C 4,9 C 8,0 km/h (2 Bft) 97,56 %
08.11.2017 06:18 4,9 C 7,2 C 95 % 1014,7 hPa 0,0 l/m 5,0 km/h (1 Bft) S 184 0 min 0,000 mm 0,0 UV-I 0 W/m 4,2 C 4,9 C 8,0 km/h (2 Bft) 96,00 %
08.11.2017 06:20 4,9 C 7,2 C 95 % 1014,7 hPa 0,0 l/m 5,2 km/h (1 Bft) S 190 0 min 0,000 mm 0,0 UV-I 0 W/m 4,2 C 4,9 C 6,4 km/h (2 Bft) 96,00 %
08.11.2017 06:22 5,0 C 7,2 C 95 % 1014,8 hPa 0,0 l/m 5,8 km/h (2 Bft) S 184 0 min 0,000 mm 0,0 UV-I 0 W/m 4,3 C 5,0 C 8,0 km/h (2 Bft) 96,23 %
08.11.2017 06:24 4,9 C 7,2 C 95 % 1014,8 hPa 0,0 l/m 5,3 km/h (1 Bft) S-SW 204 0 min 0,000 mm 0,0 UV-I 0 W/m 4,2 C 4,9 C 8,0 km/h (2 Bft) 97,37 %
08.11.2017 06:26 4,9 C 7,2 C 95 % 1014,8 hPa 0,0 l/m 5,5 km/h (1 Bft) S-SW 200 0 min 0,000 mm 0,0 UV-I 0 W/m 4,2 C 4,9 C 9,7 km/h (2 Bft) 98,21 %
08.11.2017 06:28 5,0 C 7,2 C 95 % 1014,8 hPa 0,0 l/m 6,3 km/h (2 Bft) S-SW 201 0 min 0,000 mm 0,0 UV-I 0 W/m 4,3 C 5,0 C 9,7 km/h (2 Bft) 95,65 %
08.11.2017 06:30 4,9 C 7,2 C 95 % 1014,8 hPa 0,0 l/m 4,9 km/h (1 Bft) SW 215 0 min 0,000 mm 0,0 UV-I 0 W/m 4,2 C 4,9 C 9,7 km/h (2 Bft) 98,53 %
08.11.2017 06:32 5,0 C 7,2 C 95 % 1014,8 hPa 0,0 l/m 6,6 km/h (2 Bft) S 189 0 min 0,000 mm 0,0 UV-I 0 W/m 4,3 C 4,8 C 11,3 km/h (2 Bft) 100,00 %
08.11.2017 06:34 5,0 C 7,2 C 95 % 1014,8 hPa 0,0 l/m 6,0 km/h (2 Bft) SW 217 0 min 0,000 mm 0,0 UV-I 0 W/m 4,3 C 5,0 C 11,3 km/h (2 Bft) 100,00 %
08.11.2017 06:36 5,1 C 7,2 C 95 % 1014,8 hPa 0,0 l/m 6,5 km/h (2 Bft) S 190 0 min 0,000 mm 0,0 UV-I 0 W/m 4,4 C 5,0 C 9,7 km/h (2 Bft) 100,00 %
08.11.2017 06:38 5,1 C 7,2 C 95 % 1014,8 hPa 0,0 l/m 5,4 km/h (1 Bft) S-SW 213 0 min 0,000 mm 0,0 UV-I 0 W/m 4,4 C 5,1 C 9,7 km/h (2 Bft) 100,00 %
08.11.2017 06:40 5,1 C 7,2 C 95 % 1014,9 hPa 0,0 l/m 5,7 km/h (1 Bft) S-SO 167 0 min 0,000 mm 0,0 UV-I 0 W/m 4,4 C 5,1 C 11,3 km/h (2 Bft) 98,00 %
08.11.2017 06:42 5,1 C 7,2 C 94 % 1014,8 hPa 0,0 l/m 4,8 km/h (1 Bft) S 188 0 min 0,000 mm 0,0 UV-I 0 W/m 4,2 C 5,1 C 6,4 km/h (2 Bft) 97,56 %
08.11.2017 06:44 5,1 C 7,2 C 94 % 1014,8 hPa 0,0 l/m 7,2 km/h (2 Bft) S-SW 201 0 min 0,000 mm 0,0 UV-I 0 W/m 4,2 C 4,4 C 11,3 km/h (2 Bft) 100,00 %
08.11.2017 06:46 5,1 C 7,2 C 95 % 1014,8 hPa 0,0 l/m 7,1 km/h (2 Bft) S-SW 207 0 min 0,000 mm 0,0 UV-I 0 W/m 4,4 C 4,5 C 12,9 km/h (3 Bft) 100,00 %
08.11.2017 06:48 5,1 C 7,2 C 95 % 1014,8 hPa 0,0 l/m 7,3 km/h (2 Bft) SW 220 0 min 0,000 mm 0,0 UV-I 0 W/m 4,4 C 4,3 C 12,9 km/h (3 Bft) 98,18 %
08.11.2017 06:50 5,2 C 7,2 C 95 % 1014,8 hPa 0,0 l/m 5,6 km/h (1 Bft) SW 216 0 min 0,000 mm 0,0 UV-I 0 W/m 4,5 C 5,2 C 9,7 km/h (2 Bft) 100,00 %
08.11.2017 06:52 5,2 C 7,2 C 94 % 1014,9 hPa 0,0 l/m 5,4 km/h (1 Bft) S-SW 202 0 min 0,000 mm 0,0 UV-I 0 W/m 4,3 C 5,2 C 8,0 km/h (2 Bft) 100,00 %
08.11.2017 06:54 5,2 C 7,2 C 94 % 1014,9 hPa 0,0 l/m 7,2 km/h (2 Bft) S-SW 209 0 min 0,000 mm 0,0 UV-I 0 W/m 4,3 C 4,5 C 9,7 km/h (2 Bft) 100,00 %
08.11.2017 06:56 5,2 C 7,2 C 94 % 1014,9 hPa 0,0 l/m 6,2 km/h (2 Bft) S-SW 205 0 min 0,000 mm 0,0 UV-I 0 W/m 4,3 C 5,2 C 8,0 km/h (2 Bft) 100,00 %
08.11.2017 06:58 5,2 C 7,2 C 94 % 1014,9 hPa 0,0 l/m 4,7 km/h (1 Bft) S-SW 205 0 min 0,000 mm 0,0 UV-I 5 W/m 4,3 C 5,2 C 6,4 km/h (2 Bft) 96,15 %
08.11.2017 07:00 5,2 C 7,2 C 94 % 1014,9 hPa 0,0 l/m 4,8 km/h (1 Bft) S-SW 205 0 min 0,000 mm 0,0 UV-I 5 W/m 4,3 C 5,2 C 8,0 km/h (2 Bft) 100,00 %
08.11.2017 07:02 5,3 C 7,2 C 94 % 1014,9 hPa 0,0 l/m 5,9 km/h (2 Bft) W-SW 244 0 min 0,000 mm 0,0 UV-I 5 W/m 4,4 C 5,3 C 9,7 km/h (2 Bft) 100,00 %
08.11.2017 07:04 5,3 C 7,2 C 94 % 1014,9 hPa 0,0 l/m 4,3 km/h (1 Bft) W-SW 244 0 min 0,000 mm 0,0 UV-I 5 W/m 4,4 C 5,3 C 6,4 km/h (2 Bft) 97,87 %
08.11.2017 07:06 5,3 C 7,2 C 94 % 1014,9 hPa 0,0 l/m 4,0 km/h (1 Bft) W-SW 244 0 min 0,000 mm 0,0 UV-I 5 W/m 4,4 C 5,3 C 6,4 km/h (2 Bft) 100,00 %
08.11.2017 07:08 5,3 C 7,2 C 94 % 1015,0 hPa 0,0 l/m 2,0 km/h (1 Bft) W-SW 244 0 min 0,000 mm 0,0 UV-I 5 W/m 4,4 C 5,3 C 3,2 km/h (1 Bft) 97,87 %
08.11.2017 07:10 5,3 C 7,2 C 94 % 1015,1 hPa 0,0 l/m 3,3 km/h (1 Bft) W-SW 244 0 min 0,000 mm 0,0 UV-I 5 W/m 4,4 C 5,3 C 6,4 km/h (2 Bft) 100,00 %
08.11.2017 07:12 5,3 C 7,2 C 93 % 1015,1 hPa 0,0 l/m 3,0 km/h (1 Bft) S 178 0 min 0,000 mm 0,0 UV-I 6 W/m 4,3 C 5,3 C 6,4 km/h (2 Bft) 98,00 %
08.11.2017 07:14 5,4 C 7,2 C 93 % 1015,1 hPa 0,0 l/m 3,9 km/h (1 Bft) SW 220 0 min 0,000 mm 0,0 UV-I 7 W/m 4,4 C 5,4 C 6,4 km/h (2 Bft) 97,87 %
08.11.2017 07:16 5,4 C 7,2 C 93 % 1015,1 hPa 0,0 l/m 4,3 km/h (1 Bft) SW 217 0 min 0,000 mm 0,0 UV-I 7 W/m 4,4 C 5,4 C 8,0 km/h (2 Bft) 100,00 %
08.11.2017 07:18 5,3 C 7,2 C 93 % 1015,1 hPa 0,0 l/m 3,8 km/h (1 Bft) SW 216 0 min 0,000 mm 0,0 UV-I 9 W/m 4,3 C 5,3 C 6,4 km/h (2 Bft) 100,00 %
08.11.2017 07:20 5,4 C 7,2 C 93 % 1015,1 hPa 0,0 l/m 4,7 km/h (1 Bft) SW 225 0 min 0,000 mm 0,0 UV-I 9 W/m 4,4 C 5,4 C 8,0 km/h (2 Bft) 100,00 %
08.11.2017 07:22 5,4 C 7,2 C 93 % 1015,1 hPa 0,0 l/m 6,0 km/h (2 Bft) W-SW 251 0 min 0,000 mm 0,0 UV-I 11 W/m 4,4 C 5,4 C 8,0 km/h (2 Bft) 100,00 %
08.11.2017 07:24 5,4 C 7,2 C 93 % 1015,1 hPa 0,0 l/m 5,7 km/h (1 Bft) W-SW 240 0 min 0,000 mm 0,0 UV-I 11 W/m 4,4 C 5,4 C 8,0 km/h (2 Bft) 100,00 %
08.11.2017 07:26 5,4 C 7,2 C 93 % 1015,1 hPa 0,0 l/m 5,2 km/h (1 Bft) SW 227 0 min 0,000 mm 0,0 UV-I 13 W/m 4,4 C 5,4 C 8,0 km/h (2 Bft) 98,00 %
08.11.2017 07:28 5,4 C 7,2 C 93 % 1015,0 hPa 0,0 l/m 6,9 km/h (2 Bft) SW 230 0 min 0,000 mm 0,0 UV-I 16 W/m 4,4 C 5,0 C 9,7 km/h (2 Bft) 96,23 %
08.11.2017 07:30 5,4 C 7,2 C 93 % 1015,0 hPa 0,0 l/m 5,5 km/h (1 Bft) W-SW 252 0 min 0,000 mm 0,0 UV-I 19 W/m 4,4 C 5,4 C 8,0 km/h (2 Bft) 100,00 %
08.11.2017 07:32 5,4 C 7,2 C 93 % 1015,0 hPa 0,0 l/m 5,0 km/h (1 Bft) W-SW 252 0 min 0,000 mm 0,0 UV-I 19 W/m 4,4 C 5,4 C 8,0 km/h (2 Bft) 100,00 %
08.11.2017 07:34 5,4 C 7,2 C 93 % 1015,0 hPa 0,0 l/m 5,0 km/h (1 Bft) W-SW 252 0 min 0,000 mm 0,0 UV-I 18 W/m 4,4 C 5,4 C 6,4 km/h (2 Bft) 100,00 %
08.11.2017 07:36 5,4 C 7,2 C 93 % 1015,0 hPa 0,0 l/m 4,7 km/h (1 Bft) W-SW 252 0 min 0,000 mm 0,0 UV-I 18 W/m 4,4 C 5,4 C 6,4 km/h (2 Bft) 100,00 %
08.11.2017 07:38 5,5 C 7,2 C 93 % 1015,1 hPa 0,0 l/m 5,5 km/h (1 Bft) W-SW 248 0 min 0,000 mm 0,0 UV-I 19 W/m 4,5 C 5,5 C 8,0 km/h (2 Bft) 100,00 %
08.11.2017 07:40 5,5 C 7,2 C 93 % 1015,1 hPa 0,0 l/m 6,0 km/h (2 Bft) SW 234 0 min 0,000 mm 0,0 UV-I 19 W/m 4,5 C 5,5 C 9,7 km/h (2 Bft) 100,00 %
08.11.2017 07:42 5,5 C 7,2 C 92 % 1015,2 hPa 0,0 l/m 5,9 km/h (2 Bft) SW 221 0 min 0,000 mm 0,0 UV-I 16 W/m 4,3 C 5,5 C 11,3 km/h (2 Bft) 94,12 %
08.11.2017 07:44 5,5 C 7,2 C 92 % 1015,2 hPa 0,0 l/m 3,9 km/h (1 Bft) SW 218 0 min 0,000 mm 0,0 UV-I 16 W/m 4,3 C 5,5 C 8,0 km/h (2 Bft) 95,74 %
08.11.2017 07:46 5,6 C 7,2 C 92 % 1015,1 hPa 0,0 l/m 6,9 km/h (2 Bft) SW 231 0 min 0,000 mm 0,0 UV-I 16 W/m 4,4 C 5,2 C 9,7 km/h (2 Bft) 97,73 %
08.11.2017 07:48 5,6 C 7,2 C 92 % 1015,2 hPa 0,0 l/m 6,3 km/h (2 Bft) SW 227 0 min 0,000 mm 0,0 UV-I 16 W/m 4,4 C 5,6 C 9,7 km/h (2 Bft) 97,56 %
08.11.2017 07:50 5,6 C 7,2 C 92 % 1015,1 hPa 0,0 l/m 7,1 km/h (2 Bft) W-SW 245 0 min 0,000 mm 0,0 UV-I 16 W/m 4,4 C 5,0 C 11,3 km/h (2 Bft) 96,00 %
08.11.2017 07:52 5,6 C 7,2 C 92 % 1015,2 hPa 0,0 l/m 4,3 km/h (1 Bft) W-SW 241 0 min 0,000 mm 0,0 UV-I 16 W/m 4,4 C 5,6 C 6,4 km/h (2 Bft) 98,00 %
08.11.2017 07:54 5,6 C 7,2 C 92 % 1015,3 hPa 0,0 l/m 4,8 km/h (1 Bft) SW 217 0 min 0,000 mm 0,0 UV-I 16 W/m 4,4 C 5,6 C 6,4 km/h (2 Bft) 97,56 %
08.11.2017 07:56 5,6 C 7,2 C 92 % 1015,4 hPa 0,0 l/m 4,7 km/h (1 Bft) S-SW 203 0 min 0,000 mm 0,0 UV-I 18 W/m 4,4 C 5,6 C 8,0 km/h (2 Bft) 98,21 %
08.11.2017 07:58 5,6 C 7,2 C 92 % 1015,4 hPa 0,0 l/m 4,6 km/h (1 Bft) S-SW 203 0 min 0,000 mm 0,0 UV-I 19 W/m 4,4 C 5,6 C 6,4 km/h (2 Bft) 97,14 %
08.11.2017 08:00 5,6 C 7,2 C 92 % 1015,5 hPa 0,0 l/m 4,4 km/h (1 Bft) S-SW 203 0 min 0,000 mm 0,0 UV-I 21 W/m 4,4 C 5,6 C 6,4 km/h (2 Bft) 96,61 %
08.11.2017 08:02 5,6 C 7,2 C 92 % 1015,5 hPa 0,0 l/m 6,9 km/h (2 Bft) S-SW 209 0 min 0,000 mm 0,0 UV-I 21 W/m 4,4 C 5,2 C 8,0 km/h (2 Bft) 97,56 %
08.11.2017 08:04 5,6 C 7,2 C 92 % 1015,5 hPa 0,0 l/m 6,7 km/h (2 Bft) S-SW 209 0 min 0,000 mm 0,0 UV-I 23 W/m 4,4 C 5,4 C 9,7 km/h (2 Bft) 96,00 %
08.11.2017 08:06 5,6 C 7,2 C 92 % 1015,5 hPa 0,0 l/m 4,1 km/h (1 Bft) S-SW 209 0 min 0,000 mm 0,0 UV-I 23 W/m 4,4 C 5,6 C 6,4 km/h (2 Bft) 92,68 %
08.11.2017 08:08 5,6 C 7,2 C 93 % 1015,6 hPa 0,0 l/m 5,2 km/h (1 Bft) S-SW 209 0 min 0,000 mm 0,0 UV-I 21 W/m 4,6 C 5,6 C 8,0 km/h (2 Bft) 97,78 %
08.11.2017 08:10 5,6 C 7,2 C 93 % 1015,6 hPa 0,0 l/m 5,2 km/h (1 Bft) S-SW 205 0 min 0,000 mm 0,0 UV-I 20 W/m 4,6 C 5,6 C 8,0 km/h (2 Bft) 98,00 %
08.11.2017 08:12 5,6 C 7,2 C 93 % 1015,6 hPa 0,0 l/m 5,9 km/h (2 Bft) S-SW 192 0 min 0,000 mm 0,0 UV-I 19 W/m 4,6 C 5,6 C 9,7 km/h (2 Bft) 98,00 %
08.11.2017 08:14 5,6 C 7,2 C 93 % 1015,6 hPa 0,0 l/m 5,0 km/h (1 Bft) S-SW 202 0 min 0,000 mm 0,0 UV-I 19 W/m 4,6 C 5,6 C 8,0 km/h (2 Bft) 97,37 %
08.11.2017 08:16 5,6 C 7,2 C 93 % 1015,7 hPa 0,0 l/m 7,8 km/h (2 Bft) S-SW 208 0 min 0,000 mm 0,0 UV-I 19 W/m 4,6 C 4,4 C 12,9 km/h (3 Bft) 100,00 %
08.11.2017 08:18 5,6 C 7,2 C 93 % 1015,7 hPa 0,0 l/m 6,3 km/h (2 Bft) S-SW 199 0 min 0,000 mm 0,0 UV-I 19 W/m 4,6 C 5,6 C 9,7 km/h (2 Bft) 98,00 %
08.11.2017 08:20 5,6 C 7,2 C 93 % 1015,7 hPa 0,0 l/m 4,0 km/h (1 Bft) S-SW 201 0 min 0,000 mm 0,0 UV-I 19 W/m 4,6 C 5,6 C 8,0 km/h (2 Bft) 97,87 %
08.11.2017 08:22 5,6 C 7,2 C 93 % 1015,7 hPa 0,0 l/m 3,5 km/h (1 Bft) S-SW 201 0 min 0,000 mm 0,0 UV-I 21 W/m 4,6 C 5,6 C 4,8 km/h (1 Bft) 100,00 %
08.11.2017 08:24 5,6 C 7,2 C 93 % 1015,6 hPa 0,0 l/m 3,3 km/h (1 Bft) S-SW 201 0 min 0,000 mm 0,0 UV-I 21 W/m 4,6 C 5,6 C 4,8 km/h (1 Bft) 100,00 %
08.11.2017 08:26 5,6 C 7,2 C 93 % 1015,6 hPa 0,0 l/m 4,4 km/h (1 Bft) S-SW 211 0 min 0,000 mm 0,0 UV-I 24 W/m 4,6 C 5,6 C 8,0 km/h (2 Bft) 100,00 %
08.11.2017 08:28 5,6 C 7,2 C 93 % 1015,5 hPa 0,0 l/m 5,6 km/h (1 Bft) W 259 0 min 0,000 mm 0,0 UV-I 25 W/m 4,6 C 5,6 C 9,7 km/h (2 Bft) 96,00 %
08.11.2017 08:30 5,6 C 7,2 C 93 % 1015,6 hPa 0,0 l/m 4,6 km/h (1 Bft) W-SW 250 0 min 0,000 mm 0,0 UV-I 30 W/m 4,6 C 5,6 C 6,4 km/h (2 Bft) 100,00 %
08.11.2017 08:32 5,6 C 7,2 C 93 % 1015,7 hPa 0,0 l/m 4,2 km/h (1 Bft) W-SW 251 0 min 0,000 mm 0,0 UV-I 35 W/m 4,6 C 5,6 C 4,8 km/h (1 Bft) 100,00 %
08.11.2017 08:34 5,7 C 7,2 C 92 % 1015,7 hPa 0,0 l/m 5,7 km/h (1 Bft) SW 235 0 min 0,000 mm 0,0 UV-I 38 W/m 4,5 C 5,7 C 11,3 km/h (2 Bft) 100,00 %
08.11.2017 08:36 5,6 C 7,2 C 92 % 1015,6 hPa 0,0 l/m 7,3 km/h (2 Bft) SW 233 0 min 0,000 mm 0,0 UV-I 39 W/m 4,4 C 4,8 C 11,3 km/h (2 Bft) 100,00 %
08.11.2017 08:38 5,7 C 7,2 C 92 % 1015,6 hPa 0,0 l/m 6,2 km/h (2 Bft) W-SW 242 0 min 0,000 mm 0,0 UV-I 40 W/m 4,5 C 5,7 C 9,7 km/h (2 Bft) 100,00 %
08.11.2017 08:40 5,7 C 7,2 C 92 % 1015,6 hPa 0,0 l/m 4,3 km/h (1 Bft) SW 215 0 min 0,000 mm 0,0 UV-I 39 W/m 4,5 C 5,7 C 8,0 km/h (2 Bft) 100,00 %
08.11.2017 08:42 5,7 C 7,2 C 92 % 1015,7 hPa 0,0 l/m 4,7 km/h (1 Bft) W-SW 252 0 min 0,000 mm 0,0 UV-I 37 W/m 4,5 C 5,7 C 6,4 km/h (2 Bft) 100,00 %
08.11.2017 08:44 5,7 C 7,2 C 92 % 1015,7 hPa 0,0 l/m 6,6 km/h (2 Bft) W-SW 250 0 min 0,000 mm 0,0 UV-I 37 W/m 4,5 C 5,6 C 11,3 km/h (2 Bft) 98,00 %
08.11.2017 08:46 5,7 C 7,2 C 92 % 1015,7 hPa 0,0 l/m 4,8 km/h (1 Bft) W-SW 248 0 min 0,000 mm 0,0 UV-I 37 W/m 4,5 C 5,7 C 6,4 km/h (2 Bft) 100,00 %
08.11.2017 08:48 5,7 C 7,2 C 92 % 1015,7 hPa 0,0 l/m 5,8 km/h (2 Bft) W 265 0 min 0,000 mm 0,0 UV-I 39 W/m 4,5 C 5,7 C 8,0 km/h (2 Bft) 100,00 %
08.11.2017 08:50 5,7 C 7,2 C 92 % 1015,7 hPa 0,0 l/m 5,6 km/h (1 Bft) W 269 0 min 0,000 mm 0,0 UV-I 40 W/m 4,5 C 5,7 C 9,7 km/h (2 Bft) 98,21 %
08.11.2017 08:52 5,7 C 7,2 C 92 % 1015,6 hPa 0,0 l/m 4,1 km/h (1 Bft) W 268 0 min 0,000 mm 0,0 UV-I 44 W/m 4,5 C 5,7 C 6,4 km/h (2 Bft) 100,00 %
08.11.2017 08:54 5,7 C 7,2 C 92 % 1015,6 hPa 0,0 l/m 4,2 km/h (1 Bft) W 269 0 min 0,000 mm 0,0 UV-I 50 W/m 4,5 C 5,7 C 6,4 km/h (2 Bft) 100,00 %
08.11.2017 08:56 5,7 C 7,2 C 92 % 1015,6 hPa 0,0 l/m 4,0 km/h (1 Bft) W 268 0 min 0,000 mm 0,0 UV-I 54 W/m 4,5 C 5,7 C 6,4 km/h (2 Bft) 100,00 %
08.11.2017 08:58 5,7 C 7,2 C 92 % 1015,6 hPa 0,0 l/m 3,7 km/h (1 Bft) W 267 0 min 0,000 mm 0,0 UV-I 58 W/m 4,5 C 5,7 C 4,8 km/h (1 Bft) 100,00 %
08.11.2017 09:00 5,8 C 7,2 C 92 % 1015,6 hPa 0,0 l/m 4,1 km/h (1 Bft) W 267 0 min 0,025 mm 0,0 UV-I 58 W/m 4,6 C 5,8 C 4,8 km/h (1 Bft) 100,00 %
08.11.2017 09:02 5,8 C 7,2 C 92 % 1015,6 hPa 0,0 l/m 3,5 km/h (1 Bft) W 267 0 min 0,000 mm 0,0 UV-I 56 W/m 4,6 C 5,8 C 6,4 km/h (2 Bft) 100,00 %
08.11.2017 09:04 5,8 C 7,2 C 92 % 1015,5 hPa 0,0 l/m 4,1 km/h (1 Bft) W 267 0 min 0,000 mm 0,0 UV-I 60 W/m 4,6 C 5,8 C 6,4 km/h (2 Bft) 95,74 %
08.11.2017 09:06 5,8 C 7,2 C 92 % 1015,5 hPa 0,0 l/m 3,5 km/h (1 Bft) W 267 0 min 0,000 mm 0,0 UV-I 63 W/m 4,6 C 5,8 C 4,8 km/h (1 Bft) 98,00 %
08.11.2017 09:08 5,8 C 7,2 C 92 % 1015,5 hPa 0,0 l/m 4,1 km/h (1 Bft) W 267 0 min 0,000 mm 0,0 UV-I 64 W/m 4,6 C 5,8 C 6,4 km/h (2 Bft) 97,56 %
08.11.2017 09:10 5,8 C 7,2 C 92 % 1015,5 hPa 0,0 l/m 4,5 km/h (1 Bft) W 267 0 min 0,000 mm 0,0 UV-I 67 W/m 4,6 C 5,8 C 6,4 km/h (2 Bft) 98,00 %
08.11.2017 09:12 5,8 C 7,2 C 92 % 1015,5 hPa 0,0 l/m 5,0 km/h (1 Bft) SW 229 0 min 0,000 mm 0,0 UV-I 70 W/m 4,6 C 5,8 C 6,4 km/h (2 Bft) 96,00 %
08.11.2017 09:14 5,8 C 7,2 C 92 % 1015,5 hPa 0,0 l/m 5,1 km/h (1 Bft) W-SW 252 0 min 0,000 mm 0,0 UV-I 73 W/m 4,6 C 5,8 C 9,7 km/h (2 Bft) 97,56 %
08.11.2017 09:16 5,8 C 7,2 C 92 % 1015,5 hPa 0,0 l/m 4,6 km/h (1 Bft) W-SW 237 0 min 0,000 mm 0,0 UV-I 76 W/m 4,6 C 5,8 C 9,7 km/h (2 Bft) 98,00 %
08.11.2017 09:18 5,8 C 7,2 C 92 % 1015,5 hPa 0,0 l/m 6,5 km/h (2 Bft) W-SW 237 0 min 0,000 mm 0,0 UV-I 76 W/m 4,6 C 5,7 C 9,7 km/h (2 Bft) 97,87 %
08.11.2017 09:20 5,9 C 7,2 C 92 % 1015,5 hPa 0,0 l/m 3,3 km/h (1 Bft) W-SW 237 0 min 0,000 mm 0,0 UV-I 76 W/m 4,7 C 5,9 C 6,4 km/h (2 Bft) 94,34 %
08.11.2017 09:22 5,9 C 7,2 C 92 % 1015,6 hPa 0,0 l/m 3,6 km/h (1 Bft) SW 234 0 min 0,000 mm 0,0 UV-I 76 W/m 4,7 C 5,9 C 6,4 km/h (2 Bft) 97,37 %
08.11.2017 09:24 5,9 C 7,2 C 92 % 1015,6 hPa 0,0 l/m 5,0 km/h (1 Bft) SW 225 0 min 0,000 mm 0,0 UV-I 74 W/m 4,7 C 5,9 C 6,4 km/h (2 Bft) 98,00 %
08.11.2017 09:26 5,9 C 7,2 C 92 % 1015,6 hPa 0,0 l/m 4,9 km/h (1 Bft) SW 229 0 min 0,000 mm 0,0 UV-I 74 W/m 4,7 C 5,9 C 6,4 km/h (2 Bft) 97,44 %
08.11.2017 09:28 5,9 C 7,2 C 92 % 1015,6 hPa 0,0 l/m 5,7 km/h (1 Bft) W-SW 241 0 min 0,000 mm 0,0 UV-I 78 W/m 4,7 C 5,9 C 8,0 km/h (2 Bft) 95,12 %
08.11.2017 09:30 5,9 C 7,2 C 92 % 1015,6 hPa 0,0 l/m 4,5 km/h (1 Bft) W-SW 243 0 min 0,000 mm 0,0 UV-I 81 W/m 4,7 C 5,9 C 6,4 km/h (2 Bft) 98,44 %
08.11.2017 09:32 6,0 C 7,2 C 92 % 1015,6 hPa 0,0 l/m 4,5 km/h (1 Bft) SW 234 0 min 0,000 mm 0,0 UV-I 82 W/m 4,8 C 6,0 C 8,0 km/h (2 Bft) 97,62 %
08.11.2017 09:34 6,0 C 7,2 C 92 % 1015,6 hPa 0,0 l/m 4,1 km/h (1 Bft) SW 234 0 min 0,000 mm 0,0 UV-I 85 W/m 4,8 C 6,0 C 6,4 km/h (2 Bft) 97,87 %
08.11.2017 09:36 6,0 C 7,2 C 92 % 1015,6 hPa 0,0 l/m 5,4 km/h (1 Bft) SW 229 0 min 0,000 mm 0,0 UV-I 84 W/m 4,8 C 6,0 C 8,0 km/h (2 Bft) 97,73 %
08.11.2017 09:38 6,1 C 7,2 C 91 % 1015,6 hPa 0,0 l/m 5,6 km/h (1 Bft) SW 232 0 min 0,000 mm 0,0 UV-I 79 W/m 4,7 C 6,1 C 9,7 km/h (2 Bft) 96,23 %
08.11.2017 09:40 6,1 C 7,2 C 92 % 1015,6 hPa 0,0 l/m 5,7 km/h (1 Bft) SW 235 0 min 0,000 mm 0,0 UV-I 75 W/m 4,9 C 6,1 C 9,7 km/h (2 Bft) 96,00 %
08.11.2017 09:42 6,1 C 7,2 C 92 % 1015,6 hPa 0,0 l/m 5,1 km/h (1 Bft) W-SW 250 0 min 0,000 mm 0,0 UV-I 69 W/m 4,9 C 6,1 C 8,0 km/h (2 Bft) 95,12 %
08.11.2017 09:44 6,1 C 7,2 C 91 % 1015,8 hPa 0,0 l/m 4,6 km/h (1 Bft) SW 214 0 min 0,000 mm 0,0 UV-I 62 W/m 4,7 C 6,1 C 8,0 km/h (2 Bft) 92,00 %
08.11.2017 09:46 6,1 C 7,2 C 91 % 1015,8 hPa 0,0 l/m 4,8 km/h (1 Bft) S-SW 211 0 min 0,000 mm 0,0 UV-I 55 W/m 4,7 C 6,1 C 8,0 km/h (2 Bft) 96,00 %
08.11.2017 09:48 6,1 C 7,2 C 91 % 1015,8 hPa 0,0 l/m 4,4 km/h (1 Bft) S-SW 211 0 min 0,000 mm 0,0 UV-I 49 W/m 4,7 C 6,1 C 8,0 km/h (2 Bft) 91,49 %
08.11.2017 09:50 6,1 C 7,2 C 91 % 1015,8 hPa 0,0 l/m 4,0 km/h (1 Bft) S-SW 211 0 min 0,000 mm 0,0 UV-I 47 W/m 4,7 C 6,1 C 6,4 km/h (2 Bft) 94,29 %
08.11.2017 09:52 6,1 C 7,2 C 91 % 1015,9 hPa 0,0 l/m 5,4 km/h (1 Bft) SW 223 0 min 0,000 mm 0,0 UV-I 48 W/m 4,7 C 6,1 C 8,0 km/h (2 Bft) 98,00 %
08.11.2017 09:54 6,1 C 7,2 C 91 % 1015,9 hPa 0,0 l/m 5,9 km/h (2 Bft) SW 220 0 min 0,000 mm 0,0 UV-I 49 W/m 4,7 C 6,1 C 8,0 km/h (2 Bft) 96,00 %
08.11.2017 09:56 6,1 C 7,2 C 91 % 1015,9 hPa 0,0 l/m 6,0 km/h (2 Bft) SW 225 0 min 0,000 mm 0,0 UV-I 52 W/m 4,7 C 6,1 C 8,0 km/h (2 Bft) 96,00 %
08.11.2017 09:58 6,1 C 7,2 C 91 % 1015,9 hPa 0,0 l/m 5,6 km/h (1 Bft) W-SW 239 0 min 0,000 mm 0,0 UV-I 55 W/m 4,7 C 6,1 C 8,0 km/h (2 Bft) 94,29 %
08.11.2017 10:00 6,1 C 7,2 C 91 % 1015,9 hPa 0,0 l/m 6,5 km/h (2 Bft) W-SW 238 0 min 0,026 mm 0,0 UV-I 58 W/m 4,7 C 6,0 C 8,0 km/h (2 Bft) 94,00 %
08.11.2017 10:02 6,1 C 7,2 C 91 % 1015,9 hPa 0,0 l/m 5,5 km/h (1 Bft) W-SW 239 0 min 0,000 mm 0,0 UV-I 58 W/m 4,7 C 6,1 C 8,0 km/h (2 Bft) 94,00 %
08.11.2017 10:04 6,1 C 7,2 C 91 % 1015,9 hPa 0,0 l/m 5,2 km/h (1 Bft) W-SW 242 0 min 0,000 mm 0,0 UV-I 58 W/m 4,7 C 6,1 C 9,7 km/h (2 Bft) 92,45 %
08.11.2017 10:06 6,1 C 7,2 C 91 % 1016,0 hPa 0,0 l/m 4,7 km/h (1 Bft) SW 219 0 min 0,000 mm 0,0 UV-I 56 W/m 4,7 C 6,1 C 8,0 km/h (2 Bft) 95,45 %
08.11.2017 10:08 6,1 C 7,2 C 91 % 1016,0 hPa 0,0 l/m 6,0 km/h (2 Bft) SW 227 0 min 0,000 mm 0,0 UV-I 54 W/m 4,7 C 6,1 C 9,7 km/h (2 Bft) 96,67 %
08.11.2017 10:10 6,1 C 7,2 C 91 % 1016,0 hPa 0,0 l/m 6,4 km/h (2 Bft) S-SW 202 0 min 0,000 mm 0,0 UV-I 53 W/m 4,7 C 6,1 C 9,7 km/h (2 Bft) 94,92 %
08.11.2017 10:12 6,1 C 7,2 C 91 % 1016,1 hPa 0,0 l/m 4,6 km/h (1 Bft) S-SW 213 0 min 0,000 mm 0,0 UV-I 50 W/m 4,7 C 6,1 C 6,4 km/h (2 Bft) 92,73 %
08.11.2017 10:14 6,1 C 7,2 C 91 % 1016,1 hPa 0,0 l/m 6,1 km/h (2 Bft) S-SW 212 0 min 0,000 mm 0,0 UV-I 47 W/m 4,7 C 6,1 C 9,7 km/h (2 Bft) 95,83 %
08.11.2017 10:16 6,1 C 7,2 C 91 % 1016,1 hPa 0,0 l/m 5,2 km/h (1 Bft) SW 227 0 min 0,000 mm 0,0 UV-I 46 W/m 4,7 C 6,1 C 8,0 km/h (2 Bft) 97,87 %
08.11.2017 10:18 6,1 C 7,2 C 91 % 1016,0 hPa 0,0 l/m 4,8 km/h (1 Bft) SW 227 0 min 0,000 mm 0,0 UV-I 46 W/m 4,7 C 6,1 C 8,0 km/h (2 Bft) 100,00 %
08.11.2017 10:20 6,1 C 7,2 C 91 % 1016,0 hPa 0,0 l/m 5,7 km/h (1 Bft) SW 229 0 min 0,000 mm 0,0 UV-I 48 W/m 4,7 C 6,1 C 9,7 km/h (2 Bft) 100,00 %
08.11.2017 10:22 6,1 C 7,2 C 91 % 1016,1 hPa 0,0 l/m 3,8 km/h (1 Bft) SW 236 0 min 0,000 mm 0,0 UV-I 50 W/m 4,7 C 6,1 C 6,4 km/h (2 Bft) 98,00 %
08.11.2017 10:24 6,1 C 7,2 C 91 % 1016,1 hPa 0,0 l/m 5,3 km/h (1 Bft) SW 234 0 min 0,000 mm 0,0 UV-I 51 W/m 4,7 C 6,1 C 9,7 km/h (2 Bft) 97,56 %
08.11.2017 10:26 6,1 C 7,2 C 91 % 1016,2 hPa 0,0 l/m 2,7 km/h (1 Bft) SW 234 0 min 0,000 mm 0,0 UV-I 50 W/m 4,7 C 6,1 C 6,4 km/h (2 Bft) 100,00 %
08.11.2017 10:28 6,1 C 7,2 C 91 % 1016,2 hPa 0,0 l/m 5,0 km/h (1 Bft) SW 232 0 min 0,000 mm 0,0 UV-I 49 W/m 4,7 C 6,1 C 8,0 km/h (2 Bft) 100,00 %
08.11.2017 10:30 6,1 C 7,2 C 91 % 1016,2 hPa 0,0 l/m 4,3 km/h (1 Bft) SW 232 0 min 0,000 mm 0,0 UV-I 49 W/m 4,7 C 6,1 C 4,8 km/h (1 Bft) 100,00 %
08.11.2017 10:32 6,1 C 7,2 C 92 % 1016,1 hPa 0,2 l/m 4,3 km/h (1 Bft) SW 232 0 min 0,000 mm 0,0 UV-I 53 W/m 4,9 C 6,1 C 6,4 km/h (2 Bft) 100,00 %
08.11.2017 10:34 6,1 C 7,2 C 92 % 1016,1 hPa 0,0 l/m 4,1 km/h (1 Bft) SW 232 0 min 0,000 mm 0,0 UV-I 54 W/m 4,9 C 6,1 C 6,4 km/h (2 Bft) 100,00 %
08.11.2017 10:36 6,1 C 7,2 C 91 % 1016,2 hPa 0,0 l/m 4,0 km/h (1 Bft) SW 232 0 min 0,000 mm 0,0 UV-I 54 W/m 4,7 C 6,1 C 6,4 km/h (2 Bft) 100,00 %
08.11.2017 10:38 6,1 C 7,2 C 92 % 1016,1 hPa 0,0 l/m 4,3 km/h (1 Bft) SW 232 0 min 0,000 mm 0,0 UV-I 54 W/m 4,9 C 6,1 C 6,4 km/h (2 Bft) 100,00 %
08.11.2017 10:40 6,2 C 7,2 C 92 % 1016,1 hPa 0,0 l/m 4,2 km/h (1 Bft) SW 232 0 min 0,000 mm 0,0 UV-I 56 W/m 5,0 C 6,2 C 6,4 km/h (2 Bft) 100,00 %
08.11.2017 10:42 6,2 C 7,2 C 92 % 1016,1 hPa 0,0 l/m 6,5 km/h (2 Bft) S-SW 212 0 min 0,000 mm 0,0 UV-I 56 W/m 5,0 C 6,1 C 9,7 km/h (2 Bft) 100,00 %
08.11.2017 10:44 6,1 C 7,2 C 92 % 1016,1 hPa 0,0 l/m 5,9 km/h (2 Bft) S-SW 213 0 min 0,000 mm 0,0 UV-I 56 W/m 4,9 C 6,1 C 9,7 km/h (2 Bft) 100,00 %
08.11.2017 10:46 6,1 C 7,2 C 92 % 1016,1 hPa 0,0 l/m 5,6 km/h (1 Bft) SW 225 0 min 0,000 mm 0,0 UV-I 57 W/m 4,9 C 6,1 C 8,0 km/h (2 Bft) 100,00 %
08.11.2017 10:48 6,1 C 7,2 C 92 % 1016,1 hPa 0,0 l/m 4,4 km/h (1 Bft) SW 221 0 min 0,000 mm 0,0 UV-I 62 W/m 4,9 C 6,1 C 6,4 km/h (2 Bft) 100,00 %
08.11.2017 10:50 6,1 C 7,2 C 91 % 1016,1 hPa 0,0 l/m 6,1 km/h (2 Bft) SW 219 0 min 0,000 mm 0,0 UV-I 68 W/m 4,7 C 6,1 C 9,7 km/h (2 Bft) 100,00 %
08.11.2017 10:52 6,1 C 7,2 C 92 % 1016,1 hPa 0,0 l/m 6,5 km/h (2 Bft) SW 235 0 min 0,000 mm 0,0 UV-I 76 W/m 4,9 C 6,0 C 9,7 km/h (2 Bft) 98,00 %
08.11.2017 10:54 6,1 C 7,2 C 92 % 1016,1 hPa 0,0 l/m 6,3 km/h (2 Bft) S-SW 213 0 min 0,000 mm 0,0 UV-I 81 W/m 4,9 C 6,1 C 9,7 km/h (2 Bft) 95,74 %
08.11.2017 10:56 6,1 C 7,2 C 92 % 1016,1 hPa 0,2 l/m 6,4 km/h (2 Bft) SW 227 0 min 0,000 mm 0,0 UV-I 86 W/m 4,9 C 6,1 C 9,7 km/h (2 Bft) 100,00 %
08.11.2017 10:58 6,1 C 7,2 C 92 % 1016,1 hPa 0,0 l/m 6,7 km/h (2 Bft) S-SW 205 0 min 0,000 mm 0,0 UV-I 90 W/m 4,9 C 5,9 C 9,7 km/h (2 Bft) 98,00 %
08.11.2017 11:00 6,2 C 7,2 C 92 % 1016,1 hPa 0,0 l/m 5,7 km/h (1 Bft) S-SW 211 0 min 0,025 mm 0,0 UV-I 84 W/m 5,0 C 6,2 C 8,0 km/h (2 Bft) 97,87 %
08.11.2017 11:02 6,2 C 7,2 C 92 % 1016,1 hPa 0,0 l/m 6,8 km/h (2 Bft) SW 215 0 min 0,000 mm 0,0 UV-I 77 W/m 5,0 C 5,9 C 9,7 km/h (2 Bft) 100,00 %
08.11.2017 11:04 6,2 C 7,2 C 92 % 1016,1 hPa 0,0 l/m 6,4 km/h (2 Bft) S-SW 206 0 min 0,000 mm 0,0 UV-I 72 W/m 5,0 C 6,2 C 9,7 km/h (2 Bft) 100,00 %
08.11.2017 11:06 6,2 C 7,2 C 92 % 1016,2 hPa 0,0 l/m 6,3 km/h (2 Bft) SW 229 0 min 0,000 mm 0,0 UV-I 73 W/m 5,0 C 6,2 C 9,7 km/h (2 Bft) 100,00 %
08.11.2017 11:08 6,1 C 7,2 C 92 % 1016,2 hPa 0,0 l/m 5,2 km/h (1 Bft) SW 228 0 min 0,000 mm 0,0 UV-I 74 W/m 4,9 C 6,1 C 6,4 km/h (2 Bft) 98,00 %
08.11.2017 11:10 6,1 C 7,2 C 92 % 1016,2 hPa 0,0 l/m 5,4 km/h (1 Bft) S-SW 209 0 min 0,000 mm 0,0 UV-I 75 W/m 4,9 C 6,1 C 8,0 km/h (2 Bft) 100,00 %
08.11.2017 11:12 6,1 C 7,2 C 93 % 1016,2 hPa 0,0 l/m 4,4 km/h (1 Bft) W-SW 239 0 min 0,000 mm 0,0 UV-I 72 W/m 5,1 C 6,1 C 6,4 km/h (2 Bft) 100,00 %
08.11.2017 11:14 6,1 C 7,2 C 93 % 1016,2 hPa 0,2 l/m 4,0 km/h (1 Bft) SW 223 0 min 0,000 mm 0,0 UV-I 68 W/m 5,1 C 6,1 C 6,4 km/h (2 Bft) 100,00 %
08.11.2017 11:16 6,1 C 7,2 C 93 % 1016,2 hPa 0,0 l/m 7,4 km/h (2 Bft) SW 221 0 min 0,000 mm 0,0 UV-I 64 W/m 5,1 C 5,3 C 11,3 km/h (2 Bft) 100,00 %
08.11.2017 11:18 6,0 C 7,2 C 92 % 1016,2 hPa 0,0 l/m 5,6 km/h (1 Bft) SW 230 0 min 0,000 mm 0,0 UV-I 64 W/m 4,8 C 6,0 C 8,0 km/h (2 Bft) 100,00 %
08.11.2017 11:20 6,0 C 7,2 C 92 % 1016,2 hPa 0,0 l/m 4,9 km/h (1 Bft) S-SW 213 0 min 0,000 mm 0,0 UV-I 68 W/m 4,8 C 6,0 C 8,0 km/h (2 Bft) 100,00 %
08.11.2017 11:22 6,0 C 7,2 C 92 % 1016,2 hPa 0,0 l/m 5,5 km/h (1 Bft) SW 236 0 min 0,000 mm 0,0 UV-I 74 W/m 4,8 C 6,0 C 9,7 km/h (2 Bft) 97,56 %
08.11.2017 11:24 6,0 C 7,2 C 92 % 1016,1 hPa 0,0 l/m 6,2 km/h (2 Bft) W-SW 243 0 min 0,000 mm 0,0 UV-I 76 W/m 4,8 C 6,0 C 8,0 km/h (2 Bft) 100,00 %
08.11.2017 11:26 6,1 C 7,2 C 93 % 1016,2 hPa 0,0 l/m 4,7 km/h (1 Bft) W-SW 240 0 min 0,000 mm 0,0 UV-I 74 W/m 5,1 C 6,1 C 8,0 km/h (2 Bft) 100,00 %
08.11.2017 11:28 6,1 C 7,2 C 93 % 1016,2 hPa 0,0 l/m 3,3 km/h (1 Bft) W-SW 240 0 min 0,000 mm 0,0 UV-I 74 W/m 5,1 C 6,1 C 6,4 km/h (2 Bft) 100,00 %
08.11.2017 11:30 6,1 C 7,2 C 93 % 1016,1 hPa 0,2 l/m 5,5 km/h (1 Bft) W-SW 248 0 min 0,000 mm 0,0 UV-I 72 W/m 5,1 C 6,1 C 9,7 km/h (2 Bft) 100,00 %
08.11.2017 11:32 6,1 C 7,2 C 93 % 1016,1 hPa 0,0 l/m 6,0 km/h (2 Bft) SW 217 0 min 0,000 mm 0,0 UV-I 71 W/m 5,1 C 6,1 C 11,3 km/h (2 Bft) 100,00 %
08.11.2017 11:34 6,1 C 7,2 C 93 % 1016,2 hPa 0,0 l/m 4,4 km/h (1 Bft) SW 218 0 min 0,000 mm 0,0 UV-I 67 W/m 5,1 C 6,1 C 6,4 km/h (2 Bft) 98,00 %
08.11.2017 11:36 6,1 C 7,2 C 93 % 1016,1 hPa 0,0 l/m 3,5 km/h (1 Bft) SW 218 0 min 0,000 mm 0,0 UV-I 66 W/m 5,1 C 6,1 C 6,4 km/h (2 Bft) 98,00 %
08.11.2017 11:38 6,0 C 7,2 C 93 % 1016,2 hPa 0,0 l/m 6,8 km/h (2 Bft) SW 229 0 min 0,000 mm 0,0 UV-I 68 W/m 5,0 C 5,7 C 9,7 km/h (2 Bft) 100,00 %
08.11.2017 11:40 6,0 C 7,2 C 93 % 1016,1 hPa 0,0 l/m 6,7 km/h (2 Bft) SW 236 0 min 0,000 mm 0,0 UV-I 71 W/m 5,0 C 5,8 C 9,7 km/h (2 Bft) 100,00 %
08.11.2017 11:42 6,0 C 7,2 C 94 % 1016,1 hPa 0,0 l/m 4,8 km/h (1 Bft) SW 229 0 min 0,000 mm 0,0 UV-I 73 W/m 5,1 C 6,0 C 6,4 km/h (2 Bft) 98,00 %
08.11.2017 11:44 6,0 C 7,2 C 94 % 1016,1 hPa 0,0 l/m 5,8 km/h (2 Bft) SW 235 0 min 0,000 mm 0,0 UV-I 74 W/m 5,1 C 6,0 C 11,3 km/h (2 Bft) 97,37 %
08.11.2017 11:46 6,0 C 7,2 C 94 % 1016,1 hPa 0,2 l/m 5,5 km/h (1 Bft) SW 225 0 min 0,000 mm 0,0 UV-I 71 W/m 5,1 C 6,0 C 8,0 km/h (2 Bft) 97,87 %
08.11.2017 11:48 6,0 C 7,2 C 94 % 1016,1 hPa 0,0 l/m 6,3 km/h (2 Bft) W-SW 238 0 min 0,000 mm 0,0 UV-I 71 W/m 5,1 C 6,0 C 9,7 km/h (2 Bft) 96,43 %
08.11.2017 11:50 6,0 C 7,2 C 94 % 1016,1 hPa 0,0 l/m 6,9 km/h (2 Bft) SW 234 0 min 0,000 mm 0,0 UV-I 75 W/m 5,1 C 5,6 C 9,7 km/h (2 Bft) 95,12 %
08.11.2017 11:52 5,9 C 7,2 C 94 % 1016,2 hPa 0,0 l/m 5,4 km/h (1 Bft) SW 236 0 min 0,000 mm 0,0 UV-I 77 W/m 5,0 C 5,9 C 8,0 km/h (2 Bft) 97,56 %
08.11.2017 11:54 6,0 C 7,2 C 94 % 1016,2 hPa 0,0 l/m 4,9 km/h (1 Bft) W-SW 242 0 min 0,000 mm 0,0 UV-I 77 W/m 5,1 C 6,0 C 11,3 km/h (2 Bft) 97,83 %
08.11.2017 11:56 6,0 C 7,2 C 94 % 1016,2 hPa 0,2 l/m 4,4 km/h (1 Bft) S-SW 213 0 min 0,000 mm 0,0 UV-I 73 W/m 5,1 C 6,0 C 6,4 km/h (2 Bft) 98,21 %
08.11.2017 11:58 6,0 C 7,2 C 94 % 1016,2 hPa 0,0 l/m 4,9 km/h (1 Bft) W-SW 238 0 min 0,000 mm 0,0 UV-I 72 W/m 5,1 C 6,0 C 8,0 km/h (2 Bft) 97,87 %
08.11.2017 12:00 6,0 C 7,2 C 94 % 1016,2 hPa 0,0 l/m 4,3 km/h (1 Bft) S-SW 210 0 min 0,025 mm 0,0 UV-I 76 W/m 5,1 C 6,0 C 8,0 km/h (2 Bft) 97,87 %
08.11.2017 12:02 6,0 C 7,2 C 94 % 1016,1 hPa 0,0 l/m 7,2 km/h (2 Bft) W-SW 240 0 min 0,000 mm 0,0 UV-I 78 W/m 5,1 C 5,3 C 9,7 km/h (2 Bft) 94,87 %
08.11.2017 12:04 5,9 C 7,2 C 94 % 1016,1 hPa 0,0 l/m 7,0 km/h (2 Bft) SW 236 0 min 0,000 mm 0,0 UV-I 79 W/m 5,0 C 5,4 C 9,7 km/h (2 Bft) 96,15 %
08.11.2017 12:06 5,9 C 7,2 C 94 % 1016,1 hPa 0,0 l/m 5,8 km/h (2 Bft) SW 225 0 min 0,000 mm 0,0 UV-I 78 W/m 5,0 C 5,9 C 8,0 km/h (2 Bft) 100,00 %
08.11.2017 12:08 6,0 C 7,2 C 94 % 1016,1 hPa 0,0 l/m 5,7 km/h (1 Bft) SW 224 0 min 0,000 mm 0,0 UV-I 71 W/m 5,1 C 6,0 C 8,0 km/h (2 Bft) 96,55 %
08.11.2017 12:10 6,0 C 7,2 C 94 % 1016,1 hPa 0,0 l/m 4,8 km/h (1 Bft) SW 215 0 min 0,000 mm 0,0 UV-I 65 W/m 5,1 C 6,0 C 6,4 km/h (2 Bft) 97,22 %
08.11.2017 12:12 6,0 C 7,2 C 94 % 1016,1 hPa 0,2 l/m 4,3 km/h (1 Bft) SW 215 0 min 0,000 mm 0,0 UV-I 64 W/m 5,1 C 6,0 C 6,4 km/h (2 Bft) 98,08 %
08.11.2017 12:14 6,0 C 7,2 C 94 % 1016,1 hPa 0,0 l/m 3,8 km/h (1 Bft) SW 215 0 min 0,000 mm 0,0 UV-I 68 W/m 5,1 C 6,0 C 6,4 km/h (2 Bft) 98,11 %
08.11.2017 12:16 6,0 C 7,2 C 94 % 1016,1 hPa 0,0 l/m 4,5 km/h (1 Bft) SW 215 0 min 0,000 mm 0,0 UV-I 71 W/m 5,1 C 6,0 C 6,4 km/h (2 Bft) 97,87 %
08.11.2017 12:18 6,0 C 7,2 C 94 % 1016,1 hPa 0,0 l/m 5,4 km/h (1 Bft) S-SW 213 0 min 0,000 mm 0,0 UV-I 74 W/m 5,1 C 6,0 C 8,0 km/h (2 Bft) 100,00 %
08.11.2017 12:20 6,0 C 7,2 C 94 % 1016,1 hPa 0,0 l/m 4,1 km/h (1 Bft) S-SW 213 0 min 0,000 mm 0,0 UV-I 76 W/m 5,1 C 6,0 C 6,4 km/h (2 Bft) 100,00 %
08.11.2017 12:22 5,9 C 7,2 C 94 % 1016,2 hPa 0,0 l/m 4,5 km/h (1 Bft) S-SW 213 0 min 0,000 mm 0,0 UV-I 73 W/m 5,0 C 5,9 C 8,0 km/h (2 Bft) 97,87 %
08.11.2017 12:24 5,9 C 7,2 C 94 % 1016,2 hPa 0,2 l/m 4,4 km/h (1 Bft) W-SW 242 0 min 0,000 mm 0,0 UV-I 69 W/m 5,0 C 5,9 C 8,0 km/h (2 Bft) 96,00 %
08.11.2017 12:26 5,9 C 7,2 C 94 % 1016,3 hPa 0,0 l/m 4,7 km/h (1 Bft) SW 221 0 min 0,000 mm 0,0 UV-I 63 W/m 5,0 C 5,9 C 8,0 km/h (2 Bft) 98,00 %
08.11.2017 12:28 5,9 C 7,2 C 94 % 1016,3 hPa 0,0 l/m 5,1 km/h (1 Bft) S-SW 202 0 min 0,000 mm 0,0 UV-I 63 W/m 5,0 C 5,9 C 8,0 km/h (2 Bft) 100,00 %
08.11.2017 12:30 6,0 C 7,2 C 94 % 1016,3 hPa 0,0 l/m 3,2 km/h (1 Bft) S-SW 202 0 min 0,000 mm 0,0 UV-I 63 W/m 5,1 C 6,0 C 4,8 km/h (1 Bft) 97,73 %
08.11.2017 12:32 6,0 C 7,2 C 94 % 1016,3 hPa 0,0 l/m 4,7 km/h (1 Bft) S-SW 201 0 min 0,000 mm 0,0 UV-I 66 W/m 5,1 C 6,0 C 6,4 km/h (2 Bft) 100,00 %
08.11.2017 12:34 6,0 C 7,2 C 94 % 1016,3 hPa 0,0 l/m 3,2 km/h (1 Bft) S-SW 201 0 min 0,000 mm 0,0 UV-I 71 W/m 5,1 C 6,0 C 4,8 km/h (1 Bft) 100,00 %
08.11.2017 12:36 6,0 C 7,2 C 94 % 1016,3 hPa 0,0 l/m 5,2 km/h (1 Bft) S-SW 207 0 min 0,000 mm 0,0 UV-I 76 W/m 5,1 C 6,0 C 8,0 km/h (2 Bft) 100,00 %
08.11.2017 12:38 6,0 C 7,2 C 94 % 1016,3 hPa 0,0 l/m 4,6 km/h (1 Bft) S-SW 207 0 min 0,000 mm 0,0 UV-I 77 W/m 5,1 C 6,0 C 6,4 km/h (2 Bft) 100,00 %
08.11.2017 12:40 6,0 C 7,2 C 95 % 1016,3 hPa 0,0 l/m 3,0 km/h (1 Bft) S-SW 207 0 min 0,000 mm 0,0 UV-I 78 W/m 5,3 C 6,0 C 4,8 km/h (1 Bft) 100,00 %
08.11.2017 12:42 6,1 C 7,2 C 95 % 1016,3 hPa 0,0 l/m 4,7 km/h (1 Bft) SW 228 0 min 0,000 mm 0,0 UV-I 81 W/m 5,4 C 6,1 C 8,0 km/h (2 Bft) 97,87 %
08.11.2017 12:44 6,1 C 7,2 C 95 % 1016,3 hPa 0,2 l/m 4,7 km/h (1 Bft) SW 227 0 min 0,000 mm 0,0 UV-I 81 W/m 5,4 C 6,1 C 6,4 km/h (2 Bft) 100,00 %
08.11.2017 12:46 6,1 C 7,2 C 95 % 1016,3 hPa 0,0 l/m 3,9 km/h (1 Bft) SW 226 0 min 0,000 mm 0,0 UV-I 80 W/m 5,4 C 6,1 C 6,4 km/h (2 Bft) 100,00 %
08.11.2017 12:48 6,1 C 7,2 C 95 % 1016,3 hPa 0,0 l/m 2,1 km/h (1 Bft) SW 226 0 min 0,000 mm 0,0 UV-I 77 W/m 5,4 C 6,1 C 4,8 km/h (1 Bft) 100,00 %
08.11.2017 12:50 6,1 C 7,2 C 95 % 1016,3 hPa 0,0 l/m 2,9 km/h (1 Bft) SW 226 0 min 0,000 mm 0,0 UV-I 70 W/m 5,4 C 6,1 C 4,8 km/h (1 Bft) 97,87 %
08.11.2017 12:52 6,1 C 7,2 C 95 % 1016,3 hPa 0,0 l/m 2,5 km/h (1 Bft) SW 226 0 min 0,000 mm 0,0 UV-I 63 W/m 5,4 C 6,1 C 4,8 km/h (1 Bft) 96,00 %
08.11.2017 12:54 6,1 C 7,2 C 95 % 1016,3 hPa 0,0 l/m 3,3 km/h (1 Bft) SW 226 0 min 0,000 mm 0,0 UV-I 61 W/m 5,4 C 6,1 C 4,8 km/h (1 Bft) 100,00 %
08.11.2017 12:56 6,1 C 7,2 C 95 % 1016,3 hPa 0,0 l/m 3,6 km/h (1 Bft) SW 226 0 min 0,000 mm 0,0 UV-I 56 W/m 5,4 C 6,1 C 6,4 km/h (2 Bft) 100,00 %
08.11.2017 12:58 6,1 C 7,2 C 95 % 1016,3 hPa 0,2 l/m 3,2 km/h (1 Bft) SW 226 0 min 0,000 mm 0,0 UV-I 54 W/m 5,4 C 6,1 C 6,4 km/h (2 Bft) 100,00 %
08.11.2017 13:00 6,1 C 7,2 C 95 % 1016,3 hPa 0,0 l/m 4,8 km/h (1 Bft) SW 226 0 min 0,000 mm 0,0 UV-I 55 W/m 5,4 C 6,1 C 6,4 km/h (2 Bft) 97,37 %
08.11.2017 13:02 6,1 C 7,2 C 95 % 1016,2 hPa 0,0 l/m 3,4 km/h (1 Bft) SW 226 0 min 0,026 mm 0,0 UV-I 58 W/m 5,4 C 6,1 C 4,8 km/h (1 Bft) 97,56 %
08.11.2017 13:04 6,1 C 7,2 C 95 % 1016,2 hPa 0,0 l/m 3,8 km/h (1 Bft) SW 226 0 min 0,000 mm 0,0 UV-I 60 W/m 5,4 C 6,1 C 6,4 km/h (2 Bft) 98,21 %
08.11.2017 13:06 6,1 C 7,2 C 95 % 1016,2 hPa 0,0 l/m 3,3 km/h (1 Bft) SW 226 0 min 0,000 mm 0,0 UV-I 60 W/m 5,4 C 6,1 C 4,8 km/h (1 Bft) 96,00 %
08.11.2017 13:08 6,1 C 7,2 C 95 % 1016,2 hPa 0,0 l/m 3,7 km/h (1 Bft) SW 226 0 min 0,000 mm 0,0 UV-I 61 W/m 5,4 C 6,1 C 4,8 km/h (1 Bft) 98,00 %
08.11.2017 13:10 6,1 C 7,2 C 95 % 1016,2 hPa 0,0 l/m 3,4 km/h (1 Bft) SW 226 0 min 0,000 mm 0,0 UV-I 62 W/m 5,4 C 6,1 C 4,8 km/h (1 Bft) 94,74 %
08.11.2017 13:12 6,1 C 7,2 C 95 % 1016,2 hPa 0,0 l/m 4,4 km/h (1 Bft) W-SW 253 0 min 0,000 mm 0,0 UV-I 61 W/m 5,4 C 6,1 C 6,4 km/h (2 Bft) 98,21 %
08.11.2017 13:14 6,1 C 7,2 C 95 % 1016,2 hPa 0,0 l/m 5,9 km/h (2 Bft) W 265 0 min 0,000 mm 0,0 UV-I 58 W/m 5,4 C 6,1 C 9,7 km/h (2 Bft) 97,14 %
08.11.2017 13:16 6,1 C 7,2 C 95 % 1016,2 hPa 0,2 l/m 4,6 km/h (1 Bft) W 259 0 min 0,000 mm 0,0 UV-I 56 W/m 5,4 C 6,1 C 9,7 km/h (2 Bft) 96,23 %
08.11.2017 13:18 6,1 C 7,2 C 95 % 1016,2 hPa 0,0 l/m 5,3 km/h (1 Bft) SW 236 0 min 0,000 mm 0,0 UV-I 56 W/m 5,4 C 6,1 C 8,0 km/h (2 Bft) 96,00 %
08.11.2017 13:20 6,0 C 7,2 C 95 % 1016,2 hPa 0,0 l/m 5,8 km/h (2 Bft) SW 224 0 min 0,000 mm 0,0 UV-I 60 W/m 5,3 C 6,0 C 9,7 km/h (2 Bft) 97,67 %
08.11.2017 13:22 6,0 C 7,2 C 95 % 1016,2 hPa 0,0 l/m 5,6 km/h (1 Bft) W 259 0 min 0,000 mm 0,0 UV-I 62 W/m 5,3 C 6,0 C 9,7 km/h (2 Bft) 96,23 %
08.11.2017 13:24 6,0 C 7,2 C 95 % 1016,2 hPa 0,0 l/m 4,8 km/h (1 Bft) W-SW 252 0 min 0,000 mm 0,0 UV-I 64 W/m 5,3 C 6,0 C 8,0 km/h (2 Bft) 97,22 %
08.11.2017 13:26 6,1 C 7,2 C 95 % 1016,2 hPa 0,2 l/m 5,0 km/h (1 Bft) W-SW 244 0 min 0,000 mm 0,0 UV-I 64 W/m 5,4 C 6,1 C 8,0 km/h (2 Bft) 98,11 %
08.11.2017 13:28 6,0 C 7,2 C 95 % 1016,2 hPa 0,0 l/m 5,6 km/h (1 Bft) W 263 0 min 0,000 mm 0,0 UV-I 61 W/m 5,3 C 6,0 C 9,7 km/h (2 Bft) 98,08 %
08.11.2017 13:30 6,1 C 7,2 C 95 % 1016,2 hPa 0,0 l/m 4,8 km/h (1 Bft) W-SW 256 0 min 0,000 mm 0,0 UV-I 62 W/m 5,4 C 6,1 C 6,4 km/h (2 Bft) 97,44 %
08.11.2017 13:32 6,0 C 7,2 C 95 % 1016,2 hPa 0,0 l/m 6,1 km/h (2 Bft) W-SW 250 0 min 0,000 mm 0,0 UV-I 64 W/m 5,3 C 6,0 C 11,3 km/h (2 Bft) 98,21 %
08.11.2017 13:34 6,0 C 7,2 C 95 % 1016,2 hPa 0,0 l/m 8,9 km/h (2 Bft) SW 229 0 min 0,000 mm 0,0 UV-I 66 W/m 5,3 C 4,0 C 12,9 km/h (3 Bft) 97,37 %
08.11.2017 13:36 6,0 C 7,2 C 95 % 1016,2 hPa 0,0 l/m 6,8 km/h (2 Bft) SW 223 0 min 0,000 mm 0,0 UV-I 70 W/m 5,3 C 5,7 C 11,3 km/h (2 Bft) 95,74 %
08.11.2017 13:38 6,0 C 7,2 C 95 % 1016,2 hPa 0,0 l/m 3,5 km/h (1 Bft) SW 224 0 min 0,000 mm 0,0 UV-I 72 W/m 5,3 C 6,0 C 6,4 km/h (2 Bft) 96,43 %
08.11.2017 13:40 6,1 C 7,2 C 95 % 1016,2 hPa 0,0 l/m 5,1 km/h (1 Bft) SW 217 0 min 0,000 mm 0,0 UV-I 70 W/m 5,4 C 6,1 C 9,7 km/h (2 Bft) 97,56 %
08.11.2017 13:42 6,1 C 7,2 C 95 % 1016,2 hPa 0,0 l/m 6,5 km/h (2 Bft) SW 235 0 min 0,000 mm 0,0 UV-I 66 W/m 5,4 C 6,0 C 9,7 km/h (2 Bft) 98,00 %
08.11.2017 13:44 6,1 C 7,2 C 95 % 1016,2 hPa 0,0 l/m 7,0 km/h (2 Bft) SW 234 0 min 0,000 mm 0,0 UV-I 69 W/m 5,4 C 5,6 C 11,3 km/h (2 Bft) 97,87 %
08.11.2017 13:46 6,1 C 7,2 C 95 % 1016,2 hPa 0,0 l/m 7,8 km/h (2 Bft) SW 223 0 min 0,000 mm 0,0 UV-I 69 W/m 5,4 C 4,9 C 11,3 km/h (2 Bft) 97,56 %
08.11.2017 13:48 6,1 C 7,2 C 95 % 1016,2 hPa 0,2 l/m 6,1 km/h (2 Bft) S-SW 212 0 min 0,000 mm 0,0 UV-I 63 W/m 5,4 C 6,1 C 9,7 km/h (2 Bft) 92,00 %
08.11.2017 13:50 6,2 C 7,2 C 95 % 1016,2 hPa 0,0 l/m 5,4 km/h (1 Bft) SW 225 0 min 0,000 mm 0,0 UV-I 61 W/m 5,5 C 6,2 C 11,3 km/h (2 Bft) 96,00 %
08.11.2017 13:52 6,1 C 7,2 C 95 % 1016,2 hPa 0,0 l/m 7,3 km/h (2 Bft) SW 226 0 min 0,000 mm 0,0 UV-I 65 W/m 5,4 C 5,3 C 11,3 km/h (2 Bft) 94,74 %
08.11.2017 13:54 6,1 C 7,2 C 95 % 1016,3 hPa 0,0 l/m 5,4 km/h (1 Bft) W-SW 245 0 min 0,000 mm 0,0 UV-I 65 W/m 5,4 C 6,1 C 8,0 km/h (2 Bft) 95,74 %
08.11.2017 13:56 6,1 C 7,2 C 95 % 1016,2 hPa 0,0 l/m 7,7 km/h (2 Bft) SW 236 0 min 0,000 mm 0,0 UV-I 58 W/m 5,4 C 5,0 C 12,9 km/h (3 Bft) 96,00 %
08.11.2017 13:58 6,1 C 7,2 C 95 % 1016,3 hPa 0,0 l/m 6,3 km/h (2 Bft) W-SW 249 0 min 0,000 mm 0,0 UV-I 53 W/m 5,4 C 6,1 C 9,7 km/h (2 Bft) 95,45 %
08.11.2017 14:00 6,1 C 7,2 C 95 % 1016,3 hPa 0,0 l/m 4,4 km/h (1 Bft) W-SW 256 0 min 0,000 mm 0,0 UV-I 51 W/m 5,4 C 6,1 C 6,4 km/h (2 Bft) 94,34 %
08.11.2017 14:02 6,1 C 7,2 C 95 % 1016,3 hPa 0,0 l/m 4,9 km/h (1 Bft) W-SW 247 0 min 0,025 mm 0,0 UV-I 47 W/m 5,4 C 6,1 C 9,7 km/h (2 Bft) 97,44 %
08.11.2017 14:04 6,1 C 7,2 C 95 % 1016,3 hPa 0,0 l/m 4,6 km/h (1 Bft) W-SW 254 0 min 0,000 mm 0,0 UV-I 43 W/m 5,4 C 6,1 C 6,4 km/h (2 Bft) 96,23 %
08.11.2017 14:06 6,1 C 7,2 C 96 % 1016,3 hPa 0,0 l/m 4,5 km/h (1 Bft) W 277 0 min 0,000 mm 0,0 UV-I 39 W/m 5,5 C 6,1 C 6,4 km/h (2 Bft) 95,74 %
08.11.2017 14:08 6,1 C 7,2 C 96 % 1016,4 hPa 0,0 l/m 5,1 km/h (1 Bft) W-SW 243 0 min 0,000 mm 0,0 UV-I 39 W/m 5,5 C 6,1 C 8,0 km/h (2 Bft) 95,74 %
08.11.2017 14:10 6,1 C 7,2 C 95 % 1016,4 hPa 0,0 l/m 4,9 km/h (1 Bft) W-SW 254 0 min 0,000 mm 0,0 UV-I 39 W/m 5,4 C 6,1 C 6,4 km/h (2 Bft) 97,14 %
08.11.2017 14:12 6,0 C 7,2 C 95 % 1016,3 hPa 0,0 l/m 5,7 km/h (1 Bft) W-SW 248 0 min 0,000 mm 0,0 UV-I 38 W/m 5,3 C 6,0 C 11,3 km/h (2 Bft) 96,77 %
08.11.2017 14:14 6,0 C 7,2 C 95 % 1016,3 hPa 0,0 l/m 7,5 km/h (2 Bft) W 260 0 min 0,000 mm 0,0 UV-I 38 W/m 5,3 C 5,1 C 11,3 km/h (2 Bft) 93,62 %
08.11.2017 14:16 5,9 C 7,2 C 95 % 1016,4 hPa 0,0 l/m 4,4 km/h (1 Bft) W-SW 257 0 min 0,000 mm 0,0 UV-I 36 W/m 5,2 C 5,9 C 9,7 km/h (2 Bft) 97,56 %
08.11.2017 14:18 6,0 C 7,2 C 95 % 1016,4 hPa 0,0 l/m 3,8 km/h (1 Bft) W-SW 257 0 min 0,000 mm 0,0 UV-I 33 W/m 5,3 C 6,0 C 6,4 km/h (2 Bft) 95,74 %
08.11.2017 14:20 6,0 C 7,2 C 95 % 1016,4 hPa 0,0 l/m 3,5 km/h (1 Bft) W-SW 258 0 min 0,000 mm 0,0 UV-I 32 W/m 5,3 C 6,0 C 6,4 km/h (2 Bft) 100,00 %
08.11.2017 14:22 6,0 C 7,2 C 96 % 1016,4 hPa 0,0 l/m 3,1 km/h (1 Bft) W-SW 258 0 min 0,000 mm 0,0 UV-I 32 W/m 5,4 C 6,0 C 4,8 km/h (1 Bft) 95,74 %
08.11.2017 14:24 6,0 C 7,2 C 96 % 1016,4 hPa 0,0 l/m 5,0 km/h (1 Bft) W 265 0 min 0,000 mm 0,0 UV-I 31 W/m 5,4 C 6,0 C 9,7 km/h (2 Bft) 100,00 %
08.11.2017 14:26 6,0 C 7,2 C 96 % 1016,5 hPa 0,0 l/m 3,9 km/h (1 Bft) W-SW 253 0 min 0,000 mm 0,0 UV-I 28 W/m 5,4 C 6,0 C 6,4 km/h (2 Bft) 98,00 %
08.11.2017 14:28 5,9 C 7,2 C 95 % 1016,5 hPa 0,0 l/m 7,1 km/h (2 Bft) W-SW 253 0 min 0,000 mm 0,0 UV-I 26 W/m 5,2 C 5,3 C 12,9 km/h (3 Bft) 98,00 %
08.11.2017 14:30 5,9 C 7,2 C 95 % 1016,5 hPa 0,0 l/m 7,4 km/h (2 Bft) SW 236 0 min 0,000 mm 0,0 UV-I 25 W/m 5,2 C 5,0 C 11,3 km/h (2 Bft) 100,00 %
08.11.2017 14:32 5,9 C 7,2 C 95 % 1016,6 hPa 0,0 l/m 6,2 km/h (2 Bft) W 259 0 min 0,000 mm 0,0 UV-I 25 W/m 5,2 C 5,9 C 9,7 km/h (2 Bft) 95,12 %
08.11.2017 14:34 5,9 C 7,2 C 95 % 1016,5 hPa 0,0 l/m 7,3 km/h (2 Bft) W 263 0 min 0,000 mm 0,0 UV-I 25 W/m 5,2 C 5,1 C 14,5 km/h (3 Bft) 97,37 %
08.11.2017 14:36 5,8 C 7,2 C 95 % 1016,5 hPa 0,0 l/m 6,2 km/h (2 Bft) W-SW 257 0 min 0,000 mm 0,0 UV-I 25 W/m 5,1 C 5,8 C 11,3 km/h (2 Bft) 100,00 %
08.11.2017 14:38 5,8 C 7,2 C 95 % 1016,4 hPa 0,0 l/m 9,2 km/h (2 Bft) SW 229 0 min 0,000 mm 0,0 UV-I 26 W/m 5,1 C 3,5 C 12,9 km/h (3 Bft) 100,00 %
08.11.2017 14:40 5,8 C 7,2 C 95 % 1016,4 hPa 0,0 l/m 8,7 km/h (2 Bft) W-SW 253 0 min 0,000 mm 0,0 UV-I 25 W/m 5,1 C 3,9 C 12,9 km/h (3 Bft) 100,00 %
08.11.2017 14:42 5,8 C 7,2 C 95 % 1016,5 hPa 0,0 l/m 7,0 km/h (2 Bft) W-SW 250 0 min 0,000 mm 0,0 UV-I 24 W/m 5,1 C 5,3 C 11,3 km/h (2 Bft) 100,00 %
08.11.2017 14:44 5,8 C 7,2 C 95 % 1016,6 hPa 0,0 l/m 5,0 km/h (1 Bft) W-SW 253 0 min 0,000 mm 0,0 UV-I 21 W/m 5,1 C 5,8 C 9,7 km/h (2 Bft) 100,00 %
08.11.2017 14:46 5,8 C 7,2 C 95 % 1016,7 hPa 0,0 l/m 6,7 km/h (2 Bft) W-SW 247 0 min 0,000 mm 0,0 UV-I 19 W/m 5,1 C 5,6 C 11,3 km/h (2 Bft) 100,00 %
08.11.2017 14:48 5,8 C 7,2 C 94 % 1016,7 hPa 0,0 l/m 4,5 km/h (1 Bft) W 261 0 min 0,000 mm 0,0 UV-I 19 W/m 4,9 C 5,8 C 6,4 km/h (2 Bft) 98,11 %
08.11.2017 14:50 5,8 C 7,2 C 94 % 1016,6 hPa 0,0 l/m 5,2 km/h (1 Bft) W-SW 256 0 min 0,000 mm 0,0 UV-I 20 W/m 4,9 C 5,8 C 9,7 km/h (2 Bft) 100,00 %
08.11.2017 14:52 5,8 C 7,2 C 94 % 1016,6 hPa 0,0 l/m 4,8 km/h (1 Bft) W-SW 257 0 min 0,000 mm 0,0 UV-I 21 W/m 4,9 C 5,8 C 6,4 km/h (2 Bft) 100,00 %
08.11.2017 14:54 5,8 C 7,2 C 94 % 1016,6 hPa 0,0 l/m 4,8 km/h (1 Bft) W-SW 252 0 min 0,000 mm 0,0 UV-I 21 W/m 4,9 C 5,8 C 6,4 km/h (2 Bft) 100,00 %
08.11.2017 14:56 5,8 C 7,2 C 94 % 1016,6 hPa 0,0 l/m 4,3 km/h (1 Bft) W-SW 250 0 min 0,000 mm 0,0 UV-I 23 W/m 4,9 C 5,8 C 8,0 km/h (2 Bft) 100,00 %
08.11.2017 14:58 5,8 C 7,2 C 94 % 1016,6 hPa 0,0 l/m 5,6 km/h (1 Bft) W-SW 249 0 min 0,000 mm 0,0 UV-I 25 W/m 4,9 C 5,8 C 9,7 km/h (2 Bft) 100,00 %
08.11.2017 15:00 5,8 C 7,2 C 94 % 1016,6 hPa 0,0 l/m 5,0 km/h (1 Bft) W-SW 253 0 min 0,026 mm 0,0 UV-I 26 W/m 4,9 C 5,8 C 9,7 km/h (2 Bft) 100,00 %
08.11.2017 15:02 5,8 C 7,2 C 94 % 1016,6 hPa 0,0 l/m 5,8 km/h (2 Bft) W 269 0 min 0,000 mm 0,0 UV-I 28 W/m 4,9 C 5,8 C 9,7 km/h (2 Bft) 95,45 %
08.11.2017 15:04 5,8 C 7,2 C 94 % 1016,7 hPa 0,0 l/m 4,0 km/h (1 Bft) W 262 0 min 0,000 mm 0,0 UV-I 31 W/m 4,9 C 5,8 C 6,4 km/h (2 Bft) 97,56 %
08.11.2017 15:06 5,8 C 7,2 C 94 % 1016,7 hPa 0,0 l/m 3,6 km/h (1 Bft) W 262 0 min 0,000 mm 0,0 UV-I 34 W/m 4,9 C 5,8 C 4,8 km/h (1 Bft) 100,00 %
08.11.2017 15:08 5,8 C 7,2 C 94 % 1016,7 hPa 0,0 l/m 3,0 km/h (1 Bft) W 262 0 min 0,000 mm 0,0 UV-I 33 W/m 4,9 C 5,8 C 4,8 km/h (1 Bft) 100,00 %
08.11.2017 15:10 5,8 C 7,2 C 94 % 1016,7 hPa 0,0 l/m 4,4 km/h (1 Bft) W 261 0 min 0,000 mm 0,0 UV-I 31 W/m 4,9 C 5,8 C 6,4 km/h (2 Bft) 100,00 %
08.11.2017 15:12 5,8 C 7,2 C 94 % 1016,6 hPa 0,0 l/m 5,5 km/h (1 Bft) W 261 0 min 0,000 mm 0,0 UV-I 29 W/m 4,9 C 5,8 C 9,7 km/h (2 Bft) 100,00 %
08.11.2017 15:14 5,8 C 7,2 C 94 % 1016,6 hPa 0,0 l/m 4,2 km/h (1 Bft) W 261 0 min 0,000 mm 0,0 UV-I 27 W/m 4,9 C 5,8 C 6,4 km/h (2 Bft) 100,00 %
08.11.2017 15:16 5,8 C 7,2 C 94 % 1016,6 hPa 0,0 l/m 5,6 km/h (1 Bft) W-SW 249 0 min 0,000 mm 0,0 UV-I 23 W/m 4,9 C 5,8 C 6,4 km/h (2 Bft) 100,00 %
08.11.2017 15:18 5,8 C 7,2 C 94 % 1016,7 hPa 0,0 l/m 4,1 km/h (1 Bft) W 261 0 min 0,000 mm 0,0 UV-I 19 W/m 4,9 C 5,8 C 6,4 km/h (2 Bft) 100,00 %
08.11.2017 15:20 5,8 C 7,2 C 94 % 1016,7 hPa 0,0 l/m 3,7 km/h (1 Bft) W 261 0 min 0,000 mm 0,0 UV-I 17 W/m 4,9 C 5,8 C 4,8 km/h (1 Bft) 98,08 %
08.11.2017 15:22 5,8 C 7,2 C 94 % 1016,7 hPa 0,0 l/m 4,9 km/h (1 Bft) W 263 0 min 0,000 mm 0,0 UV-I 16 W/m 4,9 C 5,8 C 9,7 km/h (2 Bft) 100,00 %
08.11.2017 15:24 5,8 C 7,2 C 94 % 1016,7 hPa 0,0 l/m 4,1 km/h (1 Bft) W 263 0 min 0,000 mm 0,0 UV-I 16 W/m 4,9 C 5,8 C 6,4 km/h (2 Bft) 100,00 %
08.11.2017 15:26 5,8 C 7,2 C 95 % 1016,7 hPa 0,0 l/m 4,2 km/h (1 Bft) W 278 0 min 0,000 mm 0,0 UV-I 17 W/m 5,1 C 5,8 C 6,4 km/h (2 Bft) 98,00 %
08.11.2017 15:28 5,7 C 7,2 C 95 % 1016,7 hPa 0,0 l/m 4,1 km/h (1 Bft) W-SW 238 0 min 0,000 mm 0,0 UV-I 20 W/m 5,0 C 5,7 C 6,4 km/h (2 Bft) 100,00 %
08.11.2017 15:30 5,8 C 7,2 C 95 % 1016,7 hPa 0,0 l/m 4,1 km/h (1 Bft) W-SW 242 0 min 0,000 mm 0,0 UV-I 25 W/m 5,1 C 5,8 C 6,4 km/h (2 Bft) 100,00 %
08.11.2017 15:32 5,8 C 7,2 C 95 % 1016,7 hPa 0,0 l/m 3,6 km/h (1 Bft) W-SW 242 0 min 0,000 mm 0,0 UV-I 31 W/m 5,1 C 5,8 C 4,8 km/h (1 Bft) 95,12 %
08.11.2017 15:34 5,8 C 7,2 C 95 % 1016,7 hPa 0,0 l/m 4,4 km/h (1 Bft) W-SW 254 0 min 0,000 mm 0,0 UV-I 32 W/m 5,1 C 5,8 C 8,0 km/h (2 Bft) 100,00 %
08.11.2017 15:36 5,8 C 7,2 C 95 % 1016,7 hPa 0,0 l/m 5,8 km/h (2 Bft) W-SW 250 0 min 0,000 mm 0,0 UV-I 30 W/m 5,1 C 5,8 C 8,0 km/h (2 Bft) 98,00 %
08.11.2017 15:38 5,8 C 7,2 C 95 % 1016,7 hPa 0,0 l/m 4,2 km/h (1 Bft) SW 235 0 min 0,000 mm 0,0 UV-I 26 W/m 5,1 C 5,8 C 6,4 km/h (2 Bft) 100,00 %
08.11.2017 15:40 5,8 C 7,2 C 95 % 1016,8 hPa 0,0 l/m 4,9 km/h (1 Bft) W-SW 239 0 min 0,000 mm 0,0 UV-I 22 W/m 5,1 C 5,8 C 6,4 km/h (2 Bft) 98,11 %
08.11.2017 15:42 5,8 C 7,2 C 95 % 1016,8 hPa 0,0 l/m 4,7 km/h (1 Bft) W-SW 242 0 min 0,000 mm 0,0 UV-I 19 W/m 5,1 C 5,8 C 6,4 km/h (2 Bft) 100,00 %
08.11.2017 15:44 5,8 C 7,2 C 95 % 1016,9 hPa 0,0 l/m 4,6 km/h (1 Bft) SW 215 0 min 0,000 mm 0,0 UV-I 17 W/m 5,1 C 5,8 C 8,0 km/h (2 Bft) 100,00 %
08.11.2017 15:46 5,8 C 7,2 C 95 % 1016,9 hPa 0,0 l/m 5,5 km/h (1 Bft) SW 226 0 min 0,000 mm 0,0 UV-I 15 W/m 5,1 C 5,8 C 8,0 km/h (2 Bft) 100,00 %
08.11.2017 15:48 5,8 C 7,2 C 95 % 1017,0 hPa 0,0 l/m 5,1 km/h (1 Bft) SW 229 0 min 0,000 mm 0,0 UV-I 12 W/m 5,1 C 5,8 C 8,0 km/h (2 Bft) 100,00 %
08.11.2017 15:50 5,8 C 7,2 C 95 % 1017,0 hPa 0,0 l/m 4,6 km/h (1 Bft) SW 236 0 min 0,000 mm 0,0 UV-I 12 W/m 5,1 C 5,8 C 6,4 km/h (2 Bft) 97,87 %
08.11.2017 15:52 5,8 C 7,2 C 95 % 1017,0 hPa 0,0 l/m 3,2 km/h (1 Bft) SW 236 0 min 0,000 mm 0,0 UV-I 11 W/m 5,1 C 5,8 C 4,8 km/h (1 Bft) 95,74 %
08.11.2017 15:54 5,8 C 7,2 C 95 % 1017,1 hPa 0,0 l/m 3,7 km/h (1 Bft) W-SW 243 0 min 0,000 mm 0,0 UV-I 11 W/m 5,1 C 5,8 C 6,4 km/h (2 Bft) 98,00 %
08.11.2017 15:56 5,8 C 7,2 C 95 % 1017,1 hPa 0,0 l/m 5,6 km/h (1 Bft) W-SW 238 0 min 0,000 mm 0,0 UV-I 12 W/m 5,1 C 5,8 C 8,0 km/h (2 Bft) 98,11 %
08.11.2017 15:58 5,8 C 7,2 C 95 % 1017,1 hPa 0,0 l/m 4,7 km/h (1 Bft) W-SW 238 0 min 0,000 mm 0,0 UV-I 12 W/m 5,1 C 5,8 C 6,4 km/h (2 Bft) 95,74 %
08.11.2017 16:00 5,8 C 7,2 C 95 % 1017,1 hPa 0,0 l/m 5,4 km/h (1 Bft) W-SW 246 0 min 0,000 mm 0,0 UV-I 14 W/m 5,1 C 5,8 C 8,0 km/h (2 Bft) 97,44 %
08.11.2017 16:02 5,8 C 7,2 C 95 % 1017,1 hPa 0,0 l/m 6,9 km/h (2 Bft) W-SW 249 0 min 0,000 mm 0,0 UV-I 14 W/m 5,1 C 5,4 C 12,9 km/h (3 Bft) 96,15 %
08.11.2017 16:04 5,7 C 7,2 C 95 % 1017,0 hPa 0,0 l/m 5,6 km/h (1 Bft) SW 235 0 min 0,000 mm 0,0 UV-I 14 W/m 5,0 C 5,7 C 8,0 km/h (2 Bft) 96,00 %
08.11.2017 16:06 5,7 C 7,2 C 95 % 1017,1 hPa 0,0 l/m 6,1 km/h (2 Bft) W-SW 254 0 min 0,000 mm 0,0 UV-I 12 W/m 5,0 C 5,7 C 8,0 km/h (2 Bft) 100,00 %
08.11.2017 16:08 5,7 C 7,2 C 95 % 1017,1 hPa 0,0 l/m 6,5 km/h (2 Bft) W-SW 251 0 min 0,000 mm 0,0 UV-I 12 W/m 5,0 C 5,6 C 11,3 km/h (2 Bft) 94,34 %
08.11.2017 16:10 5,7 C 7,2 C 95 % 1017,1 hPa 0,0 l/m 6,0 km/h (2 Bft) W-SW 241 0 min 0,000 mm 0,0 UV-I 12 W/m 5,0 C 5,7 C 11,3 km/h (2 Bft) 97,37 %
08.11.2017 16:12 5,7 C 7,2 C 95 % 1017,1 hPa 0,0 l/m 6,0 km/h (2 Bft) SW 228 0 min 0,000 mm 0,0 UV-I 11 W/m 5,0 C 5,7 C 11,3 km/h (2 Bft) 97,87 %
08.11.2017 16:14 5,7 C 7,2 C 95 % 1017,1 hPa 0,0 l/m 6,6 km/h (2 Bft) W-SW 242 0 min 0,000 mm 0,0 UV-I 11 W/m 5,0 C 5,6 C 11,3 km/h (2 Bft) 98,21 %
08.11.2017 16:16 5,7 C 7,2 C 95 % 1017,1 hPa 0,0 l/m 4,9 km/h (1 Bft) SW 227 0 min 0,000 mm 0,0 UV-I 8 W/m 5,0 C 5,7 C 6,4 km/h (2 Bft) 97,56 %
08.11.2017 16:18 5,7 C 7,2 C 95 % 1017,2 hPa 0,0 l/m 6,8 km/h (2 Bft) SW 230 0 min 0,000 mm 0,0 UV-I 7 W/m 5,0 C 5,4 C 11,3 km/h (2 Bft) 98,00 %
08.11.2017 16:20 5,7 C 7,2 C 95 % 1017,2 hPa 0,0 l/m 7,6 km/h (2 Bft) SW 232 0 min 0,000 mm 0,0 UV-I 5 W/m 5,0 C 4,7 C 12,9 km/h (3 Bft) 97,87 %
08.11.2017 16:22 5,7 C 7,2 C 95 % 1017,2 hPa 0,0 l/m 6,7 km/h (2 Bft) S-SW 205 0 min 0,000 mm 0,0 UV-I 5 W/m 5,0 C 5,5 C 9,7 km/h (2 Bft) 97,87 %
08.11.2017 16:24 5,7 C 7,2 C 95 % 1017,2 hPa 0,0 l/m 7,7 km/h (2 Bft) SW 233 0 min 0,000 mm 0,0 UV-I 5 W/m 5,0 C 4,6 C 12,9 km/h (3 Bft) 98,00 %
08.11.2017 16:26 5,6 C 7,2 C 95 % 1017,3 hPa 0,0 l/m 6,3 km/h (2 Bft) SW 236 0 min 0,000 mm 0,0 UV-I 5 W/m 4,9 C 5,6 C 8,0 km/h (2 Bft) 97,87 %
08.11.2017 16:28 5,6 C 7,2 C 95 % 1017,3 hPa 0,0 l/m 6,9 km/h (2 Bft) W-SW 248 0 min 0,000 mm 0,0 UV-I 5 W/m 4,9 C 5,2 C 11,3 km/h (2 Bft) 100,00 %
08.11.2017 16:30 5,6 C 7,2 C 95 % 1017,3 hPa 0,0 l/m 7,6 km/h (2 Bft) SW 229 0 min 0,000 mm 0,0 UV-I 5 W/m 4,9 C 4,6 C 12,9 km/h (3 Bft) 100,00 %
08.11.2017 16:32 5,6 C 7,2 C 95 % 1017,4 hPa 0,0 l/m 7,4 km/h (2 Bft) SW 232 0 min 0,000 mm 0,0 UV-I 5 W/m 4,9 C 4,7 C 11,3 km/h (2 Bft) 97,56 %
08.11.2017 16:34 5,5 C 7,2 C 95 % 1017,4 hPa 0,0 l/m 7,0 km/h (2 Bft) SW 228 0 min 0,000 mm 0,0 UV-I 5 W/m 4,8 C 5,0 C 9,7 km/h (2 Bft) 97,96 %
08.11.2017 16:36 5,5 C 7,2 C 95 % 1017,4 hPa 0,0 l/m 7,6 km/h (2 Bft) W-SW 252 0 min 0,000 mm 0,0 UV-I 1 W/m 4,8 C 4,5 C 12,9 km/h (3 Bft) 98,00 %
08.11.2017 16:38 5,5 C 7,2 C 95 % 1017,5 hPa 0,0 l/m 6,8 km/h (2 Bft) SW 236 0 min 0,000 mm 0,0 UV-I 0 W/m 4,8 C 5,2 C 9,7 km/h (2 Bft) 100,00 %
08.11.2017 16:40 5,5 C 7,2 C 95 % 1017,4 hPa 0,0 l/m 8,6 km/h (2 Bft) SW 217 0 min 0,000 mm 0,0 UV-I 0 W/m 4,8 C 3,7 C 12,9 km/h (3 Bft) 100,00 %
08.11.2017 16:42 5,5 C 7,2 C 95 % 1017,5 hPa 0,0 l/m 7,3 km/h (2 Bft) SW 229 0 min 0,000 mm 0,0 UV-I 0 W/m 4,8 C 4,7 C 9,7 km/h (2 Bft) 100,00 %
08.11.2017 16:44 5,4 C 7,2 C 95 % 1017,6 hPa 0,0 l/m 6,3 km/h (2 Bft) SW 225 0 min 0,000 mm 0,0 UV-I 0 W/m 4,7 C 5,4 C 9,7 km/h (2 Bft) 96,00 %
08.11.2017 16:46 5,5 C 7,2 C 95 % 1017,6 hPa 0,0 l/m 4,4 km/h (1 Bft) SW 216 0 min 0,000 mm 0,0 UV-I 0 W/m 4,8 C 5,5 C 6,4 km/h (2 Bft) 94,87 %
08.11.2017 16:48 5,5 C 7,2 C 95 % 1017,6 hPa 0,0 l/m 5,4 km/h (1 Bft) SW 223 0 min 0,000 mm 0,0 UV-I 0 W/m 4,8 C 5,5 C 9,7 km/h (2 Bft) 96,23 %
08.11.2017 16:50 5,5 C 7,2 C 95 % 1017,7 hPa 0,0 l/m 6,3 km/h (2 Bft) SW 230 0 min 0,000 mm 0,0 UV-I 0 W/m 4,8 C 5,5 C 9,7 km/h (2 Bft) 100,00 %
08.11.2017 16:52 5,5 C 7,2 C 95 % 1017,7 hPa 0,0 l/m 5,0 km/h (1 Bft) SW 231 0 min 0,000 mm 0,0 UV-I 0 W/m 4,8 C 5,5 C 6,4 km/h (2 Bft) 96,43 %
08.11.2017 16:54 5,5 C 7,2 C 95 % 1017,7 hPa 0,0 l/m 6,3 km/h (2 Bft) SW 229 0 min 0,000 mm 0,0 UV-I 0 W/m 4,8 C 5,5 C 8,0 km/h (2 Bft) 97,87 %
08.11.2017 16:56 5,5 C 7,2 C 95 % 1017,7 hPa 0,0 l/m 4,2 km/h (1 Bft) SW 232 0 min 0,000 mm 0,0 UV-I 0 W/m 4,8 C 5,5 C 6,4 km/h (2 Bft) 97,56 %
08.11.2017 16:58 5,5 C 7,2 C 95 % 1017,6 hPa 0,0 l/m 3,7 km/h (1 Bft) SW 232 0 min 0,000 mm 0,0 UV-I 0 W/m 4,8 C 5,5 C 4,8 km/h (1 Bft) 98,11 %
08.11.2017 17:00 5,4 C 7,2 C 95 % 1017,6 hPa 0,2 l/m 4,0 km/h (1 Bft) SW 232 0 min 0,000 mm 0,0 UV-I 0 W/m 4,7 C 5,4 C 4,8 km/h (1 Bft) 97,87 %
08.11.2017 17:02 5,4 C 7,2 C 95 % 1017,6 hPa 0,0 l/m 3,4 km/h (1 Bft) SW 232 0 min 0,000 mm 0,0 UV-I 0 W/m 4,7 C 5,4 C 4,8 km/h (1 Bft) 97,73 %
08.11.2017 17:04 5,4 C 7,2 C 95 % 1017,6 hPa 0,0 l/m 3,8 km/h (1 Bft) W-SW 246 0 min 0,000 mm 0,0 UV-I 0 W/m 4,7 C 5,4 C 6,4 km/h (2 Bft) 98,00 %
08.11.2017 17:06 5,4 C 7,2 C 95 % 1017,5 hPa 0,0 l/m 5,4 km/h (1 Bft) W 261 0 min 0,000 mm 0,0 UV-I 0 W/m 4,7 C 5,4 C 9,7 km/h (2 Bft) 97,37 %
08.11.2017 17:08 5,4 C 7,2 C 95 % 1017,5 hPa 0,0 l/m 5,6 km/h (1 Bft) W 261 0 min 0,000 mm 0,0 UV-I 0 W/m 4,7 C 5,4 C 9,7 km/h (2 Bft) 95,74 %
08.11.2017 17:10 5,4 C 7,2 C 96 % 1017,5 hPa 0,0 l/m 4,9 km/h (1 Bft) W 274 0 min 0,000 mm 0,0 UV-I 0 W/m 4,8 C 5,4 C 6,4 km/h (2 Bft) 98,00 %
08.11.2017 17:12 5,3 C 7,2 C 95 % 1017,5 hPa 0,0 l/m 4,7 km/h (1 Bft) W-SW 257 0 min 0,000 mm 0,0 UV-I 0 W/m 4,6 C 5,3 C 6,4 km/h (2 Bft) 94,00 %
08.11.2017 17:14 5,3 C 7,2 C 96 % 1017,5 hPa 0,2 l/m 4,3 km/h (1 Bft) W 259 0 min 0,000 mm 0,0 UV-I 0 W/m 4,7 C 5,3 C 6,4 km/h (2 Bft) 100,00 %
08.11.2017 17:16 5,3 C 7,2 C 96 % 1017,5 hPa 0,0 l/m 4,0 km/h (1 Bft) W 259 0 min 0,000 mm 0,0 UV-I 0 W/m 4,7 C 5,3 C 4,8 km/h (1 Bft) 96,23 %
08.11.2017 17:18 5,3 C 7,2 C 96 % 1017,5 hPa 0,0 l/m 3,4 km/h (1 Bft) W-SW 245 0 min 0,000 mm 0,0 UV-I 0 W/m 4,7 C 5,3 C 4,8 km/h (1 Bft) 97,62 %
08.11.2017 17:20 5,3 C 7,2 C 96 % 1017,6 hPa 0,0 l/m 4,9 km/h (1 Bft) W-SW 240 0 min 0,000 mm 0,0 UV-I 0 W/m 4,7 C 5,3 C 8,0 km/h (2 Bft) 95,83 %
08.11.2017 17:22 5,3 C 7,2 C 96 % 1017,5 hPa 0,0 l/m 5,0 km/h (1 Bft) W-SW 250 0 min 0,000 mm 0,0 UV-I 0 W/m 4,7 C 5,3 C 8,0 km/h (2 Bft) 94,74 %
08.11.2017 17:24 5,2 C 7,2 C 96 % 1017,6 hPa 0,0 l/m 3,9 km/h (1 Bft) W-SW 248 0 min 0,000 mm 0,0 UV-I 0 W/m 4,6 C 5,2 C 6,4 km/h (2 Bft) 98,39 %
08.11.2017 17:26 5,3 C 7,2 C 96 % 1017,6 hPa 0,0 l/m 3,6 km/h (1 Bft) W-SW 248 0 min 0,000 mm 0,0 UV-I 0 W/m 4,7 C 5,3 C 6,4 km/h (2 Bft) 95,92 %
08.11.2017 17:28 5,2 C 7,2 C 96 % 1017,6 hPa 0,0 l/m 5,0 km/h (1 Bft) SW 231 0 min 0,000 mm 0,0 UV-I 0 W/m 4,6 C 5,2 C 6,4 km/h (2 Bft) 97,62 %
08.11.2017 17:30 5,2 C 7,2 C 96 % 1017,7 hPa 0,0 l/m 3,7 km/h (1 Bft) SW 231 0 min 0,000 mm 0,0 UV-I 0 W/m 4,6 C 5,2 C 4,8 km/h (1 Bft) 97,56 %
08.11.2017 17:32 5,2 C 7,2 C 96 % 1017,7 hPa 0,0 l/m 3,8 km/h (1 Bft) SW 231 0 min 0,000 mm 0,0 UV-I 0 W/m 4,6 C 5,2 C 6,4 km/h (2 Bft) 93,62 %
08.11.2017 17:34 5,2 C 7,2 C 96 % 1017,7 hPa 0,0 l/m 1,8 km/h (1 Bft) SW 231 0 min 0,000 mm 0,0 UV-I 0 W/m 4,6 C 5,2 C 3,2 km/h (1 Bft) 98,00 %
08.11.2017 17:36 5,2 C 7,2 C 96 % 1017,8 hPa 0,0 l/m 1,9 km/h (1 Bft) SW 231 0 min 0,000 mm 0,0 UV-I 0 W/m 4,6 C 5,2 C 3,2 km/h (1 Bft) 96,00 %
08.11.2017 17:38 5,2 C 7,2 C 96 % 1017,7 hPa 0,0 l/m 1,7 km/h (1 Bft) SW 231 0 min 0,000 mm 0,0 UV-I 0 W/m 4,6 C 5,2 C 3,2 km/h (1 Bft) 97,56 %
08.11.2017 17:40 5,2 C 7,2 C 96 % 1017,8 hPa 0,0 l/m 0,9 km/h (0 Bft) SW 231 0 min 0,000 mm 0,0 UV-I 0 W/m 4,6 C 5,2 C 3,2 km/h (1 Bft) 96,15 %
08.11.2017 17:42 5,2 C 7,2 C 96 % 1017,8 hPa 0,0 l/m 2,6 km/h (1 Bft) SW 231 0 min 0,000 mm 0,0 UV-I 0 W/m 4,6 C 5,2 C 4,8 km/h (1 Bft) 97,87 %
08.11.2017 17:44 5,2 C 7,2 C 96 % 1017,8 hPa 0,0 l/m 1,8 km/h (1 Bft) SW 231 0 min 0,000 mm 0,0 UV-I 0 W/m 4,6 C 5,2 C 4,8 km/h (1 Bft) 97,56 %
08.11.2017 17:46 5,2 C 7,2 C 96 % 1017,8 hPa 0,0 l/m 2,2 km/h (1 Bft) SW 231 0 min 0,000 mm 0,0 UV-I 0 W/m 4,6 C 5,2 C 3,2 km/h (1 Bft) 100,00 %
08.11.2017 17:48 5,2 C 7,2 C 96 % 1017,8 hPa 0,0 l/m 1,8 km/h (1 Bft) SW 231 0 min 0,000 mm 0,0 UV-I 0 W/m 4,6 C 5,2 C 3,2 km/h (1 Bft) 98,11 %
08.11.2017 17:50 5,2 C 7,2 C 96 % 1017,8 hPa 0,0 l/m 1,8 km/h (1 Bft) SW 231 0 min 0,000 mm 0,0 UV-I 0 W/m 4,6 C 5,2 C 4,8 km/h (1 Bft) 100,00 %
08.11.2017 17:52 5,2 C 7,2 C 96 % 1017,8 hPa 0,0 l/m 2,4 km/h (1 Bft) SW 231 0 min 0,000 mm 0,0 UV-I 0 W/m 4,6 C 5,2 C 3,2 km/h (1 Bft) 97,56 %
08.11.2017 17:54 5,2 C 7,2 C 96 % 1017,9 hPa 0,0 l/m 2,5 km/h (1 Bft) SW 231 0 min 0,000 mm 0,0 UV-I 0 W/m 4,6 C 5,2 C 4,8 km/h (1 Bft) 98,00 %
08.11.2017 17:56 5,2 C 7,2 C 96 % 1017,9 hPa 0,0 l/m 2,2 km/h (1 Bft) SW 231 0 min 0,000 mm 0,0 UV-I 0 W/m 4,6 C 5,2 C 4,8 km/h (1 Bft) 98,00 %
08.11.2017 17:58 5,2 C 7,2 C 96 % 1017,9 hPa 0,0 l/m 3,0 km/h (1 Bft) SW 231 0 min 0,000 mm 0,0 UV-I 0 W/m 4,6 C 5,2 C 4,8 km/h (1 Bft) 95,12 %
08.11.2017 18:00 5,2 C 7,2 C 96 % 1017,9 hPa 0,2 l/m 2,6 km/h (1 Bft) SW 231 0 min 0,000 mm 0,0 UV-I 0 W/m 4,6 C 5,2 C 3,2 km/h (1 Bft) 97,62 %
08.11.2017 18:02 5,2 C 7,2 C 96 % 1017,9 hPa 0,0 l/m 3,0 km/h (1 Bft) SW 231 0 min 0,000 mm 0,0 UV-I 0 W/m 4,6 C 5,2 C 4,8 km/h (1 Bft) 98,04 %
08.11.2017 18:04 5,2 C 7,2 C 96 % 1017,9 hPa 0,0 l/m 3,3 km/h (1 Bft) SW 231 0 min 0,000 mm 0,0 UV-I 0 W/m 4,6 C 5,2 C 4,8 km/h (1 Bft) 98,08 %
08.11.2017 18:06 5,2 C 7,2 C 96 % 1017,9 hPa 0,0 l/m 2,7 km/h (1 Bft) SW 231 0 min 0,000 mm 0,0 UV-I 0 W/m 4,6 C 5,2 C 4,8 km/h (1 Bft) 97,44 %
08.11.2017 18:08 5,2 C 7,2 C 96 % 1017,9 hPa 0,0 l/m 3,9 km/h (1 Bft) SW 231 0 min 0,000 mm 0,0 UV-I 0 W/m 4,6 C 5,2 C 6,4 km/h (2 Bft) 97,56 %
08.11.2017 18:10 5,2 C 7,2 C 96 % 1017,9 hPa 0,0 l/m 2,2 km/h (1 Bft) SW 231 0 min 0,000 mm 0,0 UV-I 0 W/m 4,6 C 5,2 C 4,8 km/h (1 Bft) 94,34 %
08.11.2017 18:12 5,2 C 7,2 C 96 % 1017,9 hPa 0,0 l/m 4,5 km/h (1 Bft) SW 231 0 min 0,000 mm 0,0 UV-I 0 W/m 4,6 C 5,2 C 8,0 km/h (2 Bft) 98,00 %
08.11.2017 18:14 5,2 C 7,2 C 96 % 1017,9 hPa 0,0 l/m 4,1 km/h (1 Bft) SW 231 0 min 0,000 mm 0,0 UV-I 0 W/m 4,6 C 5,2 C 6,4 km/h (2 Bft) 98,11 %
08.11.2017 18:16 5,2 C 7,2 C 96 % 1017,9 hPa 0,0 l/m 4,0 km/h (1 Bft) S 190 0 min 0,000 mm 0,0 UV-I 0 W/m 4,6 C 5,2 C 8,0 km/h (2 Bft) 97,37 %
08.11.2017 18:18 5,2 C 7,2 C 97 % 1018,0 hPa 0,0 l/m 4,7 km/h (1 Bft) SW 215 0 min 0,000 mm 0,0 UV-I 0 W/m 4,8 C 5,2 C 8,0 km/h (2 Bft) 98,00 %
08.11.2017 18:20 5,2 C 7,2 C 96 % 1018,0 hPa 0,0 l/m 4,6 km/h (1 Bft) SW 215 0 min 0,000 mm 0,0 UV-I 0 W/m 4,6 C 5,2 C 8,0 km/h (2 Bft) 97,87 %
08.11.2017 18:22 5,2 C 7,2 C 96 % 1018,1 hPa 0,0 l/m 4,2 km/h (1 Bft) SW 215 0 min 0,000 mm 0,0 UV-I 0 W/m 4,6 C 5,2 C 6,4 km/h (2 Bft) 98,00 %
08.11.2017 18:24 5,2 C 7,2 C 96 % 1018,1 hPa 0,0 l/m 2,7 km/h (1 Bft) SW 215 0 min 0,000 mm 0,0 UV-I 0 W/m 4,6 C 5,2 C 4,8 km/h (1 Bft) 97,37 %
08.11.2017 18:26 5,2 C 7,2 C 96 % 1018,1 hPa 0,0 l/m 2,3 km/h (1 Bft) SW 215 0 min 0,000 mm 0,0 UV-I 0 W/m 4,6 C 5,2 C 4,8 km/h (1 Bft) 96,00 %
08.11.2017 18:28 5,2 C 7,2 C 96 % 1018,2 hPa 0,0 l/m 4,9 km/h (1 Bft) SW 215 0 min 0,000 mm 0,0 UV-I 0 W/m 4,6 C 5,2 C 6,4 km/h (2 Bft) 97,73 %
08.11.2017 18:30 5,2 C 7,2 C 96 % 1018,2 hPa 0,0 l/m 3,7 km/h (1 Bft) SW 215 0 min 0,000 mm 0,0 UV-I 0 W/m 4,6 C 5,2 C 4,8 km/h (1 Bft) 100,00 %
08.11.2017 18:32 5,2 C 7,2 C 96 % 1018,2 hPa 0,0 l/m 3,3 km/h (1 Bft) SW 215 0 min 0,000 mm 0,0 UV-I 0 W/m 4,6 C 5,2 C 4,8 km/h (1 Bft) 98,11 %
08.11.2017 18:34 5,2 C 7,2 C 96 % 1018,2 hPa 0,0 l/m 4,6 km/h (1 Bft) SW 215 0 min 0,000 mm 0,0 UV-I 0 W/m 4,6 C 5,2 C 6,4 km/h (2 Bft) 100,00 %
08.11.2017 18:36 5,2 C 7,2 C 96 % 1018,2 hPa 0,0 l/m 4,0 km/h (1 Bft) SW 215 0 min 0,000 mm 0,0 UV-I 0 W/m 4,6 C 5,2 C 6,4 km/h (2 Bft) 100,00 %
08.11.2017 18:38 5,2 C 7,2 C 96 % 1018,2 hPa 0,0 l/m 4,2 km/h (1 Bft) SW 215 0 min 0,000 mm 0,0 UV-I 0 W/m 4,6 C 5,2 C 6,4 km/h (2 Bft) 98,00 %
08.11.2017 18:40 5,2 C 7,2 C 96 % 1018,2 hPa 0,0 l/m 3,9 km/h (1 Bft) SW 215 0 min 0,000 mm 0,0 UV-I 0 W/m 4,6 C 5,2 C 8,0 km/h (2 Bft) 100,00 %
08.11.2017 18:42 5,2 C 7,2 C 96 % 1018,2 hPa 0,0 l/m 4,3 km/h (1 Bft) SW 215 0 min 0,000 mm 0,0 UV-I 0 W/m 4,6 C 5,2 C 6,4 km/h (2 Bft) 100,00 %
08.11.2017 18:44 5,2 C 7,2 C 96 % 1018,2 hPa 0,0 l/m 3,5 km/h (1 Bft) SW 226 0 min 0,000 mm 0,0 UV-I 0 W/m 4,6 C 5,2 C 4,8 km/h (1 Bft) 96,15 %
08.11.2017 18:46 5,2 C 7,2 C 96 % 1018,2 hPa 0,0 l/m 2,9 km/h (1 Bft) SW 226 0 min 0,000 mm 0,0 UV-I 0 W/m 4,6 C 5,2 C 4,8 km/h (1 Bft) 100,00 %
08.11.2017 18:48 5,2 C 7,2 C 96 % 1018,2 hPa 0,0 l/m 3,0 km/h (1 Bft) SW 224 0 min 0,000 mm 0,0 UV-I 0 W/m 4,6 C 5,2 C 6,4 km/h (2 Bft) 97,87 %
08.11.2017 18:50 5,2 C 7,2 C 96 % 1018,2 hPa 0,0 l/m 4,2 km/h (1 Bft) SW 224 0 min 0,000 mm 0,0 UV-I 0 W/m 4,6 C 5,2 C 6,4 km/h (2 Bft) 98,00 %
08.11.2017 18:52 5,2 C 7,2 C 96 % 1018,2 hPa 0,0 l/m 2,5 km/h (1 Bft) SW 224 0 min 0,000 mm 0,0 UV-I 0 W/m 4,6 C 5,2 C 4,8 km/h (1 Bft) 100,00 %
08.11.2017 18:54 5,2 C 7,2 C 96 % 1018,2 hPa 0,0 l/m 2,5 km/h (1 Bft) SW 224 0 min 0,000 mm 0,0 UV-I 0 W/m 4,6 C 5,2 C 4,8 km/h (1 Bft) 100,00 %
08.11.2017 18:56 5,2 C 7,2 C 96 % 1018,2 hPa 0,0 l/m 2,2 km/h (1 Bft) SW 224 0 min 0,000 mm 0,0 UV-I 0 W/m 4,6 C 5,2 C 3,2 km/h (1 Bft) 100,00 %
08.11.2017 18:58 5,2 C 7,2 C 96 % 1018,2 hPa 0,0 l/m 2,4 km/h (1 Bft) SW 224 0 min 0,000 mm 0,0 UV-I 0 W/m 4,6 C 5,2 C 4,8 km/h (1 Bft) 100,00 %
08.11.2017 19:00 5,2 C 7,2 C 96 % 1018,1 hPa 0,0 l/m 2,3 km/h (1 Bft) SW 224 0 min 0,000 mm 0,0 UV-I 0 W/m 4,6 C 5,2 C 3,2 km/h (1 Bft) 100,00 %
08.11.2017 19:02 5,2 C 7,2 C 96 % 1018,1 hPa 0,0 l/m 1,8 km/h (1 Bft) SW 224 0 min 0,000 mm 0,0 UV-I 0 W/m 4,6 C 5,2 C 3,2 km/h (1 Bft) 97,87 %
08.11.2017 19:04 5,1 C 7,2 C 96 % 1018,2 hPa 0,0 l/m 1,2 km/h (1 Bft) SW 224 0 min 0,000 mm 0,0 UV-I 0 W/m 4,5 C 5,1 C 3,2 km/h (1 Bft) 100,00 %
08.11.2017 19:06 5,1 C 7,2 C 96 % 1018,2 hPa 0,0 l/m 2,0 km/h (1 Bft) SW 224 0 min 0,000 mm 0,0 UV-I 0 W/m 4,5 C 5,1 C 3,2 km/h (1 Bft) 97,37 %
08.11.2017 19:08 5,2 C 7,2 C 96 % 1018,1 hPa 0,0 l/m 1,6 km/h (1 Bft) SW 224 0 min 0,000 mm 0,0 UV-I 0 W/m 4,6 C 5,2 C 3,2 km/h (1 Bft) 100,00 %
08.11.2017 19:10 5,1 C 7,2 C 96 % 1018,1 hPa 0,0 l/m 1,7 km/h (1 Bft) SW 224 0 min 0,000 mm 0,0 UV-I 0 W/m 4,5 C 5,1 C 3,2 km/h (1 Bft) 98,11 %
08.11.2017 19:12 5,1 C 7,2 C 96 % 1018,2 hPa 0,0 l/m 2,2 km/h (1 Bft) SW 224 0 min 0,000 mm 0,0 UV-I 0 W/m 4,5 C 5,1 C 3,2 km/h (1 Bft) 100,00 %
08.11.2017 19:14 5,1 C 7,2 C 96 % 1018,2 hPa 0,0 l/m 2,0 km/h (1 Bft) SW 224 0 min 0,000 mm 0,0 UV-I 0 W/m 4,5 C 5,1 C 3,2 km/h (1 Bft) 100,00 %
08.11.2017 19:16 5,1 C 7,2 C 96 % 1018,2 hPa 0,0 l/m 2,8 km/h (1 Bft) SW 224 0 min 0,000 mm 0,0 UV-I 0 W/m 4,5 C 5,1 C 4,8 km/h (1 Bft) 96,00 %
08.11.2017 19:18 5,1 C 7,2 C 96 % 1018,2 hPa 0,0 l/m 2,3 km/h (1 Bft) SW 224 0 min 0,000 mm 0,0 UV-I 0 W/m 4,5 C 5,1 C 3,2 km/h (1 Bft) 100,00 %
08.11.2017 19:20 5,1 C 7,2 C 96 % 1018,1 hPa 0,0 l/m 2,0 km/h (1 Bft) SW 224 0 min 0,000 mm 0,0 UV-I 0 W/m 4,5 C 5,1 C 3,2 km/h (1 Bft) 100,00 %
08.11.2017 19:22 5,1 C 7,2 C 96 % 1018,1 hPa 0,0 l/m 2,6 km/h (1 Bft) SW 224 0 min 0,000 mm 0,0 UV-I 0 W/m 4,5 C 5,1 C 4,8 km/h (1 Bft) 100,00 %
08.11.2017 19:24 5,0 C 7,2 C 96 % 1018,2 hPa 0,0 l/m 1,8 km/h (1 Bft) SW 224 0 min 0,000 mm 0,0 UV-I 0 W/m 4,4 C 5,0 C 4,8 km/h (1 Bft) 98,00 %
08.11.2017 19:26 5,1 C 7,2 C 96 % 1018,2 hPa 0,0 l/m 2,7 km/h (1 Bft) SW 224 0 min 0,000 mm 0,0 UV-I 0 W/m 4,5 C 5,1 C 4,8 km/h (1 Bft) 100,00 %
08.11.2017 19:28 5,0 C 7,2 C 96 % 1018,2 hPa 0,0 l/m 1,0 km/h (0 Bft) SW 224 0 min 0,000 mm 0,0 UV-I 0 W/m 4,4 C 5,0 C 3,2 km/h (1 Bft) 98,21 %
08.11.2017 19:30 5,1 C 7,2 C 96 % 1018,2 hPa 0,0 l/m 0,9 km/h (0 Bft) SW 224 0 min 0,000 mm 0,0 UV-I 0 W/m 4,5 C 5,1 C 3,2 km/h (1 Bft) 100,00 %
08.11.2017 19:32 5,1 C 7,2 C 96 % 1018,2 hPa 0,0 l/m 0,4 km/h (0 Bft) SW 224 0 min 0,000 mm 0,0 UV-I 0 W/m 4,5 C 5,1 C 1,6 km/h (1 Bft) 100,00 %
08.11.2017 19:34 5,1 C 7,2 C 96 % 1018,3 hPa 0,0 l/m 0,5 km/h (0 Bft) SW 224 0 min 0,000 mm 0,0 UV-I 0 W/m 4,5 C 5,1 C 3,2 km/h (1 Bft) 100,00 %
08.11.2017 19:36 5,1 C 7,2 C 96 % 1018,4 hPa 0,0 l/m 0,1 km/h (0 Bft) SW 224 0 min 0,000 mm 0,0 UV-I 0 W/m 4,5 C 5,1 C 1,6 km/h (1 Bft) 100,00 %
08.11.2017 19:38 5,1 C 7,2 C 96 % 1018,4 hPa 0,0 l/m 1,0 km/h (0 Bft) SW 224 0 min 0,000 mm 0,0 UV-I 0 W/m 4,5 C 5,1 C 3,2 km/h (1 Bft) 100,00 %
08.11.2017 19:40 5,0 C 7,2 C 96 % 1018,4 hPa 0,0 l/m 0,4 km/h (0 Bft) SW 224 0 min 0,000 mm 0,0 UV-I 0 W/m 4,4 C 5,0 C 1,6 km/h (1 Bft) 100,00 %
08.11.2017 19:42 5,0 C 7,2 C 96 % 1018,4 hPa 0,0 l/m 0,8 km/h (0 Bft) SW 224 0 min 0,000 mm 0,0 UV-I 0 W/m 4,4 C 5,0 C 1,6 km/h (1 Bft) 98,00 %
08.11.2017 19:44 5,0 C 7,2 C 96 % 1018,4 hPa 0,0 l/m 0,0 km/h (0 Bft) SW 224 0 min 0,000 mm 0,0 UV-I 0 W/m 4,4 C 5,0 C 0,0 km/h (0 Bft) 98,21 %
08.11.2017 19:46 5,0 C 7,2 C 96 % 1018,4 hPa 0,0 l/m 0,0 km/h (0 Bft) SW 224 0 min 0,000 mm 0,0 UV-I 0 W/m 4,4 C 5,0 C 0,0 km/h (0 Bft) 97,87 %
08.11.2017 19:48 4,9 C 7,2 C 96 % 1018,4 hPa 0,0 l/m 0,0 km/h (0 Bft) SW 224 0 min 0,000 mm 0,0 UV-I 0 W/m 4,3 C 4,9 C 0,0 km/h (0 Bft) 100,00 %
08.11.2017 19:50 5,0 C 7,2 C 96 % 1018,4 hPa 0,0 l/m 0,0 km/h (0 Bft) SW 224 0 min 0,000 mm 0,0 UV-I 0 W/m 4,4 C 5,0 C 0,0 km/h (0 Bft) 97,87 %
08.11.2017 19:52 5,0 C 7,2 C 96 % 1018,4 hPa 0,0 l/m 0,1 km/h (0 Bft) SW 224 0 min 0,000 mm 0,0 UV-I 0 W/m 4,4 C 5,0 C 1,6 km/h (1 Bft) 98,11 %
08.11.2017 19:54 5,0 C 7,2 C 96 % 1018,4 hPa 0,0 l/m 0,0 km/h (0 Bft) SW 224 0 min 0,000 mm 0,0 UV-I 0 W/m 4,4 C 5,0 C 1,6 km/h (1 Bft) 98,00 %
08.11.2017 19:56 5,0 C 7,2 C 96 % 1018,4 hPa 0,0 l/m 0,0 km/h (0 Bft) SW 224 0 min 0,000 mm 0,0 UV-I 0 W/m 4,4 C 5,0 C 0,0 km/h (0 Bft) 97,73 %
08.11.2017 19:58 5,0 C 7,2 C 96 % 1018,4 hPa 0,0 l/m 0,0 km/h (0 Bft) SW 224 0 min 0,000 mm 0,0 UV-I 0 W/m 4,4 C 5,0 C 0,0 km/h (0 Bft) 97,87 %
08.11.2017 20:00 4,9 C 7,2 C 96 % 1018,5 hPa 0,0 l/m 0,0 km/h (0 Bft) SW 224 0 min 0,000 mm 0,0 UV-I 0 W/m 4,3 C 4,9 C 0,0 km/h (0 Bft) 98,00 %
08.11.2017 20:03 4,9 C 7,2 C 96 % 1018,5 hPa 0,0 l/m 0,5 km/h (0 Bft) SW 224 0 min 0,000 mm 0,0 UV-I 0 W/m 4,3 C 4,9 C 1,6 km/h (1 Bft) 96,77 %
08.11.2017 20:04 4,9 C 7,2 C 96 % 1018,5 hPa 0,0 l/m 1,3 km/h (1 Bft) SW 224 0 min 0,000 mm 0,0 UV-I 0 W/m 4,3 C 4,9 C 1,6 km/h (1 Bft) 100,00 %
08.11.2017 20:06 4,9 C 7,2 C 96 % 1018,5 hPa 0,0 l/m 0,6 km/h (0 Bft) SW 224 0 min 0,000 mm 0,0 UV-I 0 W/m 4,3 C 4,9 C 1,6 km/h (1 Bft) 98,00 %
08.11.2017 20:08 4,9 C 7,2 C 96 % 1018,5 hPa 0,0 l/m 0,0 km/h (0 Bft) SW 224 0 min 0,000 mm 0,0 UV-I 0 W/m 4,3 C 4,9 C 1,6 km/h (1 Bft) 95,74 %
08.11.2017 20:10 4,9 C 7,2 C 96 % 1018,5 hPa 0,0 l/m 0,3 km/h (0 Bft) SW 224 0 min 0,000 mm 0,0 UV-I 0 W/m 4,3 C 4,9 C 1,6 km/h (1 Bft) 95,12 %
08.11.2017 20:12 4,9 C 7,2 C 96 % 1018,5 hPa 0,0 l/m 0,7 km/h (0 Bft) SW 224 0 min 0,000 mm 0,0 UV-I 0 W/m 4,3 C 4,9 C 1,6 km/h (1 Bft) 98,11 %
08.11.2017 20:14 4,9 C 7,2 C 97 % 1018,5 hPa 0,0 l/m 0,6 km/h (0 Bft) SW 224 0 min 0,000 mm 0,0 UV-I 0 W/m 4,5 C 4,9 C 1,6 km/h (1 Bft) 97,37 %
08.11.2017 20:16 4,9 C 7,2 C 97 % 1018,5 hPa 0,0 l/m 0,6 km/h (0 Bft) SW 224 0 min 0,000 mm 0,0 UV-I 0 W/m 4,5 C 4,9 C 1,6 km/h (1 Bft) 95,74 %
08.11.2017 20:18 4,9 C 7,2 C 97 % 1018,6 hPa 0,0 l/m 0,0 km/h (0 Bft) SW 224 0 min 0,000 mm 0,0 UV-I 0 W/m 4,5 C 4,9 C 1,6 km/h (1 Bft) 97,87 %
08.11.2017 20:20 4,9 C 7,2 C 97 % 1018,5 hPa 0,0 l/m 0,0 km/h (0 Bft) SW 224 0 min 0,000 mm 0,0 UV-I 0 W/m 4,5 C 4,9 C 0,0 km/h (0 Bft) 96,00 %
08.11.2017 20:22 4,9 C 7,2 C 97 % 1018,6 hPa 0,0 l/m 0,0 km/h (0 Bft) SW 224 0 min 0,000 mm 0,0 UV-I 0 W/m 4,5 C 4,9 C 0,0 km/h (0 Bft) 92,00 %
08.11.2017 20:24 5,0 C 7,2 C 97 % 1018,6 hPa 0,0 l/m 0,4 km/h (0 Bft) SW 224 0 min 0,000 mm 0,0 UV-I 0 W/m 4,6 C 5,0 C 1,6 km/h (1 Bft) 94,00 %
08.11.2017 20:26 5,0 C 7,2 C 96 % 1018,6 hPa 0,0 l/m 0,9 km/h (0 Bft) SW 224 0 min 0,000 mm 0,0 UV-I 0 W/m 4,4 C 5,0 C 1,6 km/h (1 Bft) 94,74 %
08.11.2017 20:28 5,0 C 7,2 C 96 % 1018,6 hPa 0,0 l/m 0,4 km/h (0 Bft) SW 224 0 min 0,000 mm 0,0 UV-I 0 W/m 4,4 C 5,0 C 1,6 km/h (1 Bft) 94,00 %
08.11.2017 20:30 5,0 C 7,2 C 97 % 1018,7 hPa 0,0 l/m 0,4 km/h (0 Bft) SW 224 0 min 0,000 mm 0,0 UV-I 0 W/m 4,6 C 5,0 C 1,6 km/h (1 Bft) 95,74 %
08.11.2017 20:32 5,1 C 7,2 C 97 % 1018,7 hPa 0,0 l/m 0,6 km/h (0 Bft) SW 224 0 min 0,000 mm 0,0 UV-I 0 W/m 4,7 C 5,1 C 3,2 km/h (1 Bft) 97,87 %
08.11.2017 20:34 5,1 C 7,2 C 97 % 1018,7 hPa 0,0 l/m 0,0 km/h (0 Bft) SW 224 0 min 0,000 mm 0,0 UV-I 0 W/m 4,7 C 5,1 C 1,6 km/h (1 Bft) 100,00 %
08.11.2017 20:36 5,1 C 7,2 C 97 % 1018,7 hPa 0,0 l/m 0,1 km/h (0 Bft) SW 224 0 min 0,000 mm 0,0 UV-I 0 W/m 4,7 C 5,1 C 1,6 km/h (1 Bft) 95,52 %
08.11.2017 20:38 5,0 C 7,2 C 97 % 1018,7 hPa 0,0 l/m 0,0 km/h (0 Bft) SW 224 0 min 0,000 mm 0,0 UV-I 0 W/m 4,6 C 5,0 C 0,0 km/h (0 Bft) 97,92 %
08.11.2017 20:40 5,1 C 7,2 C 97 % 1018,7 hPa 0,0 l/m 0,0 km/h (0 Bft) SW 224 0 min 0,000 mm 0,0 UV-I 0 W/m 4,7 C 5,1 C 0,0 km/h (0 Bft) 97,87 %
08.11.2017 20:42 5,1 C 7,2 C 97 % 1018,7 hPa 0,0 l/m 0,0 km/h (0 Bft) SW 224 0 min 0,000 mm 0,0 UV-I 0 W/m 4,7 C 5,1 C 0,0 km/h (0 Bft) 96,00 %
08.11.2017 20:44 5,0 C 7,2 C 96 % 1018,7 hPa 0,0 l/m 0,0 km/h (0 Bft) SW 224 0 min 0,000 mm 0,0 UV-I 0 W/m 4,4 C 5,0 C 0,0 km/h (0 Bft) 95,74 %
08.11.2017 20:46 5,0 C 7,2 C 96 % 1018,8 hPa 0,0 l/m 0,0 km/h (0 Bft) SW 224 0 min 0,000 mm 0,0 UV-I 0 W/m 4,4 C 5,0 C 0,0 km/h (0 Bft) 96,00 %
08.11.2017 20:48 5,0 C 7,2 C 96 % 1018,8 hPa 0,0 l/m 0,0 km/h (0 Bft) SW 224 0 min 0,000 mm 0,0 UV-I 0 W/m 4,4 C 5,0 C 0,0 km/h (0 Bft) 97,37 %
08.11.2017 20:50 5,0 C 7,2 C 97 % 1018,8 hPa 0,0 l/m 0,0 km/h (0 Bft) SW 224 0 min 0,000 mm 0,0 UV-I 0 W/m 4,6 C 5,0 C 0,0 km/h (0 Bft) 94,34 %
08.11.2017 20:52 5,0 C 7,2 C 97 % 1018,8 hPa 0,0 l/m 0,0 km/h (0 Bft) SW 224 0 min 0,000 mm 0,0 UV-I 0 W/m 4,6 C 5,0 C 0,0 km/h (0 Bft) 98,00 %
08.11.2017 20:54 5,0 C 7,2 C 97 % 1018,9 hPa 0,0 l/m 0,0 km/h (0 Bft) SW 224 0 min 0,000 mm 0,0 UV-I 0 W/m 4,6 C 5,0 C 0,0 km/h (0 Bft) 97,14 %
08.11.2017 20:56 5,0 C 7,2 C 97 % 1018,8 hPa 0,0 l/m 0,0 km/h (0 Bft) SW 224 0 min 0,000 mm 0,0 UV-I 0 W/m 4,6 C 5,0 C 0,0 km/h (0 Bft) 97,96 %
08.11.2017 20:58 5,0 C 7,8 C 97 % 1018,9 hPa 0,0 l/m 0,0 km/h (0 Bft) SW 224 0 min 0,000 mm 0,0 UV-I 0 W/m 4,6 C 5,0 C 0,0 km/h (0 Bft) 98,11 %
08.11.2017 21:00 5,0 C 7,8 C 97 % 1018,9 hPa 0,0 l/m 0,0 km/h (0 Bft) SW 224 0 min 0,000 mm 0,0 UV-I 0 W/m 4,6 C 5,0 C 0,0 km/h (0 Bft) 95,74 %
08.11.2017 21:02 5,1 C 7,2 C 97 % 1018,9 hPa 0,0 l/m 0,0 km/h (0 Bft) SW 224 0 min 0,000 mm 0,0 UV-I 0 W/m 4,7 C 5,1 C 0,0 km/h (0 Bft) 97,56 %
08.11.2017 21:04 5,1 C 7,2 C 97 % 1018,9 hPa 0,0 l/m 0,0 km/h (0 Bft) SW 224 0 min 0,000 mm 0,0 UV-I 0 W/m 4,7 C 5,1 C 1,6 km/h (1 Bft) 97,87 %
08.11.2017 21:06 5,1 C 7,8 C 97 % 1018,9 hPa 0,0 l/m 0,0 km/h (0 Bft) SW 224 0 min 0,000 mm 0,0 UV-I 0 W/m 4,7 C 5,1 C 0,0 km/h (0 Bft) 97,87 %
08.11.2017 21:08 5,0 C 7,2 C 97 % 1019,0 hPa 0,0 l/m 0,0 km/h (0 Bft) SW 224 0 min 0,000 mm 0,0 UV-I 0 W/m 4,6 C 5,0 C 0,0 km/h (0 Bft) 96,00 %
08.11.2017 21:10 5,1 C 7,2 C 97 % 1019,0 hPa 0,0 l/m 0,0 km/h (0 Bft) SW 224 0 min 0,000 mm 0,0 UV-I 0 W/m 4,7 C 5,1 C 0,0 km/h (0 Bft) 97,87 %
08.11.2017 21:12 5,1 C 7,2 C 97 % 1019,0 hPa 0,0 l/m 0,0 km/h (0 Bft) SW 224 0 min 0,000 mm 0,0 UV-I 0 W/m 4,7 C 5,1 C 0,0 km/h (0 Bft) 98,00 %
08.11.2017 21:14 5,1 C 7,2 C 97 % 1019,0 hPa 0,0 l/m 0,0 km/h (0 Bft) SW 224 0 min 0,000 mm 0,0 UV-I 0 W/m 4,7 C 5,1 C 1,6 km/h (1 Bft) 97,22 %
08.11.2017 21:16 5,1 C 7,2 C 97 % 1019,0 hPa 0,0 l/m 1,6 km/h (1 Bft) SW 224 0 min 0,000 mm 0,0 UV-I 0 W/m 4,7 C 5,1 C 3,2 km/h (1 Bft) 98,00 %
08.11.2017 21:18 5,1 C 7,2 C 97 % 1019,0 hPa 0,0 l/m 1,3 km/h (1 Bft) SW 224 0 min 0,000 mm 0,0 UV-I 0 W/m 4,7 C 5,1 C 3,2 km/h (1 Bft) 95,74 %
08.11.2017 21:20 5,1 C 7,2 C 97 % 1019,0 hPa 0,0 l/m 0,9 km/h (0 Bft) SW 224 0 min 0,000 mm 0,0 UV-I 0 W/m 4,7 C 5,1 C 1,6 km/h (1 Bft) 97,67 %
08.11.2017 21:22 5,1 C 7,2 C 97 % 1019,1 hPa 0,0 l/m 1,4 km/h (1 Bft) SW 224 0 min 0,000 mm 0,0 UV-I 0 W/m 4,7 C 5,1 C 3,2 km/h (1 Bft) 96,23 %
08.11.2017 21:24 5,1 C 7,2 C 97 % 1019,0 hPa 0,0 l/m 1,3 km/h (1 Bft) SW 224 0 min 0,000 mm 0,0 UV-I 0 W/m 4,7 C 5,1 C 3,2 km/h (1 Bft) 97,56 %
08.11.2017 21:26 5,1 C 7,2 C 97 % 1019,1 hPa 0,0 l/m 0,0 km/h (0 Bft) SW 224 0 min 0,000 mm 0,0 UV-I 0 W/m 4,7 C 5,1 C 0,0 km/h (0 Bft) 98,00 %
08.11.2017 21:28 5,1 C 7,8 C 97 % 1019,1 hPa 0,0 l/m 0,0 km/h (0 Bft) SW 224 0 min 0,000 mm 0,0 UV-I 0 W/m 4,7 C 5,1 C 0,0 km/h (0 Bft) 100,00 %
08.11.2017 21:30 5,1 C 7,8 C 97 % 1019,1 hPa 0,0 l/m 0,2 km/h (0 Bft) SW 224 0 min 0,000 mm 0,0 UV-I 0 W/m 4,7 C 5,1 C 1,6 km/h (1 Bft) 100,00 %
08.11.2017 21:32 5,1 C 7,8 C 97 % 1019,1 hPa 0,0 l/m 0,0 km/h (0 Bft) SW 224 0 min 0,000 mm 0,0 UV-I 0 W/m 4,7 C 5,1 C 1,6 km/h (1 Bft) 98,00 %
08.11.2017 21:34 5,1 C 7,2 C 97 % 1019,1 hPa 0,0 l/m 1,2 km/h (1 Bft) SW 224 0 min 0,000 mm 0,0 UV-I 0 W/m 4,7 C 5,1 C 1,6 km/h (1 Bft) 100,00 %
08.11.2017 21:36 5,1 C 7,2 C 97 % 1019,1 hPa 0,0 l/m 1,1 km/h (1 Bft) SW 224 0 min 0,000 mm 0,0 UV-I 0 W/m 4,7 C 5,1 C 3,2 km/h (1 Bft) 100,00 %
08.11.2017 21:38 5,1 C 7,2 C 97 % 1019,1 hPa 0,0 l/m 0,4 km/h (0 Bft) SW 224 0 min 0,000 mm 0,0 UV-I 0 W/m 4,7 C 5,1 C 1,6 km/h (1 Bft) 100,00 %
08.11.2017 21:40 5,1 C 7,8 C 97 % 1019,1 hPa 0,0 l/m 0,0 km/h (0 Bft) SW 224 0 min 0,000 mm 0,0 UV-I 0 W/m 4,7 C 5,1 C 0,0 km/h (0 Bft) 100,00 %
08.11.2017 21:42 5,2 C 7,8 C 97 % 1019,1 hPa 0,0 l/m 0,0 km/h (0 Bft) SW 224 0 min 0,000 mm 0,0 UV-I 0 W/m 4,8 C 5,2 C 0,0 km/h (0 Bft) 98,00 %
08.11.2017 21:44 5,2 C 7,2 C 97 % 1019,1 hPa 0,0 l/m 0,0 km/h (0 Bft) SW 224 0 min 0,000 mm 0,0 UV-I 0 W/m 4,8 C 5,2 C 0,0 km/h (0 Bft) 97,87 %
08.11.2017 21:46 5,2 C 7,2 C 97 % 1019,1 hPa 0,0 l/m 0,0 km/h (0 Bft) SW 224 0 min 0,000 mm 0,0 UV-I 0 W/m 4,8 C 5,2 C 1,6 km/h (1 Bft) 100,00 %
08.11.2017 21:48 5,2 C 7,2 C 97 % 1019,1 hPa 0,0 l/m 0,1 km/h (0 Bft) SW 224 0 min 0,000 mm 0,0 UV-I 0 W/m 4,8 C 5,2 C 1,6 km/h (1 Bft) 100,00 %
08.11.2017 21:50 5,2 C 7,2 C 97 % 1019,1 hPa 0,0 l/m 0,2 km/h (0 Bft) SW 224 0 min 0,000 mm 0,0 UV-I 0 W/m 4,8 C 5,2 C 1,6 km/h (1 Bft) 100,00 %
08.11.2017 21:52 5,2 C 7,8 C 97 % 1019,1 hPa 0,0 l/m 0,6 km/h (0 Bft) SW 224 0 min 0,000 mm 0,0 UV-I 0 W/m 4,8 C 5,2 C 1,6 km/h (1 Bft) 100,00 %
08.11.2017 21:54 5,2 C 7,8 C 97 % 1019,1 hPa 0,0 l/m 0,2 km/h (0 Bft) SW 224 0 min 0,000 mm 0,0 UV-I 0 W/m 4,8 C 5,2 C 1,6 km/h (1 Bft) 100,00 %
08.11.2017 21:56 5,2 C 7,8 C 97 % 1019,1 hPa 0,0 l/m 0,0 km/h (0 Bft) SW 224 0 min 0,000 mm 0,0 UV-I 0 W/m 4,8 C 5,2 C 0,0 km/h (0 Bft) 95,74 %
08.11.2017 21:58 5,1 C 7,8 C 97 % 1019,1 hPa 0,0 l/m 0,0 km/h (0 Bft) SW 224 0 min 0,000 mm 0,0 UV-I 0 W/m 4,7 C 5,1 C 0,0 km/h (0 Bft) 95,74 %
08.11.2017 22:00 5,1 C 7,8 C 97 % 1019,1 hPa 0,0 l/m 0,0 km/h (0 Bft) SW 224 0 min 0,000 mm 0,0 UV-I 0 W/m 4,7 C 5,1 C 0,0 km/h (0 Bft) 95,24 %
08.11.2017 22:03 5,1 C 7,8 C 97 % 1019,1 hPa 0,0 l/m 0,0 km/h (0 Bft) SW 224 0 min 0,000 mm 0,0 UV-I 0 W/m 4,7 C 5,1 C 0,0 km/h (0 Bft) 97,37 %
08.11.2017 22:04 5,1 C 7,8 C 97 % 1019,1 hPa 0,0 l/m 0,0 km/h (0 Bft) SW 224 0 min 0,000 mm 0,0 UV-I 0 W/m 4,7 C 5,1 C 0,0 km/h (0 Bft) 100,00 %
08.11.2017 22:06 5,1 C 7,2 C 97 % 1019,1 hPa 0,0 l/m 0,0 km/h (0 Bft) SW 224 0 min 0,000 mm 0,0 UV-I 0 W/m 4,7 C 5,1 C 1,6 km/h (1 Bft) 92,11 %
08.11.2017 22:08 5,0 C 7,2 C 97 % 1019,1 hPa 0,0 l/m 0,0 km/h (0 Bft) SW 224 0 min 0,000 mm 0,0 UV-I 0 W/m 4,6 C 5,0 C 0,0 km/h (0 Bft) 97,87 %
08.11.2017 22:10 4,9 C 7,8 C 97 % 1019,0 hPa 0,0 l/m 0,2 km/h (0 Bft) SW 224 0 min 0,000 mm 0,0 UV-I 0 W/m 4,5 C 4,9 C 1,6 km/h (1 Bft) 97,87 %
08.11.2017 22:12 4,9 C 7,8 C 97 % 1019,0 hPa 0,0 l/m 0,0 km/h (0 Bft) SW 224 0 min 0,000 mm 0,0 UV-I 0 W/m 4,5 C 4,9 C 0,0 km/h (0 Bft) 94,34 %
08.11.2017 22:14 4,9 C 7,8 C 97 % 1019,0 hPa 0,0 l/m 0,0 km/h (0 Bft) SW 224 0 min 0,000 mm 0,0 UV-I 0 W/m 4,5 C 4,9 C 0,0 km/h (0 Bft) 98,00 %
08.11.2017 22:16 4,9 C 7,8 C 97 % 1019,0 hPa 0,0 l/m 0,0 km/h (0 Bft) SW 224 0 min 0,000 mm 0,0 UV-I 0 W/m 4,5 C 4,9 C 1,6 km/h (1 Bft) 97,37 %
08.11.2017 22:18 4,8 C 7,8 C 97 % 1019,1 hPa 0,0 l/m 0,3 km/h (0 Bft) SW 224 0 min 0,000 mm 0,0 UV-I 0 W/m 4,4 C 4,8 C 1,6 km/h (1 Bft) 97,87 %
08.11.2017 22:20 4,7 C 7,8 C 97 % 1019,1 hPa 0,0 l/m 0,3 km/h (0 Bft) SW 224 0 min 0,000 mm 0,0 UV-I 0 W/m 4,3 C 4,7 C 1,6 km/h (1 Bft) 94,34 %
08.11.2017 22:22 4,7 C 7,8 C 97 % 1019,1 hPa 0,0 l/m 1,2 km/h (1 Bft) SW 224 0 min 0,000 mm 0,0 UV-I 0 W/m 4,3 C 4,7 C 3,2 km/h (1 Bft) 97,56 %
08.11.2017 22:24 4,7 C 7,8 C 97 % 1019,1 hPa 0,0 l/m 0,3 km/h (0 Bft) SW 224 0 min 0,000 mm 0,0 UV-I 0 W/m 4,3 C 4,7 C 1,6 km/h (1 Bft) 98,00 %
08.11.2017 22:26 4,7 C 7,2 C 97 % 1019,2 hPa 0,0 l/m 0,1 km/h (0 Bft) SW 224 0 min 0,000 mm 0,0 UV-I 0 W/m 4,3 C 4,7 C 1,6 km/h (1 Bft) 96,23 %
08.11.2017 22:28 4,8 C 7,8 C 97 % 1019,2 hPa 0,0 l/m 1,4 km/h (1 Bft) SW 224 0 min 0,000 mm 0,0 UV-I 0 W/m 4,4 C 4,8 C 4,8 km/h (1 Bft) 97,37 %
08.11.2017 22:30 4,8 C 7,8 C 97 % 1019,2 hPa 0,0 l/m 1,9 km/h (1 Bft) S-SW 194 0 min 0,000 mm 0,0 UV-I 0 W/m 4,4 C 4,8 C 4,8 km/h (1 Bft) 94,00 %
08.11.2017 22:32 4,8 C 7,8 C 97 % 1019,2 hPa 0,0 l/m 1,5 km/h (1 Bft) S-SW 194 0 min 0,000 mm 0,0 UV-I 0 W/m 4,4 C 4,8 C 3,2 km/h (1 Bft) 98,11 %
08.11.2017 22:34 4,8 C 7,8 C 97 % 1019,2 hPa 0,0 l/m 2,3 km/h (1 Bft) S 184 0 min 0,000 mm 0,0 UV-I 0 W/m 4,4 C 4,8 C 4,8 km/h (1 Bft) 100,00 %
08.11.2017 22:36 4,9 C 7,8 C 97 % 1019,2 hPa 0,0 l/m 2,1 km/h (1 Bft) S 177 0 min 0,000 mm 0,0 UV-I 0 W/m 4,5 C 4,9 C 3,2 km/h (1 Bft) 100,00 %
08.11.2017 22:38 4,9 C 7,8 C 97 % 1019,2 hPa 0,0 l/m 2,3 km/h (1 Bft) S 176 0 min 0,000 mm 0,0 UV-I 0 W/m 4,5 C 4,9 C 4,8 km/h (1 Bft) 100,00 %
08.11.2017 22:40 4,8 C 7,8 C 97 % 1019,2 hPa 0,0 l/m 2,4 km/h (1 Bft) S 177 0 min 0,000 mm 0,0 UV-I 0 W/m 4,4 C 4,8 C 6,4 km/h (2 Bft) 97,37 %
08.11.2017 22:42 4,9 C 7,8 C 97 % 1019,1 hPa 0,0 l/m 2,8 km/h (1 Bft) S-SW 192 0 min 0,000 mm 0,0 UV-I 0 W/m 4,5 C 4,9 C 6,4 km/h (2 Bft) 100,00 %
08.11.2017 22:44 4,9 C 7,8 C 97 % 1019,1 hPa 0,0 l/m 2,4 km/h (1 Bft) S-SW 192 0 min 0,000 mm 0,0 UV-I 0 W/m 4,5 C 4,9 C 4,8 km/h (1 Bft) 100,00 %
08.11.2017 22:46 4,9 C 7,8 C 97 % 1019,1 hPa 0,0 l/m 2,2 km/h (1 Bft) S-SW 192 0 min 0,000 mm 0,0 UV-I 0 W/m 4,5 C 4,9 C 3,2 km/h (1 Bft) 100,00 %
08.11.2017 22:48 4,8 C 7,8 C 97 % 1019,1 hPa 0,0 l/m 2,9 km/h (1 Bft) S-SW 192 0 min 0,000 mm 0,0 UV-I 0 W/m 4,4 C 4,8 C 4,8 km/h (1 Bft) 97,56 %
08.11.2017 22:50 4,8 C 7,8 C 97 % 1019,2 hPa 0,0 l/m 2,0 km/h (1 Bft) S-SW 192 0 min 0,000 mm 0,0 UV-I 0 W/m 4,4 C 4,8 C 4,8 km/h (1 Bft) 100,00 %
08.11.2017 22:52 4,9 C 7,8 C 97 % 1019,2 hPa 0,0 l/m 1,4 km/h (1 Bft) S-SW 192 0 min 0,000 mm 0,0 UV-I 0 W/m 4,5 C 4,9 C 3,2 km/h (1 Bft) 100,00 %
08.11.2017 22:54 4,9 C 7,8 C 97 % 1019,2 hPa 0,0 l/m 1,6 km/h (1 Bft) S 190 0 min 0,000 mm 0,0 UV-I 0 W/m 4,5 C 4,9 C 3,2 km/h (1 Bft) 100,00 %
08.11.2017 22:56 5,0 C 7,8 C 97 % 1019,2 hPa 0,0 l/m 1,1 km/h (1 Bft) S 190 0 min 0,000 mm 0,0 UV-I 0 W/m 4,6 C 5,0 C 3,2 km/h (1 Bft) 100,00 %
08.11.2017 22:58 5,1 C 7,8 C 97 % 1019,2 hPa 0,0 l/m 1,3 km/h (1 Bft) S 190 0 min 0,000 mm 0,0 UV-I 0 W/m 4,7 C 5,1 C 3,2 km/h (1 Bft) 100,00 %
08.11.2017 23:00 5,1 C 7,8 C 97 % 1019,3 hPa 0,0 l/m 1,4 km/h (1 Bft) S 181 0 min 0,000 mm 0,0 UV-I 0 W/m 4,7 C 5,1 C 4,8 km/h (1 Bft) 100,00 %
08.11.2017 23:02 5,1 C 7,8 C 97 % 1019,2 hPa 0,0 l/m 0,6 km/h (0 Bft) S 181 0 min 0,000 mm 0,0 UV-I 0 W/m 4,7 C 5,1 C 1,6 km/h (1 Bft) 95,74 %
08.11.2017 23:04 5,2 C 7,8 C 97 % 1019,3 hPa 0,0 l/m 0,8 km/h (0 Bft) S 181 0 min 0,000 mm 0,0 UV-I 0 W/m 4,8 C 5,2 C 1,6 km/h (1 Bft) 100,00 %
08.11.2017 23:06 5,2 C 7,8 C 97 % 1019,3 hPa 0,0 l/m 0,6 km/h (0 Bft) S 181 0 min 0,000 mm 0,0 UV-I 0 W/m 4,8 C 5,2 C 1,6 km/h (1 Bft) 100,00 %
08.11.2017 23:08 5,2 C 7,8 C 97 % 1019,3 hPa 0,0 l/m 0,2 km/h (0 Bft) S 181 0 min 0,000 mm 0,0 UV-I 0 W/m 4,8 C 5,2 C 1,6 km/h (1 Bft) 100,00 %
08.11.2017 23:10 5,2 C 7,8 C 97 % 1019,3 hPa 0,0 l/m 1,4 km/h (1 Bft) S 181 0 min 0,000 mm 0,0 UV-I 0 W/m 4,8 C 5,2 C 3,2 km/h (1 Bft) 100,00 %
08.11.2017 23:12 5,2 C 7,8 C 97 % 1019,3 hPa 0,0 l/m 0,6 km/h (0 Bft) S 181 0 min 0,000 mm 0,0 UV-I 0 W/m 4,8 C 5,2 C 1,6 km/h (1 Bft) 100,00 %
08.11.2017 23:14 5,2 C 7,8 C 97 % 1019,3 hPa 0,0 l/m 0,5 km/h (0 Bft) S 181 0 min 0,000 mm 0,0 UV-I 0 W/m 4,8 C 5,2 C 1,6 km/h (1 Bft) 100,00 %
08.11.2017 23:16 5,1 C 7,8 C 97 % 1019,3 hPa 0,0 l/m 0,0 km/h (0 Bft) S 181 0 min 0,000 mm 0,0 UV-I 0 W/m 4,7 C 5,1 C 0,0 km/h (0 Bft) 100,00 %
08.11.2017 23:18 5,0 C 7,8 C 97 % 1019,3 hPa 0,0 l/m 0,0 km/h (0 Bft) S 181 0 min 0,000 mm 0,0 UV-I 0 W/m 4,6 C 5,0 C 0,0 km/h (0 Bft) 97,87 %
08.11.2017 23:20 5,0 C 7,8 C 97 % 1019,3 hPa 0,0 l/m 0,0 km/h (0 Bft) S 181 0 min 0,000 mm 0,0 UV-I 0 W/m 4,6 C 5,0 C 0,0 km/h (0 Bft) 98,04 %
08.11.2017 23:22 5,0 C 7,8 C 97 % 1019,3 hPa 0,0 l/m 0,0 km/h (0 Bft) S 181 0 min 0,000 mm 0,0 UV-I 0 W/m 4,6 C 5,0 C 0,0 km/h (0 Bft) 97,78 %
08.11.2017 23:24 5,0 C 7,8 C 97 % 1019,3 hPa 0,0 l/m 0,0 km/h (0 Bft) S 181 0 min 0,000 mm 0,0 UV-I 0 W/m 4,6 C 5,0 C 0,0 km/h (0 Bft) 100,00 %
08.11.2017 23:26 5,1 C 7,8 C 97 % 1019,3 hPa 0,0 l/m 0,0 km/h (0 Bft) S 181 0 min 0,000 mm 0,0 UV-I 0 W/m 4,7 C 5,1 C 1,6 km/h (1 Bft) 100,00 %
08.11.2017 23:28 5,1 C 7,8 C 97 % 1019,4 hPa 0,0 l/m 0,1 km/h (0 Bft) S 181 0 min 0,000 mm 0,0 UV-I 0 W/m 4,7 C 5,1 C 1,6 km/h (1 Bft) 100,00 %
08.11.2017 23:30 5,1 C 7,8 C 97 % 1019,4 hPa 0,0 l/m 0,4 km/h (0 Bft) S 181 0 min 0,000 mm 0,0 UV-I 0 W/m 4,7 C 5,1 C 1,6 km/h (1 Bft) 100,00 %
08.11.2017 23:32 5,1 C 7,8 C 97 % 1019,4 hPa 0,0 l/m 1,5 km/h (1 Bft) S 181 0 min 0,000 mm 0,0 UV-I 0 W/m 4,7 C 5,1 C 3,2 km/h (1 Bft) 100,00 %
08.11.2017 23:34 5,1 C 7,8 C 97 % 1019,5 hPa 0,0 l/m 2,3 km/h (1 Bft) S 181 0 min 0,000 mm 0,0 UV-I 0 W/m 4,7 C 5,1 C 4,8 km/h (1 Bft) 100,00 %
08.11.2017 23:36 5,1 C 7,8 C 97 % 1019,4 hPa 0,0 l/m 1,4 km/h (1 Bft) S 181 0 min 0,000 mm 0,0 UV-I 0 W/m 4,7 C 5,1 C 3,2 km/h (1 Bft) 96,23 %
08.11.2017 23:38 5,1 C 7,8 C 97 % 1019,4 hPa 0,0 l/m 1,3 km/h (1 Bft) S 181 0 min 0,000 mm 0,0 UV-I 0 W/m 4,7 C 5,1 C 3,2 km/h (1 Bft) 100,00 %
08.11.2017 23:40 5,1 C 7,8 C 97 % 1019,4 hPa 0,0 l/m 0,0 km/h (0 Bft) S 181 0 min 0,000 mm 0,0 UV-I 0 W/m 4,7 C 5,1 C 0,0 km/h (0 Bft) 100,00 %
08.11.2017 23:42 5,1 C 7,8 C 97 % 1019,5 hPa 0,0 l/m 0,0 km/h (0 Bft) S 181 0 min 0,000 mm 0,0 UV-I 0 W/m 4,7 C 5,1 C 0,0 km/h (0 Bft) 97,14 %
08.11.2017 23:44 5,1 C 7,8 C 97 % 1019,5 hPa 0,0 l/m 0,0 km/h (0 Bft) S 181 0 min 0,000 mm 0,0 UV-I 0 W/m 4,7 C 5,1 C 0,0 km/h (0 Bft) 100,00 %
08.11.2017 23:46 5,1 C 7,8 C 97 % 1019,5 hPa 0,0 l/m 0,0 km/h (0 Bft) S 181 0 min 0,000 mm 0,0 UV-I 0 W/m 4,7 C 5,1 C 0,0 km/h (0 Bft) 100,00 %
08.11.2017 23:48 5,1 C 7,8 C 97 % 1019,5 hPa 0,0 l/m 0,0 km/h (0 Bft) S 181 0 min 0,000 mm 0,0 UV-I 0 W/m 4,7 C 5,1 C 0,0 km/h (0 Bft) 100,00 %
08.11.2017 23:50 5,0 C 7,8 C 97 % 1019,5 hPa 0,0 l/m 0,0 km/h (0 Bft) S 181 0 min 0,000 mm 0,0 UV-I 0 W/m 4,6 C 5,0 C 0,0 km/h (0 Bft) 100,00 %
08.11.2017 23:52 5,0 C 7,8 C 97 % 1019,5 hPa 0,0 l/m 0,2 km/h (0 Bft) S 181 0 min 0,000 mm 0,0 UV-I 0 W/m 4,6 C 5,0 C 1,6 km/h (1 Bft) 100,00 %
08.11.2017 23:54 5,1 C 7,8 C 97 % 1019,5 hPa 0,0 l/m 0,0 km/h (0 Bft) S 181 0 min 0,000 mm 0,0 UV-I 0 W/m 4,7 C 5,1 C 1,6 km/h (1 Bft) 100,00 %
08.11.2017 23:56 5,1 C 7,8 C 97 % 1019,5 hPa 0,0 l/m 0,1 km/h (0 Bft) S 181 0 min 0,000 mm 0,0 UV-I 0 W/m 4,7 C 5,1 C 1,6 km/h (1 Bft) 100,00 %
08.11.2017 23:58 5,1 C 7,8 C 97 % 1019,5 hPa 0,0 l/m 0,0 km/h (0 Bft) S 181 0 min 0,000 mm 0,0 UV-I 0 W/m 4,7 C 5,1 C 0,0 km/h (0 Bft) 97,22 %
_ Min-Zeit 04:38 00:00 00:00 00:00 - 19:44 - - - - - - 04:08 00:16 19:44 04:02
Minimum _ 4,6 C 7,2 C 88 % 1013,2 hPa - 0,0 km/h (0 Bft) - - - - - - 3,8 C -1,9 C 0,0 km/h (0 Bft) 90,00 %
_ Max-Zeit 00:00 20:58 18:18 23:34 10:32 00:16 - - 00:00 02:00 00:00 10:58 02:04 02:36 00:16 00:00
Maximum _ 7,6 C 7,8 C 97 % 1019,5 hPa 0,2 l/m 26,7 km/h
O-NO (4 Bft)
- - 0 min 0,026 mm 0,0 UV-I 90 W/m 5,8 C 7,2 C 40,2 km/h
O-NO (6 Bft)
100,00 %
Durchschnitt _ 5,7 C 7,3 C 94 % 1016,3 hPa #3,2 l/m 5,1 km/h (1 Bft) SW - #0 min. #0,229 mm 0,0 UV-I 45 W/m 4,8 C 5,0 C 8,2 km/h (2 Bft) 98,06 %